[[{"header":{"parameterUnit":"m.s-1","parameterCategory":1,"la1":31.0,"la2":29.5877,"lo1":-88.7671,"lo2":-86.6584,"dy":0.0162,"dx":0.0185,"nx":115,"ny":88,"refTime":"2023-11-20T18:00:00:Z","depth":0,"parameterNumber":2,"parameterNumberName":"U-component_of_WINDS"},"data":[0.0,0.0,0.0,0.0,0.0,0.0,0.0,0.0,0.0,0.0,0.0,0.0,0.0,0.0,0.0,0.0,0.0,0.0,0.0,0.0,0.0,0.0,0.0,0.0,0.0,0.0,0.0,0.0,0.0,0.0,0.0,0.0,0.0,0.0,0.0,0.0,0.0,0.0,0.0,0.0,0.0,0.0,0.0,0.0,0.0,0.0,0.0,0.0,0.0,0.0,0.0,0.0,0.0,0.0,0.0,0.0,0.0,0.0,0.0,0.0,0.0,0.0,0.0,0.0,0.0,0.0,0.0,0.0,0.0,0.0,0.0,0.0,0.0,0.0,0.0,0.0,0.0,0.0,0.0,0.0,0.0,0.0,0.0,0.0,0.0,0.0,0.0,0.0,0.0,0.0,0.0,0.0,0.0,0.0,0.0,0.0,0.0,0.0,0.0,0.0,0.0,0.0,0.0,0.0,0.0,0.0,0.0,0.0,0.0,0.0,0.0,0.0,0.0,0.0,0.0,0.0,0.0,0.0,0.0,0.0,0.0,0.0,0.0,0.0,0.0,0.0,0.0,0.0,0.0,0.0,0.0,0.0,0.0,0.0,0.0,0.0,0.0,0.0,0.0,0.0,0.0,0.0,0.0,0.0,0.0,0.0,0.0,0.0,0.0,0.0,0.0,0.0,0.0,0.0,0.0,0.0,0.0,0.0,0.0,0.0,0.0,0.0,0.0,0.0,0.0,0.0,0.0,0.0,0.0,0.0,0.0,0.0,0.0,0.0,0.0,0.0,0.0,0.0,0.0,0.0,0.0,0.0,0.0,0.0,0.0,0.0,0.0,0.0,0.0,0.0,0.0,0.0,0.0,0.0,0.0,0.0,0.0,0.0,0.0,0.0,0.0,0.0,0.0,0.0,0.0,0.0,0.0,0.0,0.0,0.0,0.0,0.0,0.0,0.0,0.0,0.0,0.0,0.0,0.0,0.0,0.0,0.0,0.0,0.0,0.0,0.0,0.0,0.0,0.0,0.0,0.0,0.0,0.0,0.0,0.0,0.0,0.0,0.0,0.0,0.0,0.0,0.0,0.0,0.0,0.0,0.0,0.0,0.0,0.0,0.0,0.0,0.0,0.0,0.0,0.0,0.0,0.0,0.0,0.0,0.0,0.0,0.0,0.0,0.0,0.0,0.0,0.0,0.0,0.0,0.0,0.0,0.0,0.0,0.0,0.0,0.0,0.0,0.0,0.0,0.0,0.0,0.0,0.0,0.0,0.0,0.0,0.0,0.0,0.0,0.0,0.0,0.0,0.0,0.0,0.0,0.0,0.0,0.0,0.0,0.0,0.0,0.0,0.0,0.0,0.0,0.0,0.0,0.0,0.0,0.0,0.0,0.0,0.0,0.0,0.0,0.0,0.0,0.0,0.0,0.0,0.0,0.0,0.0,0.0,0.0,0.0,0.0,0.0,0.0,0.0,0.0,0.0,0.0,0.0,0.0,0.0,0.0,0.0,0.0,0.0,0.0,0.0,0.0,0.0,0.0,0.0,0.0,0.0,0.0,0.0,0.0,0.0,0.0,0.0,0.0,0.0,0.0,0.0,0.0,0.0,0.0,0.0,0.0,0.0,0.0,0.0,0.0,0.0,0.0,0.0,0.0,0.0,0.0,0.0,0.0,0.0,0.0,0.0,0.0,0.0,0.0,0.0,0.0,0.0,0.0,0.0,0.0,0.0,0.0,0.0,0.0,0.0,0.0,0.0,0.0,0.0,0.0,0.0,0.0,0.0,0.0,0.0,0.0,0.0,0.0,0.0,0.0,0.0,0.0,0.0,0.0,0.0,0.0,0.0,0.0,0.0,0.0,0.0,0.0,0.0,0.0,0.0,0.0,0.0,0.0,0.0,0.0,0.0,0.0,0.0,0.0,0.0,0.0,0.0,0.0,0.0,0.0,0.0,0.0,0.0,0.0,0.0,0.0,0.0,0.0,0.0,0.0,0.0,0.0,0.0,0.0,0.0,0.0,0.0,0.0,0.0,0.0,0.0,0.0,0.0,0.0,0.0,0.0,0.0,0.0,0.0,0.0,0.0,0.0,0.0,0.0,0.0,0.0,0.0,0.0,0.0,0.0,0.0,0.0,0.0,0.0,0.0,0.0,0.0,0.0,0.0,0.0,0.0,0.0,0.0,0.0,0.0,0.0,0.0,0.0,0.0,0.0,0.0,0.0,0.0,0.0,0.0,0.0,0.0,0.0,0.0,0.0,0.0,0.0,0.0,0.0,0.0,0.0,0.0,0.0,0.0,0.0,0.0,0.0,0.0,0.0,0.0,0.0,0.0,0.0,0.0,0.0,0.0,0.0,0.0,0.0,0.0,0.0,0.0,0.0,0.0,0.0,0.0,0.0,0.0,0.0,0.0,0.0,0.0,0.0,0.0,0.0,0.0,0.0,0.0,0.0,0.0,0.0,0.0,0.0,0.0,0.0,0.0,0.0,0.0,0.0,0.0,0.0,0.0,0.0,0.0,0.0,0.0,0.0,0.0,0.0,0.0,0.0,0.0,0.0,0.0,0.0,0.0,0.0,0.0,0.0,0.0,0.0,0.0,0.0,0.0,0.0,0.0,0.0,0.0,0.0,0.0,0.0,0.0,0.0,0.0,0.0,0.0,0.0,0.0,0.0,0.0,0.0,0.0,0.0,0.0,0.0,0.0,0.0,0.0,0.0,0.0,0.0,0.0,0.0,0.0,0.0,0.0,0.0,0.0,0.0,0.0,0.0,0.0,0.0,0.0,0.0,0.0,0.0,0.0,0.0,0.0,0.0,0.0,0.0,0.0,0.0,0.0,0.0,0.0,0.0,0.0,0.0,0.0,0.0,0.0,0.0,0.0,0.0,0.0,0.0,0.0,0.0,0.0,0.0,0.0,0.0,0.0,0.0,0.0,0.0,0.0,0.0,0.0,0.0,0.0,0.0,0.0,0.0,0.0,0.0,0.0,0.0,0.0,0.0,0.0,0.0,0.0,0.0,0.0,0.0,0.0,0.0,0.0,0.0,0.0,0.0,0.0,0.0,0.0,0.0,0.0,0.0,0.0,0.0,0.0,0.0,0.0,0.0,0.0,0.0,0.0,0.0,0.0,0.0,0.0,0.0,0.0,0.0,0.0,0.0,0.0,0.0,0.0,0.0,0.0,0.0,0.0,0.0,0.0,0.0,0.0,0.0,0.0,0.0,0.0,0.0,0.0,0.0,0.0,0.0,0.0,0.0,0.0,0.0,0.0,0.0,0.0,0.0,0.0,0.0,0.0,0.0,0.0,0.0,0.0,0.0,0.0,0.0,0.0,0.0,0.0,0.0,0.0,0.0,0.0,0.0,0.0,0.0,0.0,0.0,0.0,0.0,0.0,0.0,0.0,0.0,0.0,0.0,0.0,0.0,0.0,0.0,0.0,0.0,0.0,0.0,0.0,0.0,0.0,0.0,0.0,0.0,0.0,0.0,0.0,0.0,0.0,0.0,0.0,0.0,0.0,0.0,0.0,0.0,0.0,0.0,0.0,0.0,0.0,0.0,0.0,0.0,0.0,0.0,0.0,0.0,0.0,0.0,0.0,0.0,0.0,0.0,0.0,0.0,0.0,0.0,0.0,0.0,0.0,0.0,0.0,0.0,0.0,0.0,0.0,0.0,0.0,0.0,0.0,0.0,0.0,0.0,0.0,0.0,0.0,0.0,0.0,0.0,0.0,0.0,0.0,0.0,0.0,0.0,0.0,0.0,0.0,0.0,0.0,0.0,0.0,0.0,0.0,0.0,0.0,0.0,0.0,0.0,0.0,0.0,0.0,0.0,0.0,0.0,0.0,0.0,0.0,0.0,0.0,0.0,0.0,0.0,0.0,0.0,0.0,0.0,0.0,0.0,0.0,0.0,0.0,0.0,0.0,0.0,0.0,0.0,0.0,0.0,0.0,0.0,0.0,0.0,0.0,0.0,0.0,0.0,0.0,0.0,0.0,0.0,0.0,0.0,0.0,0.0,0.0,0.0,0.0,0.0,0.0,0.0,0.0,0.0,0.0,0.0,0.0,0.0,0.0,0.0,0.0,0.0,0.0,0.0,0.0,0.0,0.0,0.0,0.0,0.0,0.0,0.0,0.0,0.0,0.0,0.0,0.0,0.0,0.0,0.0,0.0,0.0,0.0,0.0,0.0,0.0,0.0,0.0,0.0,0.0,0.0,0.0,0.0,0.0,0.0,0.0,0.0,0.0,0.0,0.0,0.0,0.0,0.0,0.0,0.0,0.0,0.0,2.3005,0.0,0.0,0.0,0.0,0.0,0.0,0.0,0.0,0.0,0.0,0.0,0.0,0.0,0.0,0.0,0.0,0.0,0.0,0.0,0.0,0.0,0.0,0.0,0.0,0.0,0.0,0.0,0.0,0.0,0.0,0.0,0.0,0.0,0.0,0.0,0.0,0.0,0.0,0.0,0.0,0.0,0.0,0.0,0.0,0.0,0.0,0.0,0.0,0.0,0.0,0.0,0.0,0.0,0.0,0.0,0.0,0.0,0.0,0.0,0.0,0.0,0.0,0.0,0.0,0.0,0.0,0.0,0.0,0.0,0.0,0.0,0.0,0.0,0.0,0.0,0.0,0.0,0.0,0.0,0.0,0.0,0.0,0.0,0.0,0.0,0.0,0.0,0.0,0.0,0.0,0.0,0.0,0.0,0.0,0.0,0.0,0.0,0.0,0.0,0.0,0.0,0.0,0.0,0.0,0.0,0.0,0.0,0.0,0.0,0.0,2.6029,2.5686,2.5667,2.5473,2.5066,0.0,0.0,0.0,0.0,0.0,0.0,0.0,0.0,0.0,0.0,0.0,0.0,0.0,0.0,0.0,0.0,0.0,0.0,0.0,0.0,0.0,0.0,0.0,0.0,0.0,0.0,0.0,0.0,0.0,0.0,0.0,0.0,0.0,0.0,0.0,0.0,0.0,0.0,0.0,0.0,0.0,0.0,0.0,0.0,0.0,0.0,0.0,0.0,0.0,0.0,0.0,0.0,0.0,0.0,0.0,0.0,0.0,0.0,0.0,0.0,0.0,0.0,0.0,0.0,0.0,0.0,0.0,0.0,0.0,0.0,0.0,0.0,0.0,0.0,0.0,0.0,0.0,0.0,0.0,0.0,0.0,0.0,0.0,0.0,0.0,0.0,0.0,0.0,0.0,0.0,0.0,0.0,0.0,0.0,0.0,0.0,0.0,0.0,0.0,0.0,0.0,0.0,0.0,0.0,0.0,0.0,0.0,0.0,0.0,0.0,0.0,0.0,2.7103,2.7013,2.6819,0.0,0.0,0.0,0.0,0.0,0.0,0.0,0.0,0.0,0.0,0.0,0.0,0.0,0.0,0.0,0.0,0.0,0.0,0.0,0.0,0.0,0.0,0.0,0.0,0.0,0.0,0.0,0.0,0.0,0.0,0.0,0.0,0.0,0.0,0.0,0.0,0.0,0.0,0.0,0.0,0.0,0.0,0.0,0.0,0.0,0.0,0.0,0.0,0.0,0.0,0.0,0.0,0.0,0.0,0.0,0.0,0.0,0.0,0.0,0.0,0.0,0.0,0.0,0.0,0.0,0.0,0.0,0.0,0.0,0.0,0.0,0.0,0.0,0.0,0.0,0.0,0.0,0.0,0.0,0.0,0.0,0.0,0.0,0.0,0.0,0.0,0.0,0.0,0.0,0.0,0.0,0.0,0.0,0.0,0.0,0.0,0.0,0.0,0.0,0.0,0.0,0.0,0.0,0.0,0.0,0.0,0.0,0.0,0.0,0.0,2.727,2.8048,2.8065,0.0,2.6904,0.0,0.0,0.0,0.0,0.0,0.0,0.0,0.0,0.0,0.0,0.0,0.0,0.0,0.0,0.0,0.0,0.0,0.0,0.0,0.0,0.0,0.0,0.0,0.0,0.0,0.0,0.0,0.0,0.0,0.0,0.0,0.0,0.0,0.0,0.0,0.0,0.0,0.0,0.0,0.0,0.0,0.0,0.0,0.0,0.0,0.0,0.0,0.0,0.0,0.0,0.0,0.0,0.0,0.0,0.0,0.0,0.0,0.0,0.0,0.0,0.0,0.0,0.0,0.0,0.0,0.0,0.0,0.0,0.0,0.0,0.0,0.0,0.0,0.0,0.0,0.0,0.0,0.0,0.0,0.0,0.0,0.0,0.0,0.0,0.0,0.0,0.0,0.0,0.0,0.0,0.0,0.0,0.0,0.0,0.0,0.0,0.0,0.0,0.0,0.0,0.0,0.0,0.0,0.0,0.0,0.0,0.0,0.0,0.0,0.0,2.8085,2.8941,2.8471,2.7785,0.0,0.0,0.0,0.0,0.0,0.0,0.0,0.0,0.0,0.0,0.0,0.0,0.0,0.0,0.0,0.0,0.0,0.0,0.0,0.0,0.0,0.0,0.0,0.0,0.0,0.0,0.0,0.0,0.0,0.0,0.0,0.0,0.0,0.0,0.0,0.0,0.0,0.0,0.0,0.0,0.0,0.0,0.0,0.0,0.0,0.0,0.0,0.0,0.0,0.0,0.0,0.0,0.0,0.0,0.0,0.0,0.0,0.0,0.0,0.0,0.0,0.0,0.0,0.0,0.0,0.0,0.0,0.0,0.0,0.0,0.0,0.0,0.0,0.0,0.0,0.0,0.0,0.0,0.0,0.0,0.0,0.0,0.0,0.0,0.0,0.0,0.0,0.0,0.0,0.0,0.0,0.0,0.0,0.0,0.0,0.0,0.0,0.0,0.0,0.0,0.0,0.0,0.0,0.0,0.0,0.0,0.0,0.0,0.0,0.0,2.7751,2.8715,2.9752,2.8807,2.794,2.7289,0.0,0.0,0.0,0.0,0.0,0.0,0.0,0.0,0.0,0.0,0.0,0.0,0.0,0.0,0.0,0.0,0.0,0.0,0.0,0.0,0.0,0.0,0.0,0.0,0.0,0.0,0.0,0.0,0.0,0.0,0.0,0.0,0.0,0.0,0.0,0.0,0.0,0.0,0.0,0.0,0.0,0.0,0.0,0.0,0.0,0.0,0.0,0.0,0.0,0.0,0.0,0.0,0.0,0.0,0.0,0.0,0.0,0.0,0.0,0.0,0.0,0.0,0.0,0.0,0.0,0.0,0.0,0.0,0.0,0.0,0.0,0.0,0.0,0.0,0.0,0.0,0.0,0.0,0.0,0.0,0.0,0.0,0.0,0.0,0.0,0.0,0.0,0.0,0.0,0.0,0.0,0.0,0.0,0.0,0.0,0.0,0.0,0.0,0.0,0.0,0.0,0.0,0.0,0.0,0.0,0.0,0.0,0.0,2.6889,2.776,2.9024,3.0638,2.9156,2.8278,0.0,0.0,0.0,0.0,0.0,0.0,0.0,0.0,0.0,0.0,0.0,0.0,0.0,0.0,0.0,0.0,0.0,0.0,0.0,0.0,0.0,0.0,0.0,0.0,0.0,0.0,0.0,0.0,0.0,0.0,0.0,0.0,0.0,0.0,0.0,0.0,0.0,0.0,0.0,0.0,0.0,0.0,0.0,0.0,0.0,0.0,0.0,0.0,0.0,0.0,0.0,0.0,0.0,0.0,0.0,0.0,0.0,0.0,0.0,0.0,0.0,0.0,0.0,0.0,0.0,0.0,0.0,0.0,0.0,0.0,0.0,0.0,0.0,0.0,0.0,0.0,0.0,0.0,0.0,0.0,0.0,0.0,0.0,0.0,0.0,0.0,0.0,0.0,0.0,0.0,0.0,0.0,0.0,0.0,0.0,0.0,0.0,0.0,0.0,0.0,0.0,0.0,0.0,0.0,0.0,0.0,0.0,0.0,0.0,2.6922,2.8299,2.9601,3.0707,2.9705,2.887,0.0,0.0,0.0,0.0,0.0,0.0,0.0,0.0,0.0,0.0,0.0,0.0,0.0,0.0,0.0,0.0,0.0,0.0,0.0,0.0,0.0,0.0,0.0,0.0,0.0,0.0,0.0,0.0,0.0,0.0,0.0,0.0,0.0,0.0,0.0,0.0,0.0,0.0,0.0,0.0,0.0,0.0,0.0,0.0,0.0,0.0,0.0,0.0,0.0,0.0,0.0,0.0,0.0,0.0,0.0,0.0,0.0,0.0,0.0,0.0,0.0,0.0,0.0,0.0,0.0,0.0,0.0,0.0,0.0,0.0,0.0,0.0,0.0,0.0,0.0,0.0,0.0,0.0,0.0,0.0,0.0,0.0,0.0,0.0,0.0,0.0,0.0,0.0,0.0,0.0,0.0,0.0,0.0,0.0,0.0,0.0,0.0,0.0,0.0,0.0,0.0,0.0,0.0,0.0,0.0,0.0,0.0,0.0,0.0,2.7332,0.0,2.9659,3.074,3.0016,2.9199,0.0,0.0,0.0,0.0,0.0,0.0,0.0,0.0,0.0,0.0,0.0,0.0,0.0,0.0,0.0,0.0,0.0,0.0,0.0,0.0,0.0,0.0,0.0,0.0,0.0,0.0,0.0,0.0,0.0,0.0,0.0,0.0,0.0,0.0,0.0,0.0,0.0,0.0,0.0,0.0,0.0,0.0,0.0,0.0,0.0,0.0,0.0,0.0,0.0,0.0,0.0,0.0,0.0,0.0,0.0,0.0,0.0,0.0,0.0,0.0,0.0,0.0,0.0,0.0,0.0,0.0,0.0,0.0,0.0,0.0,0.0,0.0,0.0,0.0,0.0,0.0,0.0,0.0,0.0,0.0,0.0,0.0,0.0,0.0,0.0,0.0,0.0,0.0,0.0,0.0,0.0,0.0,0.0,0.0,0.0,0.0,0.0,0.0,0.0,0.0,0.0,0.0,0.0,0.0,0.0,0.0,0.0,0.0,2.6617,2.8232,2.8385,2.927,3.0835,3.0134,2.9236,0.0,0.0,0.0,0.0,0.0,0.0,0.0,0.0,0.0,0.0,0.0,0.0,0.0,0.0,0.0,0.0,0.0,0.0,0.0,0.0,0.0,0.0,0.0,0.0,0.0,0.0,0.0,0.0,0.0,0.0,0.0,0.0,0.0,0.0,0.0,0.0,0.0,0.0,0.0,0.0,0.0,0.0,0.0,0.0,0.0,0.0,0.0,0.0,0.0,0.0,0.0,0.0,0.0,0.0,0.0,0.0,0.0,0.0,0.0,0.0,0.0,0.0,0.0,0.0,0.0,0.0,0.0,0.0,0.0,0.0,0.0,0.0,0.0,0.0,0.0,0.0,0.0,0.0,0.0,0.0,0.0,0.0,0.0,0.0,0.0,0.0,0.0,0.0,0.0,0.0,0.0,0.0,0.0,0.0,0.0,0.0,0.0,0.0,0.0,0.0,0.0,0.0,0.0,0.0,0.0,0.0,0.0,0.0,0.0,2.9986,3.0076,3.0625,3.166,3.1464,3.037,0.0,0.0,0.0,0.0,0.0,0.0,0.0,0.0,0.0,0.0,0.0,0.0,0.0,0.0,0.0,0.0,0.0,0.0,0.0,0.0,0.0,0.0,0.0,0.0,0.0,0.0,0.0,0.0,0.0,0.0,0.0,0.0,0.0,0.0,0.0,0.0,0.0,0.0,0.0,0.0,0.0,0.0,0.0,0.0,0.0,0.0,0.0,0.0,0.0,0.0,0.0,0.0,0.0,0.0,0.0,0.0,0.0,0.0,0.0,0.0,0.0,0.0,0.0,0.0,0.0,0.0,0.0,0.0,0.0,0.0,0.0,0.0,0.0,0.0,0.0,0.0,0.0,0.0,0.0,0.0,0.0,0.0,0.0,0.0,0.0,0.0,0.0,0.0,0.0,0.0,0.0,0.0,0.0,0.0,0.0,0.0,0.0,0.0,0.0,0.0,0.0,0.0,0.0,0.0,0.0,0.0,0.0,0.0,0.0,3.3103,3.2304,3.2223,3.3058,3.3078,3.1887,2.9407,0.0,0.0,0.0,0.0,0.0,0.0,0.0,0.0,0.0,0.0,0.0,0.0,0.0,0.0,0.0,0.0,0.0,0.0,0.0,0.0,0.0,0.0,0.0,0.0,0.0,0.0,0.0,0.0,0.0,0.0,0.0,0.0,0.0,0.0,0.0,0.0,0.0,0.0,0.0,0.0,0.0,0.0,0.0,0.0,0.0,0.0,0.0,0.0,0.0,0.0,0.0,0.0,0.0,0.0,0.0,0.0,0.0,0.0,0.0,0.0,0.0,0.0,0.0,0.0,0.0,0.0,0.0,0.0,0.0,0.0,0.0,0.0,0.0,0.0,0.0,0.0,0.0,0.0,0.0,0.0,0.0,0.0,0.0,0.0,0.0,0.0,0.0,0.0,0.0,0.0,0.0,0.0,0.0,0.0,0.0,0.0,0.0,0.0,0.0,0.0,0.0,0.0,0.0,0.0,0.0,0.0,0.0,0.0,3.7459,3.5209,3.4322,3.4898,3.4861,3.3632,0.0,0.0,0.0,0.0,0.0,0.0,0.0,0.0,0.0,0.0,0.0,0.0,0.0,0.0,0.0,0.0,0.0,0.0,0.0,0.0,0.0,0.0,0.0,0.0,0.0,0.0,0.0,0.0,0.0,0.0,0.0,0.0,0.0,0.0,0.0,0.0,0.0,0.0,0.0,0.0,0.0,0.0,0.0,0.0,0.0,0.0,0.0,0.0,0.0,0.0,0.0,0.0,0.0,0.0,0.0,0.0,0.0,0.0,0.0,0.0,0.0,0.0,0.0,0.0,0.0,0.0,0.0,0.0,0.0,0.0,0.0,0.0,0.0,0.0,0.0,0.0,0.0,0.0,0.0,0.0,0.0,0.0,0.0,0.0,0.0,0.0,0.0,0.0,0.0,0.0,0.0,0.0,0.0,0.0,0.0,0.0,0.0,0.0,0.0,0.0,0.0,0.0,0.0,0.0,0.0,0.0,0.0,0.0,0.0,3.9997,4.0632,3.9838,3.7601,3.6875,3.5061,0.0,0.0,0.0,0.0,0.0,0.0,0.0,0.0,0.0,0.0,0.0,0.0,0.0,0.0,0.0,0.0,0.0,0.0,0.0,0.0,0.0,0.0,0.0,0.0,0.0,0.0,0.0,0.0,0.0,0.0,0.0,0.0,0.0,0.0,0.0,0.0,0.0,0.0,0.0,0.0,0.0,0.0,0.0,0.0,0.0,0.0,0.0,0.0,0.0,0.0,0.0,0.0,0.0,0.0,0.0,0.0,0.0,0.0,0.0,0.0,0.0,0.0,0.0,0.0,0.0,0.0,0.0,0.0,0.0,0.0,0.0,0.0,0.0,0.0,0.0,0.0,0.0,0.0,0.0,0.0,0.0,0.0,0.0,0.0,0.0,0.0,0.0,0.0,0.0,0.0,0.0,0.0,0.0,0.0,0.0,0.0,0.0,0.0,0.0,0.0,0.0,0.0,0.0,0.0,0.0,0.0,0.0,0.0,3.9585,4.2109,4.415,4.4247,4.2284,4.034,3.7752,0.0,0.0,0.0,0.0,0.0,0.0,0.0,0.0,0.0,0.0,0.0,0.0,0.0,0.0,0.0,0.0,0.0,0.0,0.0,0.0,0.0,0.0,0.0,0.0,0.0,0.0,0.0,0.0,0.0,0.0,0.0,0.0,0.0,0.0,0.0,0.0,0.0,0.0,0.0,0.0,0.0,0.0,0.0,0.0,0.0,0.0,0.0,0.0,0.0,0.0,0.0,0.0,0.0,0.0,0.0,0.0,0.0,0.0,0.0,0.0,0.0,0.0,0.0,0.0,0.0,0.0,0.0,0.0,0.0,0.0,0.0,0.0,0.0,0.0,0.0,0.0,0.0,0.0,0.0,0.0,0.0,0.0,0.0,0.0,0.0,0.0,0.0,0.0,0.0,0.0,0.0,0.0,0.0,0.0,0.0,0.0,0.0,0.0,0.0,0.0,0.0,0.0,0.0,0.0,0.0,0.0,0.0,0.0,4.1335,4.3942,4.6383,4.7665,4.7551,4.426,4.0889,0.0,0.0,0.0,0.0,0.0,0.0,0.0,0.0,0.0,0.0,0.0,0.0,0.0,0.0,0.0,0.0,0.0,0.0,0.0,0.0,0.0,0.0,0.0,0.0,0.0,0.0,0.0,0.0,0.0,0.0,0.0,0.0,0.0,0.0,0.0,0.0,0.0,0.0,0.0,0.0,0.0,0.0,0.0,0.0,0.0,0.0,0.0,0.0,0.0,0.0,0.0,0.0,0.0,0.0,0.0,0.0,0.0,0.0,0.0,0.0,0.0,0.0,0.0,0.0,0.0,0.0,0.0,0.0,0.0,0.0,0.0,0.0,0.0,0.0,0.0,0.0,0.0,0.0,0.0,0.0,0.0,0.0,0.0,0.0,0.0,0.0,0.0,0.0,0.0,0.0,0.0,0.0,0.0,0.0,0.0,0.0,0.0,0.0,0.0,0.0,0.0,0.0,0.0,0.0,0.0,0.0,0.0,0.0,4.3337,4.6503,4.8409,4.9349,4.9268,4.5405,4.2031,0.0,0.0,0.0,0.0,0.0,0.0,0.0,0.0,0.0,0.0,0.0,0.0,0.0,0.0,0.0,0.0,0.0,0.0,0.0,0.0,0.0,0.0,0.0,0.0,0.0,0.0,0.0,0.0,0.0,0.0,0.0,0.0,0.0,0.0,0.0,0.0,0.0,0.0,0.0,0.0,0.0,0.0,0.0,0.0,0.0,0.0,0.0,0.0,2.8109,0.0,0.0,0.0,0.0,0.0,0.0,0.0,0.0,0.0,0.0,0.0,0.0,0.0,0.0,0.0,0.0,0.0,0.0,0.0,0.0,0.0,0.0,0.0,0.0,0.0,0.0,0.0,0.0,0.0,0.0,0.0,0.0,0.0,0.0,0.0,0.0,0.0,0.0,0.0,0.0,0.0,0.0,0.0,0.0,0.0,0.0,0.0,0.0,0.0,0.0,0.0,0.0,0.0,0.0,0.0,0.0,0.0,0.0,0.0,4.4798,4.7369,4.9388,5.0246,4.9692,4.651,4.352,0.0,0.0,0.0,0.0,0.0,0.0,0.0,0.0,0.0,0.0,0.0,0.0,0.0,0.0,0.0,0.0,0.0,0.0,0.0,0.0,0.0,0.0,0.0,0.0,0.0,0.0,0.0,0.0,0.0,0.0,0.0,0.0,0.0,0.0,0.0,0.0,0.0,0.0,0.0,0.0,0.0,0.0,0.0,0.0,0.0,0.0,0.0,0.0,0.0,0.0,0.0,0.0,0.0,0.0,0.0,0.0,0.0,0.0,0.0,0.0,0.0,0.0,0.0,0.0,0.0,0.0,0.0,0.0,0.0,0.0,0.0,0.0,0.0,0.0,0.0,0.0,0.0,0.0,0.0,0.0,0.0,0.0,0.0,0.0,0.0,0.0,0.0,0.0,0.0,0.0,0.0,0.0,0.0,0.0,0.0,0.0,0.0,0.0,0.0,0.0,0.0,0.0,0.0,0.0,0.0,0.0,0.0,4.211,4.5479,4.7544,4.9745,5.0552,4.9788,4.7313,4.4799,4.2238,0.0,0.0,0.0,0.0,0.0,0.0,0.0,0.0,0.0,0.0,0.0,0.0,0.0,0.0,0.0,0.0,0.0,0.0,0.0,0.0,0.0,0.0,0.0,0.0,0.0,0.0,0.0,0.0,0.0,0.0,0.0,0.0,0.0,0.0,0.0,0.0,0.0,0.0,2.3448,2.6443,0.0,0.0,0.0,0.0,0.0,0.0,0.0,0.0,3.0695,0.0,0.0,0.0,0.0,0.0,0.0,0.0,0.0,0.0,0.0,0.0,0.0,0.0,0.0,0.0,0.0,0.0,0.0,0.0,0.0,0.0,0.0,0.0,0.0,0.0,0.0,0.0,0.0,0.0,0.0,0.0,0.0,0.0,0.0,0.0,0.0,0.0,0.0,0.0,0.0,0.0,0.0,0.0,0.0,0.0,0.0,0.0,0.0,0.0,0.0,0.0,0.0,0.0,0.0,0.0,0.0,3.8285,4.1167,4.4492,4.8216,4.9369,4.9857,4.9644,4.7256,4.4746,4.2208,0.0,0.0,0.0,0.0,0.0,0.0,0.0,0.0,0.0,0.0,0.0,0.0,0.0,0.0,0.0,0.0,0.0,0.0,0.0,0.0,0.0,0.0,0.0,0.0,0.0,0.0,0.0,0.0,0.0,0.0,0.0,0.0,0.0,0.0,0.0,0.0,0.0,0.0,0.0,2.8592,3.0581,0.0,0.0,0.0,0.0,0.0,0.0,0.0,0.0,3.0613,0.0,0.0,0.0,0.0,0.0,0.0,0.0,0.0,0.0,0.0,0.0,0.0,0.0,0.0,0.0,0.0,0.0,0.0,0.0,0.0,0.0,0.0,0.0,0.0,0.0,0.0,0.0,0.0,0.0,0.0,0.0,0.0,0.0,0.0,0.0,0.0,0.0,0.0,0.0,0.0,0.0,0.0,0.0,0.0,0.0,0.0,0.0,0.0,0.0,0.0,0.0,0.0,0.0,0.0,0.0,3.7839,4.1151,4.4482,4.7765,4.8651,4.9054,4.8972,4.6603,4.4095,0.0,0.0,0.0,0.0,0.0,0.0,0.0,0.0,0.0,0.0,0.0,0.0,0.0,0.0,0.0,0.0,0.0,0.0,0.0,0.0,0.0,0.0,0.0,0.0,0.0,0.0,0.0,0.0,0.0,0.0,0.0,0.0,0.0,0.0,0.0,0.0,0.0,0.0,0.0,0.0,2.9946,3.1177,3.2493,0.0,0.0,0.0,0.0,0.0,0.0,3.2049,3.1899,0.0,0.0,0.0,0.0,0.0,0.0,0.0,0.0,0.0,0.0,0.0,0.0,0.0,0.0,0.0,0.0,0.0,0.0,0.0,0.0,0.0,0.0,0.0,0.0,0.0,0.0,0.0,0.0,0.0,0.0,0.0,0.0,0.0,0.0,0.0,0.0,0.0,0.0,0.0,0.0,0.0,0.0,0.0,0.0,0.0,0.0,0.0,0.0,0.0,0.0,0.0,0.0,0.0,0.0,0.0,3.7735,4.1338,4.455,4.7163,4.7895,4.8188,4.8101,4.5893,4.3513,0.0,0.0,0.0,0.0,0.0,0.0,0.0,0.0,0.0,0.0,0.0,0.0,0.0,0.0,0.0,0.0,0.0,0.0,0.0,0.0,0.0,0.0,0.0,0.0,0.0,0.0,0.0,0.0,0.0,0.0,0.0,0.0,0.0,0.0,0.0,0.0,0.0,0.0,0.0,0.0,0.0,3.2045,3.3601,3.3971,0.0,0.0,0.0,0.0,3.3852,3.3692,0.0,0.0,0.0,0.0,0.0,0.0,0.0,0.0,0.0,0.0,0.0,0.0,0.0,0.0,0.0,0.0,0.0,0.0,0.0,0.0,0.0,0.0,0.0,0.0,0.0,0.0,0.0,0.0,0.0,0.0,0.0,0.0,0.0,0.0,0.0,0.0,0.0,0.0,0.0,0.0,0.0,0.0,0.0,0.0,0.0,0.0,0.0,0.0,0.0,0.0,0.0,0.0,0.0,0.0,0.0,0.0,3.9337,4.1305,4.3865,4.701,4.7254,4.725,4.7231,4.5583,4.3493,0.0,0.0,0.0,0.0,0.0,0.0,0.0,0.0,0.0,0.0,0.0,0.0,0.0,0.0,0.0,0.0,0.0,0.0,0.0,0.0,0.0,0.0,0.0,0.0,0.0,0.0,0.0,0.0,0.0,0.0,0.0,0.0,0.0,0.0,0.0,0.0,0.0,0.0,0.0,0.0,0.0,3.4491,3.5476,3.6265,3.6742,0.0,0.0,3.5685,3.5689,3.5049,0.0,0.0,0.0,0.0,0.0,0.0,0.0,0.0,0.0,0.0,0.0,0.0,0.0,0.0,0.0,0.0,0.0,0.0,0.0,0.0,0.0,0.0,0.0,0.0,0.0,0.0,0.0,0.0,0.0,0.0,0.0,0.0,0.0,0.0,0.0,0.0,0.0,0.0,0.0,0.0,0.0,0.0,0.0,0.0,0.0,0.0,0.0,0.0,0.0,0.0,0.0,0.0,0.0,0.0,0.0,3.6035,3.8926,4.1034,4.3532,4.6313,4.6389,4.6361,4.6341,4.4802,4.2776,0.0,0.0,0.0,0.0,0.0,0.0,0.0,0.0,0.0,0.0,0.0,0.0,0.0,0.0,0.0,0.0,0.0,0.0,0.0,0.0,0.0,0.0,0.0,0.0,0.0,0.0,0.0,0.0,0.0,0.0,0.0,0.0,0.0,0.0,0.0,0.0,0.0,0.0,0.0,0.0,0.0,0.0,3.6523,3.78,0.0,0.0,0.0,3.89,3.8892,0.0,0.0,0.0,0.0,0.0,0.0,0.0,0.0,0.0,0.0,0.0,0.0,0.0,0.0,0.0,0.0,0.0,0.0,0.0,0.0,0.0,0.0,0.0,0.0,0.0,0.0,0.0,0.0,0.0,0.0,0.0,0.0,0.0,0.0,0.0,0.0,0.0,0.0,0.0,0.0,0.0,0.0,0.0,0.0,0.0,0.0,0.0,0.0,0.0,0.0,0.0,0.0,0.0,0.0,0.0,0.0,0.0,3.8999,4.1267,4.3559,4.5815,4.5847,4.58,4.578,4.424,0.0,0.0,0.0,0.0,0.0,0.0,0.0,0.0,0.0,0.0,0.0,0.0,0.0,0.0,0.0,0.0,0.0,0.0,0.0,0.0,0.0,0.0,0.0,0.0,0.0,0.0,0.0,2.2736,0.0,0.0,0.0,0.0,0.0,0.0,0.0,0.0,0.0,0.0,0.0,0.0,0.0,0.0,3.6952,3.8018,3.9661,4.0777,0.0,0.0,4.1741,4.1755,4.0894,3.9785,0.0,0.0,0.0,0.0,0.0,0.0,0.0,0.0,0.0,0.0,0.0,0.0,0.0,0.0,0.0,0.0,0.0,0.0,0.0,0.0,0.0,0.0,0.0,0.0,0.0,0.0,0.0,0.0,0.0,0.0,0.0,0.0,0.0,0.0,0.0,0.0,0.0,0.0,0.0,0.0,0.0,0.0,0.0,0.0,0.0,0.0,0.0,0.0,0.0,0.0,0.0,0.0,0.0,0.0,0.0,4.0654,4.243,4.4136,4.5815,4.5847,4.58,4.5761,4.424,4.2571,0.0,0.0,0.0,0.0,0.0,0.0,0.0,0.0,0.0,0.0,0.0,0.0,0.0,0.0,0.0,0.0,0.0,0.0,0.0,0.0,0.0,0.0,0.0,0.0,0.0,0.0,0.0,0.0,0.0,0.0,0.0,0.0,0.0,0.0,0.0,0.0,0.0,0.0,0.0,0.0,0.0,3.8928,4.0606,4.2331,4.343,0.0,0.0,4.3512,4.3531,4.2184,4.1074,4.0937,0.0,0.0,0.0,0.0,0.0,0.0,0.0,0.0,0.0,0.0,0.0,0.0,0.0,0.0,0.0,0.0,0.0,0.0,0.0,0.0,0.0,0.0,0.0,0.0,0.0,0.0,0.0,0.0,0.0,0.0,0.0,0.0,0.0,0.0,0.0,0.0,0.0,0.0,0.0,0.0,0.0,0.0,0.0,0.0,0.0,0.0,0.0,0.0,0.0,0.0,0.0,0.0,0.0,3.807,4.0869,4.2554,4.4194,4.575,4.5814,4.5548,4.5084,4.3924,4.2327,0.0,0.0,0.0,0.0,0.0,0.0,0.0,0.0,0.0,0.0,0.0,0.0,0.0,0.0,0.0,0.0,0.0,0.0,0.0,0.0,0.0,0.0,0.0,0.0,0.0,0.0,0.0,0.0,2.6798,2.7301,2.7315,0.0,0.0,0.0,0.0,0.0,0.0,0.0,0.0,0.0,0.0,4.0352,4.1003,4.3049,0.0,0.0,4.4956,4.5294,4.5307,4.3847,4.255,4.2023,3.9956,0.0,0.0,0.0,0.0,0.0,0.0,0.0,0.0,0.0,0.0,0.0,0.0,0.0,0.0,0.0,0.0,0.0,0.0,0.0,0.0,0.0,0.0,0.0,0.0,0.0,0.0,0.0,0.0,0.0,0.0,0.0,0.0,0.0,0.0,0.0,0.0,0.0,0.0,0.0,0.0,0.0,0.0,0.0,0.0,0.0,0.0,0.0,0.0,0.0,0.0,0.0,0.0,3.8405,4.0878,4.2563,4.4182,4.5775,4.58,4.5529,4.4968,4.3873,4.2361,0.0,0.0,0.0,0.0,0.0,0.0,0.0,0.0,0.0,0.0,0.0,0.0,0.0,0.0,0.0,0.0,0.0,0.0,0.0,0.0,0.0,0.0,0.0,0.0,0.0,0.0,0.0,0.0,2.7934,2.8496,2.9001,0.0,0.0,0.0,0.0,0.0,0.0,0.0,0.0,0.0,0.0,4.168,4.2214,4.4057,4.5388,4.5385,4.5911,4.6305,4.6289,4.5052,4.3888,4.3277,0.0,0.0,0.0,0.0,0.0,0.0,0.0,0.0,0.0,0.0,0.0,0.0,0.0,0.0,0.0,0.0,0.0,0.0,0.0,0.0,0.0,0.0,0.0,0.0,0.0,0.0,0.0,0.0,0.0,0.0,2.6904,0.0,0.0,0.0,0.0,0.0,0.0,0.0,0.0,0.0,0.0,0.0,0.0,0.0,0.0,0.0,0.0,0.0,0.0,0.0,0.0,0.0,0.0,3.8388,4.0877,4.2551,4.4163,4.5742,4.58,4.578,4.5722,4.4176,4.2911,4.2001,0.0,0.0,0.0,0.0,0.0,0.0,0.0,0.0,0.0,0.0,0.0,0.0,0.0,0.0,0.0,0.0,0.0,0.0,0.0,0.0,0.0,0.0,0.0,0.0,0.0,0.0,2.8298,2.8291,2.9006,0.0,0.0,0.0,0.0,0.0,0.0,0.0,0.0,0.0,0.0,4.1246,4.2988,4.4629,4.5683,4.6269,4.6285,4.6303,4.6303,4.634,4.554,4.4989,0.0,0.0,0.0,0.0,0.0,0.0,0.0,0.0,0.0,0.0,0.0,0.0,0.0,0.0,0.0,0.0,0.0,0.0,0.0,0.0,0.0,0.0,0.0,0.0,0.0,0.0,0.0,3.0603,2.9853,0.0,0.0,0.0,0.0,0.0,0.0,0.0,0.0,0.0,0.0,0.0,3.7125,3.8544,0.0,0.0,0.0,0.0,0.0,0.0,0.0,0.0,0.0,0.0,0.0,0.0,3.9189,4.1615,4.2792,4.4118,4.5742,4.58,4.58,4.578,4.475,4.3254,4.1284,0.0,0.0,0.0,0.0,0.0,0.0,0.0,0.0,0.0,0.0,0.0,0.0,0.0,0.0,0.0,0.0,0.0,0.0,0.0,0.0,0.0,0.0,0.0,0.0,0.0,2.9393,0.0,0.0,0.0,0.0,0.0,0.0,0.0,0.0,0.0,0.0,0.0,3.9705,4.0545,4.2654,4.4338,4.4914,4.6192,4.7113,0.0,0.0,0.0,0.0,0.0,0.0,0.0,0.0,0.0,0.0,0.0,0.0,0.0,0.0,3.9465,3.8368,3.7692,3.7207,3.6894,0.0,0.0,0.0,0.0,0.0,0.0,0.0,0.0,0.0,0.0,0.0,0.0,0.0,0.0,0.0,0.0,3.3692,0.0,0.0,0.0,0.0,0.0,0.0,0.0,0.0,3.8471,3.9791,4.0081,4.1526,4.2186,0.0,4.1383,3.9682,0.0,0.0,0.0,0.0,0.0,0.0,0.0,0.0,4.0218,4.2047,4.3194,4.4428,4.5722,4.5805,4.5805,4.5786,4.4979,4.3336,4.0842,3.8628,3.6919,0.0,0.0,0.0,0.0,0.0,0.0,0.0,0.0,0.0,0.0,0.0,0.0,0.0,0.0,0.0,0.0,0.0,0.0,0.0,0.0,0.0,0.0,0.0,3.1143,0.0,0.0,0.0,0.0,0.0,0.0,0.0,0.0,0.0,3.7343,3.9512,4.1326,4.1924,4.3746,4.5206,4.578,0.0,0.0,0.0,0.0,0.0,0.0,0.0,4.6294,4.6294,4.6248,4.593,4.5072,4.4215,4.391,4.4812,0.0,0.0,4.1124,4.0296,3.9815,3.9522,4.0172,4.0839,4.1113,4.1833,4.2532,0.0,0.0,0.0,0.0,0.0,0.0,0.0,0.0,3.7996,3.7899,0.0,3.7123,0.0,0.0,0.0,0.0,0.0,3.7628,0.0,0.0,4.0994,4.2576,4.3428,4.4299,4.4705,4.4679,4.3904,4.3036,4.1983,3.8127,0.0,0.0,0.0,0.0,0.0,0.0,4.1304,4.2233,4.377,4.4976,4.5761,4.581,4.58,4.5781,4.4886,4.3269,4.0982,4.0706,3.9187,3.6035,3.5776,0.0,0.0,0.0,0.0,0.0,0.0,0.0,0.0,0.0,0.0,0.0,0.0,0.0,0.0,0.0,0.0,0.0,0.0,0.0,0.0,3.2394,0.0,0.0,0.0,0.0,0.0,0.0,0.0,0.0,0.0,0.0,4.0083,4.0754,4.1849,4.3519,0.0,0.0,0.0,0.0,4.7897,4.8717,4.8854,4.8828,4.8847,4.8736,4.8663,4.8655,0.0,0.0,4.7598,4.675,4.6427,4.7276,4.6734,4.5507,4.3111,4.2627,4.2275,4.1514,4.2084,4.2831,4.3644,4.4506,4.5348,4.4192,0.0,0.0,0.0,0.0,4.0854,4.1582,4.2217,4.3022,4.2579,4.1251,4.1292,0.0,0.0,0.0,0.0,0.0,0.0,4.1253,4.1905,4.3819,4.5143,4.5943,4.6831,4.7229,4.7202,4.6419,4.5609,4.4724,4.2366,4.0548,3.9246,0.0,0.0,0.0,0.0,4.1795,4.3782,4.4269,4.4858,4.5708,4.5731,4.5735,4.5715,4.4855,4.4068,4.3346,4.1596,4.0221,3.9303,3.7522,0.0,0.0,0.0,0.0,0.0,0.0,0.0,0.0,0.0,0.0,0.0,0.0,0.0,0.0,0.0,0.0,0.0,0.0,0.0,3.267,3.3103,3.3379,0.0,0.0,0.0,0.0,0.0,0.0,0.0,0.0,0.0,4.3227,4.3699,4.407,0.0,0.0,4.6943,4.7435,4.8526,4.9364,4.9617,0.0,0.0,0.0,4.9041,4.8623,4.8623,4.8582,4.8669,4.9046,4.8427,4.7962,4.8234,4.8117,4.7712,4.7035,4.5908,4.5085,4.4855,4.5434,4.6088,4.6404,4.7146,4.7849,5.0133,4.6266,4.4766,4.4135,4.4249,4.5093,4.5764,4.6282,4.6743,4.6206,4.4958,4.4682,4.3635,4.2052,4.1633,0.0,0.0,0.0,4.4235,4.477,4.6487,4.7689,4.8502,4.935,4.9579,4.9247,4.8797,4.7979,4.6849,4.5443,4.402,4.2504,0.0,0.0,4.1811,4.2099,4.3148,4.495,4.531,4.5873,4.6722,4.6378,4.6152,4.61,4.5293,4.466,4.4314,4.2871,4.1617,4.0656,3.9206,3.7723,0.0,0.0,0.0,0.0,0.0,0.0,0.0,0.0,0.0,0.0,0.0,2.9215,0.0,0.0,0.0,0.0,3.3395,3.4662,3.5344,3.5378,0.0,0.0,0.0,0.0,0.0,0.0,0.0,4.0877,4.1914,4.3078,4.4618,4.5168,4.5511,4.5903,4.7124,4.8102,4.8398,0.0,5.0082,5.0393,5.0451,5.0422,5.0381,4.9951,4.9586,4.9594,4.955,4.9692,5.0177,4.9879,4.9594,4.959,4.9623,4.9663,4.9683,4.8842,4.7924,4.7379,4.7635,4.8084,4.8435,4.8981,4.9469,5.5394,5.3699,5.0073,4.8493,4.8462,4.925,4.9576,4.9576,4.9597,4.9099,4.8217,4.7434,4.6126,4.4491,4.4633,0.0,4.4778,4.6455,4.7265,4.7458,4.8967,5.0105,5.0913,5.1703,5.1684,5.0913,5.0969,5.0119,4.8516,4.7689,4.7227,4.7012,4.4008,4.2853,4.3581,4.4332,4.5075,4.5896,4.6687,4.7477,4.8249,4.7369,4.6854,4.6781,4.5956,4.5131,4.4346,4.4268,4.3188,4.0857,4.0752,3.9683,3.7266,0.0,0.0,0.0,0.0,0.0,0.0,0.0,0.0,0.0,0.0,0.0,0.0,0.0,0.0,0.0,3.5168,0.0,3.8338,3.8436,0.0,0.0,0.0,3.8695,3.8676,4.0162,4.1202,4.1285,0.0,0.0,4.4804,0.0,4.6425,4.7367,4.8193,4.8964,4.9765,4.9943,5.0242,5.0952,5.1076,5.1076,5.1017,5.0959,5.0912,5.0912,5.1087,5.099,5.1009,5.1009,5.1056,5.0985,5.1081,5.1066,5.1163,5.1005,5.0753,4.9223,4.8996,4.9243,4.9945,5.0185,5.0425,5.7332,5.6436,5.5511,5.4115,5.2583,5.2755,5.2875,5.2924,5.2949,5.2126,5.0692,4.9899,4.8316,4.6259,4.6931,4.7255,4.7349,4.8407,4.9584,5.0721,5.1145,5.178,5.2588,5.2819,5.2839,5.2685,5.2704,5.1836,5.0254,4.9947,4.9195,4.7998,4.7097,4.6461,4.614,4.6262,4.6747,4.7612,4.7736,4.7912,4.8048,4.7261,4.6781,4.6724,4.586,4.5343,4.5113,4.4556,4.3673,4.246,4.1854,4.0699,3.8923,3.8698,0.0,0.0,0.0,0.0,0.0,0.0,0.0,0.0,0.0,3.3059,3.3646,0.0,3.5554,0.0,3.7189,3.798,3.8373,3.8424,0.0,0.0,3.9535,4.0332,4.0332,4.182,4.3082,4.3762,4.4361,4.496,4.5549,4.6363,4.7241,4.8107,4.8402,4.886,4.9691,5.0403,5.0875,5.1037,5.1095,5.1081,5.1034,5.0971,5.0975,5.0956,5.0956,5.0956,5.0921,5.1005,5.102,5.1034,5.1069,5.1108,5.1113,5.1159,5.1092,5.0722,5.0655,5.075,5.0984,5.1044,5.1141,5.8672,5.8325,5.8424,5.7737,5.6578,5.5902,5.5633,5.5603,5.4886,5.4053,5.3099,5.1629,5.0227,4.9047,4.9489,4.972,4.9817,5.0702,5.1586,5.245,5.2855,5.3318,5.3799,5.4164,5.4147,5.384,5.382,5.3147,5.1934,5.1838,5.1164,4.9931,4.9836,4.9413,4.864,4.7852,4.7871,4.8717,4.9067,4.9221,4.9143,4.8356,4.7702,4.7219,4.6376,4.5763,4.538,4.4959,4.4384,4.3577,4.3131,4.2175,4.0602,4.0217,3.9262,0.0,0.0,0.0,0.0,0.0,0.0,0.0,0.0,0.0,0.0,0.0,3.7513,0.0,3.9233,3.9818,4.0558,4.0616,4.0607,4.0567,4.1421,4.2003,4.2022,4.3144,4.4102,4.4606,4.4989,4.5364,4.5809,4.6623,4.7481,4.8333,4.8773,4.9342,5.017,5.0777,5.1053,5.1005,5.1024,5.1005,5.0937,5.0921,5.0906,5.0906,5.0906,5.0906,5.0906,5.0941,5.0971,5.1005,5.1029,5.105,5.1093,5.1125,5.1163,5.1194,5.1229,5.1258,5.1267,5.13,5.1342,5.9587,5.9493,5.9688,5.9791,5.9772,5.8437,5.7832,5.7672,5.6292,5.55,5.5069,5.3053,5.2058,5.1858,5.1839,5.1916,5.211,5.2998,5.3462,5.3615,5.4545,5.4893,5.4816,5.5508,5.5412,5.4643,5.4624,5.4182,5.3374,5.3376,5.2933,5.2106,5.2087,5.1722,5.0991,4.9413,4.8913,4.9567,5.0298,5.0643,5.0584,4.9738,4.8832,4.7905,4.7042,4.6179,4.5356,4.5357,4.5016,4.4231,4.4266,4.3602,4.2121,4.1382,4.0687,0.0,3.9248,0.0,0.0,0.0,0.0,0.0,0.0,0.0,0.0,3.8482,3.9641,4.112,4.1228,4.181,4.3264,4.3385,4.3393,4.3381,4.3497,4.3555,4.3574,4.4266,4.4757,4.4757,4.5382,4.58,4.5852,4.6554,4.7424,4.8275,4.9107,4.9935,5.0758,5.0966,5.0971,5.0906,5.0906,5.0925,5.0906,5.0906,5.0906,5.0906,5.0906,5.0906,5.0906,5.0906,5.0906,5.0971,5.0986,5.1015,5.1088,5.1095,5.1127,5.1159,5.1194,5.1189,5.1201,5.123,5.1287,6.0041,5.9512,5.9547,5.9599,5.9647,5.9484,5.9134,5.8633,5.831,5.7073,5.5203,5.4726,5.3855,5.2709,5.2694,5.31,5.3855,5.466,5.5427,5.6137,5.7004,5.7043,5.6391,5.6525,5.6141,5.5359,5.5385,5.4965,5.4197,5.422,5.3818,5.2972,5.2953,5.2876,5.2683,0.0,0.0,0.0,5.0586,5.0582,5.0502,4.9635,4.8709,4.784,4.6961,0.0,4.5335,4.5317,4.4956,4.4154,4.4192,0.0,0.0,0.0,0.0,0.0,0.0,0.0,0.0,0.0,0.0,0.0,4.11,4.0713,4.0266,4.1567,4.2574,4.2904,4.2931,4.3036,4.3284,4.331,4.3318,4.335,4.3956,4.4382,4.4401,4.5079,4.5582,4.5582,4.5717,4.5819,4.5896,4.6554,4.7424,4.8353,4.9146,4.9997,5.079,5.0941,5.0906,5.0906,5.0906,5.0906,5.0906,5.0906,5.0906,5.0906,5.0906,5.0906,5.0906,5.0906,5.0906,5.0921,5.0956,5.1005,5.101,5.1073,5.1114,5.1121,5.1127,5.1132,5.1189,5.122,5.122,6.0285,0.0,5.9626,5.9529,0.0,5.9669,5.9526,5.9222,5.895,5.7919,5.6378,5.6387,5.5965,5.5288,5.5269,5.5562,5.6097,5.6524,5.6989,5.741,5.7876,5.7862,5.744,5.6999,5.6597,5.6137,5.5719,5.5339,5.4975,5.4959,5.4578,5.3752,5.3752,5.3541,5.308,5.2235,5.141,5.0643,5.0622,5.054,5.0438,4.9994,4.9127,4.7857,0.0,0.0,0.0,0.0,0.0,0.0,0.0,0.0,0.0,0.0,0.0,4.2646,4.2583,4.2414,4.2071,4.202,4.2245,4.2714,4.3109,4.2986,4.2197,4.2912,4.3567,4.3943,4.4001,4.4163,4.4492,4.4531,4.455,4.4562,4.4929,4.52,4.522,4.5529,4.58,4.5858,4.6187,4.6438,4.6457,4.7599,4.8488,4.901,4.9765,5.0422,5.0809,5.0906,5.0906,5.0906,5.0906,5.0906,5.0906,5.0906,5.0906,5.0906,5.0906,5.0906,5.0906,5.0906,5.0906,5.0906,5.0921,5.096,5.0999,5.1029,5.1053,5.1101,5.1095,5.1102,5.1163,5.1178,5.121,6.0486,6.0319,5.9722,5.9475,5.9457,5.9545,5.9581,5.9559,0.0,0.0,0.0,5.7805,5.7768,5.7672,5.7672,5.7766,5.7878,5.8066,5.8195,5.8214,5.84,5.8432,5.8234,5.7544,5.7123,5.6951,5.6132,5.5691,5.5691,5.5581,5.5159,5.4565,5.4526,5.4085,5.3261,5.2532,5.1708,5.0811,5.0657,5.0519,5.0412,5.039,4.9641,4.8067,4.7895,4.7073,4.5564,4.5373,4.5317,4.5398,4.5379,4.5112,4.4533,4.4493,4.4254,4.3704,4.3636,4.3664,4.3744,4.3736,4.3769,4.3826,4.4441,4.4518,4.3865,4.3826,4.4085,4.4757,4.4815,4.5092,4.5742,4.58,4.58,4.58,4.58,4.58,4.5819,4.5955,4.6071,4.6109,4.6806,4.7328,4.7386,4.8662,4.9707,4.9784,5.0345,5.0906,5.0906,5.0906,5.0906,5.0906,5.0906,5.0906,5.0906,5.0906,5.0906,5.0906,5.0906,5.0906,5.0906,5.0906,5.0906,5.0906,5.0906,5.0925,5.0983,5.0995,5.1005,5.1078,5.1073,5.1081,5.1102,5.1132,5.1186,6.093,6.0182,5.9514,5.9234,5.9272,5.942,5.9545,5.9597,5.9624,5.9279,5.8658,5.8639,5.8251,5.7635,5.7635,5.7606,5.7711,5.8482,5.8854,0.0,5.9701,5.9671,5.8964,5.885,5.841,5.7722,5.6939,5.6543,5.6466,5.5844,5.5446,5.5351,5.5331,5.4929,5.4181,5.4009,5.3161,5.1584,5.0818,5.0412,5.0393,5.0348,4.9862,4.8945,4.82,4.7341,4.6385,4.5679,4.5297,4.5317,4.5378,4.5361,4.5266,4.5303,4.5337,4.5343,4.5365,4.5398,4.5428,4.5438,4.5452,4.5465,4.5582,4.5582,4.5485,4.5446,4.5504,4.564,4.5601,4.5678,4.578,4.5819,4.5858,4.5838,4.5819,4.5819,4.5916,4.6515,4.6922,4.6941,4.7676,4.8217,4.8314,4.9107,4.9784,4.9842,5.0442,5.0906,5.0906,5.0906,5.0906,5.0906,5.0906,5.0906,5.0906,5.0906,5.0906,5.0906,5.0906,5.0906,5.0906,5.0906,5.0906,5.0906,5.0906,5.0906,5.0925,5.0925,5.0941,5.099,5.1005,5.102,5.1081,5.1108,5.114,6.1573,6.0733,6.0052,5.9493,5.9081,5.9253,5.942,5.9564,5.9599,5.9515,5.9238,5.9303,5.914,5.8874,5.8886,5.8916,5.8976,5.9405,5.9625,5.9644,6.0036,6.0046,5.9645,5.9254,5.8863,5.8443,5.7741,5.7366,5.727,5.6493,5.6097,5.6078,5.5676,5.5249,5.4886,5.4426,5.379,5.2957,5.1725,5.0849,5.0386,5.0278,4.9854,4.9071,4.8651,4.8041,4.7182,4.6822,4.6653,4.6653,4.6694,4.6506,4.6089,4.611,4.5994,4.5624,4.5624,4.5676,4.5731,4.5771,4.58,4.5819,4.6225,4.6515,4.6496,4.6071,4.58,4.58,4.58,4.58,4.5819,4.6225,4.6496,4.6496,4.6902,4.7192,4.7231,4.7521,4.7792,4.7889,4.8566,4.9088,4.9107,4.9842,5.0345,5.0384,5.0732,5.0906,5.0906,5.0906,5.0906,5.0906,5.0906,5.0906,5.0906,5.0906,5.0906,5.0906,5.0906,5.0906,5.0906,5.0906,5.0906,5.0906,5.0906,5.0906,5.0906,5.0906,5.0906,5.0921,5.0956,5.099,5.1039,5.1087,5.1095,6.2005,6.1204,6.0491,5.975,5.9022,5.9081,5.9253,5.9439,5.942,5.9474,5.9545,5.9688,5.9791,5.982,5.9866,5.9963,6.0045,6.0057,6.0057,6.0087,6.0099,6.0099,6.0042,5.9511,5.9254,5.9159,5.8491,5.8118,5.8023,5.724,5.6706,5.6496,5.5923,5.5523,5.5332,5.4645,5.4218,5.3918,5.2799,5.1658,5.0598,5.0493,5.0087,4.9325,4.9077,4.8658,4.801,4.7846,4.7777,4.7777,4.7777,4.7515,4.6948,4.6951,4.6704,4.6148,4.6126,4.6213,4.6291,4.6351,4.638,4.6399,4.6999,4.7386,4.7347,4.6786,4.638,4.638,4.6457,4.6438,4.6535,4.6999,4.7386,4.7444,4.7966,4.8295,4.8392,4.8566,4.8701,4.8778,4.9436,4.9977,5.0094,5.0519,5.0848,5.0867,5.0906,5.0906,5.0906,5.0906,5.0906,5.0906,5.0906,5.0906,5.0906,5.0906,5.0906,5.0906,5.0906,5.0906,5.0906,5.0906,5.0906,5.0906,5.0906,5.0906,5.0906,5.0906,5.0906,5.0906,5.0906,5.0906,5.0975,5.1024,5.1067,6.1949,6.1156,6.046,5.9707,5.9022,5.9042,5.91,5.9234,5.9215,5.9253,5.9346,5.9526,5.9616,5.965,5.965,5.9719,5.9824,5.9904,5.9931,5.9994,6.0087,6.0099,6.0068,6.0004,5.9985,5.987,5.9177,5.8815,5.8758,5.7939,5.7149,5.6492,5.634,5.5902,5.5236,5.5045,5.4664,5.3933,5.3762,5.2932,5.1402,5.1288,5.0869,5.0032,4.9308,4.889,4.8775,4.8105,4.7728,4.7709,4.7812,4.7821,4.7788,4.7853,4.7836,4.7761,4.7797,4.7921,4.8013,4.8121,4.8082,4.8159,4.8179,4.8275,4.8295,4.8217,4.8159,4.8135,4.814,4.8005,4.8155,4.8217,4.8275,4.8275,4.845,4.8411,4.8585,4.9107,4.9591,4.9591,5.0229,5.079,5.0732,5.0828,5.0906,5.0906,5.0906,5.0906,5.0906,5.0906,5.0906,5.0906,5.0906,5.0906,5.0906,5.0906,5.0906,5.0906,5.0906,5.0906,5.0906,5.0906,5.0906,5.0906,5.0906,5.0906,5.0906,5.0906,5.0906,5.0906,5.0906,5.0906,5.0906,5.0941,5.0971,6.2654,6.1837,6.1081,6.005,5.8996,5.8961,5.8982,5.9081,5.9081,5.912,5.9234,5.9309,5.9438,5.9545,5.9581,5.9616,5.9669,5.9719,5.9753,5.9786,5.9853,5.9937,5.9918,6.0013,6.0057,6.0038,5.9745,5.9623,5.9471,5.8786,5.7948,5.713,5.6654,5.6197,5.5855,5.536,5.4895,5.4553,5.4525,5.3898,5.275,5.2246,5.1673,5.0893,5.0475,5.0057,4.9581,4.9251,4.911,4.9115,4.9201,4.8995,4.8582,4.8654,4.8507,4.8067,4.8123,4.8243,4.8307,4.8357,4.8411,4.8411,4.8875,4.9165,4.9204,4.9591,4.9881,4.9784,4.8991,4.8411,4.8469,4.8856,4.9165,4.9223,4.9591,4.9861,4.99,5.019,5.0422,5.0442,5.0674,5.0906,5.0906,5.0906,5.0906,5.0906,5.0906,5.0906,5.0906,5.0906,5.0906,5.0906,5.0906,5.0906,5.0906,5.0906,5.0906,5.0906,5.0906,5.0906,5.0906,5.0906,5.0906,5.0906,5.0906,5.0906,5.0906,5.0906,5.0906,5.0906,5.0906,5.0906,5.0906,5.0906,5.0941,6.3137,6.232,6.1298,6.0208,5.9175,5.8952,5.8881,5.8964,5.8982,5.9061,5.9139,5.9139,5.9215,5.9365,5.9455,5.9545,5.9581,5.9581,5.9581,5.9616,5.9704,5.9776,5.9757,5.9853,5.9899,5.9899,5.9912,5.9944,5.9887,5.9393,5.8653,5.7837,5.7229,5.6831,5.6538,5.573,5.5293,5.5234,5.5023,5.4508,5.3841,5.3356,5.2618,5.167,5.1537,5.1139,5.0331,5.0328,5.0266,5.0095,5.0163,4.9945,4.9396,4.9455,4.9292,4.8816,4.8854,4.8957,4.9003,4.9038,4.9092,4.9126,4.9687,5.0035,5.0132,5.0558,5.0887,5.079,4.9784,4.9146,4.9169,4.9668,4.9997,5.0074,5.0596,5.0906,5.0867,5.0906,5.0887,5.0906,5.0867,5.0906,5.0906,5.0906,5.0906,5.0906,5.0906,5.0906,5.0906,5.0906,5.0906,5.0906,5.0906,5.0906,5.0906,5.0906,5.0906,5.0906,5.0906,5.0906,5.0906,5.0906,5.0906,5.0906,5.0906,5.0906,5.0906,5.0906,5.0906,5.0906,5.0906,5.0906,5.0906,5.0906,5.0906,6.3137,6.2209,6.0667,5.9998,5.9794,5.9069,5.8818,5.8899,5.8899,5.8942,5.9003,5.9003,5.9024,5.9081,5.9215,5.9383,5.9493,5.9493,5.9529,5.9562,5.9616,5.9616,5.9616,5.9616,5.9631,5.965,5.9685,5.9666,5.9613,5.9575,5.9144,5.8404,5.8235,5.7876,5.7102,5.629,5.5894,5.5818,5.5177,5.4723,5.4648,5.4591,5.3742,5.2402,5.2175,5.179,5.1055,5.1026,5.0749,5.005,5.0133,5.0155,5.0126,5.0233,5.0327,5.0394,5.0471,5.0563,5.0584,5.0607,5.0645,5.0716,5.0674,5.0809,5.0751,5.0848,5.0906,5.0906,5.0712,5.0616,5.0616,5.0616,5.0751,5.077,5.0848,5.0906,5.0906,5.0906,5.0906,5.0906,5.0906,5.0906,5.0906,5.0906,5.0906,5.0906,5.0906,5.0906,5.0906,5.0906,5.0906,5.0906,5.0906,5.0906,5.0906,5.0906,5.0906,5.0906,5.0906,5.0906,5.0906,5.0906,5.0906,5.0906,5.0906,5.0906,5.0906,5.0906,5.0906,5.0906,5.0906,5.0906,5.0906,5.0906,5.0906,6.3137,6.2357,6.1763,6.0908,5.9905,5.9608,5.9199,5.8777,5.8758,5.884,5.8921,5.8921,5.8942,5.8984,5.9063,5.9196,5.929,5.9309,5.9328,5.94,5.951,5.9529,5.9529,5.9599,5.9616,5.9616,5.9616,5.9616,5.9616,5.9616,5.9465,5.9144,5.8653,5.8238,5.7842,5.7073,5.6658,5.6564,5.5814,5.5386,5.531,5.4825,5.4171,5.3626,5.3176,5.2579,5.1798,5.13,5.0894,5.0643,5.0304,5.0114,5.0149,5.0371,5.0502,5.0586,5.0663,5.0738,5.0789,5.088,5.0897,5.0909,5.0906,5.0906,5.0906,5.0906,5.0906,5.0906,5.0906,5.0906,5.0906,5.0906,5.0906,5.0906,5.0906,5.0906,5.0906,5.0906,5.0906,5.0906,5.0906,5.0906,5.0906,5.0906,5.0906,5.0906,5.0906,5.0906,5.0906,5.0906,5.0906,5.0906,5.0906,5.0906,5.0906,5.0906,5.0906,5.0906,5.0906,5.0906,5.0906,5.0906,5.0906,5.0906,5.0906,5.0906,5.0906,5.0906,5.0906,5.0906,5.0906,5.0906,5.0906,5.0906,5.0906,6.3286,6.2803,6.2506,6.1781,6.0723,6.0425,6.0035,5.9534,5.9515,5.9576,5.9636,5.9659,5.97,5.9685,5.9685,5.9598,5.9454,5.925,5.9177,5.9215,5.9328,5.942,5.9401,5.9474,5.9491,5.9491,5.9491,5.9491,5.9491,5.9472,5.9491,5.9434,5.8926,5.8681,5.8549,5.7853,5.7438,5.7253,5.656,5.6018,5.5664,5.5103,5.4619,5.4337,5.3912,5.3333,5.2573,5.2013,5.1622,5.1347,5.073,5.0278,5.0182,5.0352,5.0523,5.0566,5.0664,5.0739,5.0793,5.0846,5.0861,5.089,5.0906,5.0906,5.0906,5.0906,5.0906,5.0906,5.0906,5.0906,5.0906,5.0906,5.0906,5.0906,5.0906,5.0906,5.0906,5.0906,5.0906,5.0906,5.0906,5.0906,5.0906,5.0906,5.0906,5.0906,5.0906,5.0906,5.0906,5.0906,5.0906,5.0906,5.0906,5.0906,5.0906,5.0906,5.0906,5.0906,5.0906,5.0906,5.0906,5.0906,5.0906,5.0906,5.0906,5.0906,5.0906,5.0906,5.0906,5.0906,5.0906,5.0906,5.0906,5.0906,5.0906,6.3602,6.3453,6.2766,6.2394,6.2097,6.1484,6.1187,6.102,6.1038,6.0927,6.0871,6.1057,6.0927,6.1057,6.0933,6.0734,6.0091,5.9542,5.9153,5.9042,5.9139,5.9215,5.9215,5.9272,5.9309,5.9309,5.929,5.929,5.9309,5.929,5.9309,5.929,5.9253,5.9159,5.9253,5.8483,5.8107,5.7957,5.73,5.6514,5.5673,5.5544,5.5151,5.4477,5.4327,5.4018,5.3325,5.3207,5.2843,5.2276,5.1528,5.0814,5.0392,5.0409,5.0481,5.0502,5.0643,5.074,5.0812,5.081,5.0844,5.089,5.0906,5.0906,5.0906,5.0906,5.0906,5.0906,5.0906,5.0906,5.0906,5.0906,5.0906,5.0906,5.0906,5.0906,5.0906,5.0906,5.0906,5.0906,5.0906,5.0906,5.0906,5.0906,5.0906,5.0906,5.0906,5.0906,5.0906,5.0906,5.0906,5.0906,5.0906,5.0906,5.0906,5.0906,5.0906,5.0906,5.0906,5.0906,5.0906,5.0906,5.0906,5.0906,5.0906,5.0906,5.0906,5.0906,5.0906,5.0906,5.0906,5.0906,5.0906,5.0906,5.0906,6.3602,6.3583,6.3342,6.2896,6.2413,6.2134,6.1744,6.1224,6.1206,6.1187,6.1187,6.1187,6.1187,6.1206,6.1187,6.1076,6.084,6.0566,5.998,5.9209,5.908,5.9098,5.9119,5.91,5.9101,5.9101,5.9101,5.9101,5.912,5.912,5.9101,5.912,5.9101,5.9101,5.9082,5.8858,5.8746,5.8614,5.7922,5.7361,5.7024,5.6519,5.5846,5.5099,5.5078,5.4793,5.4021,5.3555,5.3233,5.3029,5.2321,5.167,5.1078,5.0603,5.0432,5.05,5.0582,5.0702,5.0775,5.0829,5.0827,5.0874,5.0906,5.0906,5.0906,5.0906,5.0906,5.0906,5.0906,5.0906,5.0906,5.0906,5.0906,5.0906,5.0906,5.0906,5.0906,5.0906,5.0906,5.0906,5.0906,5.0906,5.0906,5.0906,5.0906,5.0906,5.0906,5.0906,5.0906,5.0906,5.0906,5.0906,5.0906,5.0906,5.0906,5.0906,5.0906,5.0906,5.0906,5.0906,5.0906,5.0906,5.0906,5.0906,5.0906,5.0906,5.0906,5.0906,5.0906,5.0906,5.0906,5.0906,5.0906,5.0906,5.0906,6.3602,6.3602,6.3602,6.3342,6.2859,6.2859,6.258,6.2134,6.2097,6.2097,6.2097,6.2116,6.2097,6.2097,6.2097,6.193,6.167,6.1651,6.0994,5.9965,5.9838,5.9838,5.986,5.9937,5.9713,5.9489,5.947,5.9302,5.9003,5.8984,5.8984,5.8984,5.8984,5.8984,5.8984,5.8984,5.8984,5.891,5.8499,5.8068,5.7713,5.7208,5.6536,5.5828,5.551,5.5191,5.472,5.4056,5.372,5.3679,5.3142,5.2504,5.1877,5.1204,5.0845,5.0897,5.0734,5.0663,5.0758,5.0775,5.0827,5.0877,5.0909,5.0906,5.0906,5.0906,5.0906,5.0906,5.0906,5.0906,5.0906,5.0906,5.0906,5.0906,5.0906,5.0906,5.0906,5.0906,5.0906,5.0906,5.0906,5.0906,5.0906,5.0906,5.0906,5.0906,5.0906,5.0906,5.0906,5.0906,5.0906,5.0906,5.0906,5.0906,5.0906,5.0906,5.0906,5.0906,5.0906,5.0906,5.0906,5.0906,5.0906,5.0906,5.0906,5.0906,5.0906,5.0906,5.0906,5.0906,5.0906,5.0906,5.0906,5.0906,5.0906,6.3602,6.3602,6.3602,6.3583,6.3546,6.3546,6.3472,6.3527,6.3509,6.3453,6.3472,6.3379,6.3453,6.3527,6.3342,6.3026,6.258,6.2469,6.2116,6.1528,6.1366,6.1316,6.1079,6.1106,6.083,6.0382,6.0326,5.9934,5.9412,5.9225,5.9059,5.9132,5.9038,5.8984,5.8945,5.8984,5.8964,5.8945,5.8908,5.8476,5.78,5.7667,5.7297,5.6515,5.5863,5.5567,5.5434,5.4849,5.4412,5.4392,5.3823,5.3205,5.2677,5.2043,5.1658,5.1729,5.1075,5.0854,5.0818,5.0815,5.0827,5.0899,5.0893,5.0906,5.0906,5.0906,5.0906,5.0906,5.0906,5.0906,5.0906,5.0906,5.0906,5.0906,5.0906,5.0906,5.0906,5.0906,5.0906,5.0906,5.0906,5.0906,5.0906,5.0906,5.0906,5.0906,5.0906,5.0906,5.0906,5.0906,5.0906,5.0906,5.0906,5.0906,5.0906,5.0906,5.0906,5.0906,5.0906,5.0906,5.0906,5.0906,5.0906,5.0906,5.0906,5.0906,5.0906,5.0906,5.0906,5.0906,5.0906,5.0906,5.0906,5.0906,5.0906,6.3602,6.3602,6.3602,6.3602,6.3602,6.3602,6.3602,6.3602,6.3602,6.3602,6.3602,6.3602,6.3602,6.3602,6.3602,6.3472,6.3286,6.3249,6.323,6.3007,6.297,6.2253,6.1453,6.1292,6.1199,6.0976,6.0999,6.0845,6.0585,5.9952,5.9692,5.9636,5.9138,5.8818,5.8781,5.8799,5.8781,5.8781,5.8762,5.8688,5.8442,5.8368,5.8014,5.7289,5.7016,5.6666,5.6314,5.5655,5.5025,5.4622,5.3905,5.3556,5.3487,5.2806,5.2444,5.2494,5.1916,5.1506,5.151,5.1123,5.0868,5.0899,5.0913,5.0906,5.0906,5.0906,5.0906,5.0906,5.0906,5.0906,5.0906,5.0906,5.0906,5.0906,5.0906,5.0906,5.0906,5.0906,5.0906,5.0906,5.0906,5.0906,5.0906,5.0906,5.0906,5.0906,5.0906,5.0906,5.0906,5.0906,5.0906,5.0906,5.0906,5.0906,5.0906,5.0906,5.0906,5.0906,5.0906,5.0906,5.0906,5.0906,5.0906,5.0906,5.0906,5.0906,5.0906,5.0906,5.0906,5.0906,5.0906,5.0906,5.0906,5.0906,5.0906,6.3602,6.3602,6.3602,6.3602,6.3602,6.3602,6.3602,6.3602,6.3602,6.3602,6.3602,6.3602,6.3602,6.3602,6.3602,6.3602,6.3602,6.3602,6.3583,6.3602,6.3546,6.3044,6.2394,6.2209,6.2041,6.1707,6.1707,6.1503,6.1168,6.0667,6.0481,6.0314,5.9627,5.9237,5.9218,5.8846,5.8698,5.8698,5.8698,5.8698,5.8698,5.8698,5.8494,5.7973,5.7776,5.726,5.6612,5.5955,5.5303,5.4735,5.4264,5.4103,5.4305,5.3609,5.3277,5.3494,5.2717,5.2329,5.2318,5.1779,5.1389,5.1324,5.1164,5.0909,5.0906,5.0906,5.0906,5.0906,5.0906,5.0906,5.0906,5.0906,5.0906,5.0906,5.0906,5.0906,5.0906,5.0906,5.0906,5.0906,5.0906,5.0906,5.0906,5.0906,5.0906,5.0906,5.0906,5.0906,5.0906,5.0906,5.0906,5.0906,5.0906,5.0906,5.0906,5.0906,5.0906,5.0906,5.0906,5.0906,5.0906,5.0906,5.0906,5.0906,5.0906,5.0906,5.0906,5.0906,5.0906,5.0906,5.0906,5.0906,5.0906,5.0906,5.0906,6.3602,6.3602,6.3602,6.3602,6.3602,6.3602,6.3602,6.3602,6.3602,6.3602,6.3602,6.3602,6.3602,6.3602,6.3602,6.3602,6.3602,6.3602,6.3602,6.3602,6.3602,6.3453,6.3379,6.3286,6.3026,6.2617,6.2524,6.219,6.1781,6.1484,6.1336,6.1131,6.0463,5.998,5.972,5.9199,5.8828,5.8716,5.8698,5.8698,5.8698,5.8698,5.8624,5.8531,5.8107,5.7481,5.6874,5.6254,5.5717,5.5012,5.4805,5.4784,5.4886,5.4351,5.4211,5.4192,5.3637,5.319,5.3203,5.2666,5.2238,5.2155,5.1628,5.1099,5.1177,5.1196,5.1119,5.0925,5.0906,5.0906,5.0906,5.0906,5.0906,5.0906,5.0906,5.0906,5.0906,5.0906,5.0906,5.0906,5.0906,5.0906,5.0906,5.0906,5.0906,5.0906,5.0906,5.0906,5.0906,5.0906,5.0906,5.0906,5.0906,5.0906,5.0906,5.0906,5.0906,5.0906,5.0906,5.0906,5.0906,5.0906,5.0906,5.0906,5.0906,5.0906,5.0906,5.0906,5.0906,5.0906,5.0906,5.0906,5.0906,5.0906,5.0906,6.3602,6.3602,6.3602,6.3602,6.3602,6.3602,6.3602,6.3602,6.3602,6.3602,6.3602,6.3602,6.3602,6.3602,6.3602,6.3602,6.3602,6.3602,6.3602,6.3602,6.3602,6.3602,6.3602,6.3602,6.3509,6.3305,6.3323,6.3212,6.2933,6.2394,6.2153,6.2041,6.1336,6.0593,6.0035,5.985,5.9292,5.8846,5.8735,5.8754,5.8698,5.8698,5.8698,5.8679,5.8613,5.821,5.7714,5.7454,5.7131,5.6455,5.5516,5.5,5.5114,5.4941,5.4897,5.4924,5.4479,5.4073,5.4049,5.3533,5.3031,5.3044,5.2846,5.2627,5.195,5.1912,5.1602,5.1138,5.0906,5.108,5.1003,5.0945,5.0906,5.0906,5.0906,5.0906,5.0906,5.0906,5.0906,5.0906,5.0906,5.0906,5.0906,5.0906,5.0906,5.0906,5.0906,5.0906,5.0906,5.0906,5.0906,5.0906,5.0906,5.0906,5.0906,5.0906,5.0906,5.0906,5.0906,5.0906,5.0906,5.0906,5.0906,5.0906,5.0906,5.0906,5.0906,5.0906,5.0906,5.0906,5.0906,5.0906,5.0906,5.0906,5.0906,6.3602,6.3602,6.3602,6.3602,6.3602,6.3602,6.3602,6.3602,6.3602,6.3602,6.3602,6.3602,6.3602,6.3602,6.3602,6.3602,6.3602,6.3602,6.3602,6.3602,6.3602,6.3602,6.3602,6.3602,6.3602,6.3602,6.3602,6.3602,6.3453,6.3212,6.297,6.2896,6.2171,6.1633,6.1038,6.0685,6.0091,5.9459,5.9255,5.9125,5.8772,5.8698,5.8698,5.8716,5.8799,5.8679,5.8405,5.7997,5.7808,5.7366,5.6503,5.5756,5.5608,5.5341,5.5267,5.5356,5.5174,5.4917,5.4857,5.44,5.3918,5.3894,5.3713,5.3304,5.2917,5.2801,5.2627,5.224,5.2105,5.2028,5.1544,5.1041,5.0964,5.0906,5.0925,5.0925,5.0925,5.0906,5.0906,5.0906,5.0906,5.0906,5.0906,5.0906,5.0906,5.0906,5.0906,5.0906,5.0906,5.0906,5.0906,5.0906,5.0906,5.0906,5.0906,5.0906,5.0906,5.0906,5.0906,5.0906,5.0906,5.0906,5.0906,5.0906,5.0906,5.0906,5.0906,5.0906,5.0906,5.0906,5.0906,5.0906,5.0906,5.0906,5.0906,6.3602,6.3602,6.3602,6.3602,6.3602,6.3602,6.3602,6.3602,6.3602,6.3602,6.3602,6.3602,6.3602,6.3602,6.3602,6.3602,6.3602,6.3602,6.3602,6.3602,6.3602,6.3602,6.3602,6.3602,6.3602,6.3602,6.3602,6.3602,6.3602,6.3602,6.3453,6.3435,6.297,6.2413,6.219,6.1744,6.0964,6.0221,5.9868,5.9589,5.9014,5.8828,5.8698,5.8698,5.8799,5.8902,5.8779,5.8445,5.8203,5.8328,5.768,5.7156,5.6633,5.5864,5.542,5.5691,5.5562,5.5439,5.5453,5.5112,5.4785,5.4779,5.4332,5.3884,5.3768,5.3672,5.3498,5.3401,5.3207,5.3014,5.2434,5.197,5.1525,5.1389,5.1273,5.1099,5.108,5.1022,5.0906,5.0906,5.0906,5.0906,5.0906,5.0906,5.0906,5.0906,5.0906,5.0906,5.0906,5.0906,5.0906,5.0906,5.0906,5.0906,5.0906,5.0906,5.0906,5.0906,5.0906,5.0906,5.0906,5.0906,5.0906,5.0906,5.0906,5.0906,5.0906,5.0906,5.0906,5.0906,5.0906,5.0906,5.0906,5.0906,5.1022,6.3602,6.3602,6.3602,6.3602,6.3602,6.3602,6.3602,6.3602,6.3602,6.3602,6.3602,6.3602,6.3602,6.3602,6.3602,6.3602,6.3602,6.3602,6.3602,6.3602,6.3602,6.3602,6.3602,6.3602,6.3602,6.3602,6.3602,6.3602,6.3602,6.3602,6.3602,6.3565,6.3435,6.3082,6.2599,6.2209,6.1819,6.1001,6.0481,6.0035,5.9682,5.9144,5.8754,5.8735,5.8758,5.8821,5.8945,5.8912,5.8952,5.9174,5.8565,5.8278,5.797,5.6968,5.6469,5.637,5.5969,5.5727,5.578,5.5652,5.5615,5.5669,5.5474,5.5127,5.4757,5.4561,5.4329,5.3846,5.3652,5.3459,5.3323,5.2937,5.3014,5.2859,5.2395,5.1989,5.1854,5.1544,5.1196,5.1293,5.1138,5.0906,5.0906,5.0906,5.0906,5.0906,5.0906,5.0906,5.0906,5.0906,5.0906,5.0906,5.0906,5.0906,5.0906,5.0906,5.0906,5.0906,5.0906,5.0906,5.0906,5.0906,5.0906,5.0906,5.0906,5.0906,5.0906,5.0906,5.0906,5.0906,5.0906,5.0925,5.1119,5.1293,5.1583,6.3602,6.3602,6.3602,6.3602,6.3602,6.3602,6.3602,6.3602,6.3602,6.3602,6.3602,6.3602,6.3602,6.3602,6.3602,6.3602,6.3602,6.3602,6.3602,6.3602,6.3602,6.3602,6.3602,6.3602,6.3602,6.3602,6.3602,6.3602,6.3602,6.3602,6.3602,6.3602,6.3602,6.3397,6.3119,6.3026,6.2562,6.1856,6.1373,6.0945,6.0537,5.9757,5.9218,5.8791,5.8716,5.8821,5.8964,5.8984,5.9101,5.9271,5.9168,5.9118,5.8849,5.8365,5.7586,5.7341,5.6673,5.6207,5.6203,5.6076,5.5789,5.5883,5.598,5.5843,5.555,5.5374,5.5142,5.4832,5.4291,5.4175,5.4175,5.3826,5.3536,5.344,5.3111,5.2937,5.2782,5.2453,5.2221,5.1931,5.1467,5.1177,5.0906,5.0906,5.0906,5.0906,5.0945,5.0925,5.0945,5.0906,5.0906,5.0906,5.0906,5.0906,5.0906,5.0906,5.0906,5.0906,5.0906,5.0906,5.0964,5.1003,5.0964,5.0906,5.0906,5.1215,5.0925,5.0925,5.0925,5.0964,5.1061,5.1196,5.1467,5.1738,5.2086,6.3602,6.3602,6.3602,6.3602,6.3602,6.3602,6.3602,6.3602,6.3602,6.3602,6.3602,6.3602,6.3602,6.3602,6.3602,6.3602,6.3602,6.3602,6.3602,6.3602,6.3602,6.3602,6.3602,6.3602,6.3602,6.3602,6.3602,6.3602,6.3602,6.3602,6.3602,6.3602,6.3602,6.3602,6.3546,6.3472,6.3119,6.284,6.2432,6.2004,6.1224,6.0518,5.9775,5.9032,5.8939,5.9004,5.9003,5.8984,5.9101,5.929,5.9434,5.9594,5.962,5.9317,5.893,5.841,5.7577,5.7205,5.7011,5.6785,5.6501,5.6367,5.6251,5.6172,5.5975,5.5877,5.5896,5.5877,5.549,5.5026,5.4967,5.4465,5.4175,5.4058,5.3981,5.373,5.3672,5.3459,5.3188,5.2705,5.197,5.1776,5.1854,5.1776,5.195,5.1486,5.1486,5.108,5.1061,5.0925,5.0906,5.0906,5.0906,5.0906,5.0906,5.0906,5.0906,5.0906,5.0906,5.0906,5.1022,5.1119,5.1177,5.1389,5.1757,5.197,5.1467,5.1119,5.1351,5.1467,5.1389,5.166,5.2221,5.2569,5.284,6.3602,6.3602,6.3602,6.3602,6.3602,6.3602,6.3602,6.3602,6.3602,6.3602,6.3602,6.3602,6.3602,6.3602,6.3602,6.3602,6.3602,6.3602,6.3602,6.3602,6.3602,6.3602,6.3602,6.3602,6.3602,6.3602,6.3602,6.3602,6.3602,6.3602,6.3602,6.3602,6.3602,6.3602,6.3602,6.3602,6.3565,6.3342,6.2784,6.2079,6.141,6.1113,6.0593,6.0017,5.972,5.9525,5.9206,5.9134,5.9213,5.929,5.9491,5.9631,5.9715,5.9887,6.0015,5.9626,5.8865,5.7992,5.8008,5.7802,5.7499,5.712,5.7024,5.6637,5.6344,5.6147,5.6128,5.6012,5.5838,5.576,5.5722,5.5683,5.5664,5.5335,5.4929,5.4716,5.4581,5.4387,5.4136,5.3981,5.3382,5.3304,5.3323,5.3169,5.2995,5.2453,5.195,5.1602,5.1409,5.1467,5.1447,5.1583,5.1621,5.1621,5.166,5.1563,5.1467,5.1312,5.1312,5.1293,5.1544,5.1854,5.197,5.2221,5.2589,5.2531,5.1931,5.1738,5.195,5.2124,5.2263,5.2705,5.3246,5.3498,5.3633,6.3602,6.3602,6.3602,6.3602,6.3602,6.3602,6.3602,6.3602,6.3602,6.3602,6.3602,6.3602,6.3602,6.3602,6.3602,6.3602,6.3602,6.3602,6.3602,6.3602,6.3602,6.3602,6.3602,6.3602,6.3602,6.3602,6.3602,6.3602,6.3602,6.3602,6.3602,6.3602,6.3602,6.3602,6.3602,6.3602,6.3602,6.349,6.323,6.2692,6.2097,6.1819,6.1503,6.0723,6.0648,6.0273,5.986,5.9657,5.9513,5.9459,5.9491,5.9597,5.9681,5.9912,6.0148,6.0121,5.986,5.9344,5.8875,5.8543,5.8231,5.8026,5.7795,5.7526,5.6943,5.6728,5.6476,5.6031,5.6012,5.6031,5.6051,5.6012,5.6012,5.5857,5.5606,5.5528,5.5354,5.5258,5.5064,5.4967,5.4851,5.4658,5.4387,5.3962,5.3652,5.3227,5.2898,5.2724,5.2627,5.2685,5.2647,5.2569,5.2589,5.2589,5.2666,5.2666,5.2647,5.255,5.255,5.255,5.2569,5.2743,5.2879,5.2937,5.3149,5.2898,5.2395,5.2531,5.2879,5.3056,5.323,5.3691,5.4097,5.4233,5.4484,6.3602,6.3602,6.3602,6.3602,6.3602,6.3602,6.3602,6.3602,6.3602,6.3602,6.3602,6.3602,6.3602,6.3602,6.3602,6.3602,6.3602,6.3602,6.3602,6.3602,6.3602,6.3602,6.3602,6.3602,6.3602,6.3602,6.3602,6.3602,6.3602,6.3602,6.3602,6.3602,6.3602,6.3602,6.3602,6.3602,6.3602,6.3583,6.3565,6.323,6.2803,6.271,6.2246,6.1763,6.141,6.1162,6.0644,6.0516,6.0262,5.9853,5.9886,5.9955,5.9741,5.9912,6.0068,6.0159,6.0196,6.0156,5.9714,5.9326,5.8921,5.8697,5.8452,5.8105,5.7773,5.7617,5.7482,5.6902,5.6495,5.6437,5.6302,5.6205,5.6012,5.6012,5.5935,5.5993,5.5973,5.5722,5.5606,5.5528,5.549,5.5664,5.5296,5.4697,5.4271,5.3942,5.3788,5.373,5.3652,5.3614,5.344,5.3246,5.3207,5.3188,5.3246,5.3382,5.3498,5.3633,5.3652,5.3517,5.3343,5.3556,5.3788,5.3826,5.3865,5.4097,5.4116,5.3981,5.3846,5.3984,5.4177,5.4561,5.4871,5.4987,5.5142,6.3602,6.3602,6.3602,6.3602,6.3602,6.3602,6.3602,6.3602,6.3602,6.3602,6.3602,6.3602,6.3602,6.3602,6.3602,6.3602,6.3602,6.3602,6.3602,6.3602,6.3602,6.3602,6.3602,6.3602,6.3602,6.3602,6.3602,6.3602,6.3602,6.3602,6.3602,6.3602,6.3602,6.3602,6.3602,6.3602,6.3602,6.3602,6.3602,6.3602,6.3435,6.3342,6.3044,6.2506,6.2264,6.2036,6.1469,6.1394,6.1101,6.0567,6.0677,6.0408,6.0044,6.0159,6.0297,6.0197,6.0417,6.0456,6.0265,6.0248,6.015,5.9565,5.9068,5.8742,5.8546,5.8507,5.841,5.8139,5.7501,5.725,5.6979,5.6592,5.6302,5.6205,5.6205,5.6012,5.6012,5.5993,5.5896,5.5973,5.6012,5.6012,5.5993,5.5335,5.5064,5.4735,5.4658,5.46,5.4213,5.4097,5.3904,5.3749,5.3691,5.3652,5.3614,5.3807,5.4194,5.4271,5.4252,5.402,5.3768,5.4116,5.4677,5.4793,5.489,5.5374,5.5644,5.5084,5.4755,5.4912,5.5105,5.5296,5.5432,5.5528,5.5644,6.3602,6.3602,6.3602,6.3602,6.3602,6.3602,6.3602,6.3602,6.3602,6.3602,6.3602,6.3602,6.3602,6.3602,6.3602,6.3602,6.3602,6.3602,6.3602,6.3602,6.3602,6.3602,6.3602,6.3602,6.3602,6.3602,6.3602,6.3602,6.3602,6.3602,6.3602,6.3602,6.3602,6.3602,6.3602,6.3602,6.3602,6.3602,6.3602,6.3602,6.3602,6.3602,6.3453,6.3212,6.3137,6.2824,6.2342,6.2253,6.1871,6.1562,6.1544,6.1089,6.061,6.0747,6.0658,6.0338,6.057,6.064,6.0687,6.0767,6.0654,6.0588,6.017,5.9824,5.9455,5.9397,5.9048,5.8681,5.8372,5.812,5.7985,5.7366,5.6844,5.6689,5.6495,5.6283,5.6128,5.6186,5.6031,5.6051,5.6031,5.6012,5.6012,5.5935,5.576,5.5586,5.5528,5.5393,5.4987,5.4755,5.4639,5.46,5.4581,5.4677,5.4677,5.4832,5.4987,5.4909,5.4851,5.4735,5.4619,5.5084,5.5548,5.5683,5.5664,5.578,5.5799,5.5683,5.5586,5.5492,5.5608,5.5818,5.5954,5.6012,5.6089,6.3602,6.3602,6.3602,6.3602,6.3602,6.3602,6.3602,6.3602,6.3602,6.3602,6.3602,6.3602,6.3602,6.3602,6.3602,6.3602,6.3602,6.3602,6.3602,6.3602,6.3602,6.3602,6.3602,6.3602,6.3602,6.3602,6.3602,6.3602,6.3602,6.3602,6.3602,6.3602,6.3602,6.3602,6.3602,6.3602,6.3602,6.3602,6.3602,6.3602,6.3602,6.3602,6.3602,6.3546,6.3527,6.3438,6.3121,6.3038,6.2769,6.2463,6.2278,6.2012,6.1681,6.1454,6.1381,6.1103,6.0876,6.0947,6.0975,6.0825,6.0885,6.0841,6.0883,6.0596,6.0403,6.0248,5.9977,5.959,5.9242,5.8971,5.8932,5.8236,5.7753,5.7598,5.7443,5.7211,5.6747,5.6611,5.6302,5.6089,5.6051,5.6012,5.6012,5.6012,5.5954,5.5838,5.5799,5.5741,5.5664,5.5528,5.5606,5.5606,5.5625,5.578,5.5935,5.5683,5.5451,5.5509,5.549,5.5644,5.5722,5.6012,5.6012,5.5896,5.5877,5.5973,5.5935,5.5838,5.5877,5.5954,5.6012,5.6012,5.6012,5.6031,5.6302,6.3602,6.3602,6.3602,6.3602,6.3602,6.3602,6.3602,6.3602,6.3602,6.3602,6.3602,6.3602,6.3602,6.3602,6.3602,6.3602,6.3602,6.3602,6.3602,6.3602,6.3602,6.3602,6.3602,6.3602,6.3602,6.3602,6.3602,6.3602,6.3602,6.3602,6.3602,6.3602,6.3602,6.3602,6.3602,6.3602,6.3602,6.3602,6.3602,6.3602,6.3602,6.3602,6.3602,6.3602,6.3602,6.3543,6.3624,6.3654,6.3364,6.3177,6.3201,6.2879,6.2236,6.2416,6.2427,6.2287,6.1946,6.18,6.1716,6.1151,6.1,6.1015,6.1018,6.0943,6.1002,6.0983,6.0886,6.0383,6.019,5.9899,5.9571,5.9145,5.8758,5.8488,5.8314,5.7946,5.7501,5.7269,5.7018,5.6786,5.6341,5.6031,5.6012,5.6012,5.6012,5.5973,5.5993,5.6012,5.6012,5.6012,5.6012,5.6012,5.6012,5.6012,5.6012,5.6012,5.5935,5.6012,5.6012,5.6012,5.6012,5.6012,5.6012,5.6012,5.6012,5.6012,5.6012,5.5993,5.6128,5.6244,5.6051,5.6012,5.6012,5.6225,5.6611,6.3602,6.3602,6.3602,6.3602,6.3602,6.3602,6.3602,6.3602,6.3602,6.3602,6.3602,6.3602,6.3602,6.3602,6.3602,6.3602,6.3602,6.3602,6.3602,6.3602,6.3602,6.3602,6.3602,6.3602,6.3602,6.3602,6.3602,6.362,6.3602,6.3695,6.3639,6.3602,6.3769,6.3602,6.3602,6.3602,6.3602,6.3602,6.3602,6.3602,6.3602,6.3602,6.3602,6.3602,6.3602,6.3673,6.3854,6.3915,6.3813,6.3815,6.3935,6.3672,6.3122,6.3232,6.3188,6.2909,6.2489,6.2421,6.2158,6.1728,6.1424,6.1224,6.1017,6.1039,6.1099,6.1099,6.1099,6.1079,6.0809,6.0596,6.0557,5.9919,5.9493,5.93,5.9048,5.8565,5.8197,5.8159,5.8023,5.7791,5.7424,5.667,5.636,5.6321,5.6302,5.6128,5.6109,5.6031,5.6012,5.6012,5.6012,5.6012,5.6012,5.6012,5.6012,5.6012,5.6012,5.6012,5.6012,5.6012,5.6012,5.6012,5.6012,5.6012,5.6012,5.6012,5.6186,5.6341,5.6476,5.6515,5.6534,5.6631,5.6844,5.7037,5.7288,6.3602,6.3602,6.3602,6.3602,6.3602,6.3602,6.3602,6.3602,6.3602,6.3602,6.3602,6.3602,6.3602,6.3602,6.3602,6.3602,6.3602,6.3602,6.3602,6.3602,6.3602,6.3602,6.3602,6.3602,6.3602,6.362,6.3657,6.3695,6.4103,6.4048,6.427,6.4475,6.4178,6.414,6.4029,6.388,6.3602,6.3602,6.3602,6.3602,6.3602,6.3602,6.3602,6.3602,6.3602,6.3691,6.383,6.3958,6.4,6.4284,6.4349,6.4332,6.399,6.3975,6.4006,6.3708,6.3397,6.3242,6.2727,6.2531,6.2155,6.1593,6.1248,6.1039,6.1099,6.1099,6.1099,6.1099,6.1099,6.1099,6.0963,6.0344,6.0248,6.0054,5.9899,5.9435,5.9068,5.9048,5.8816,5.8604,5.8255,5.7482,5.6902,5.6689,5.665,5.6418,5.6205,5.6167,5.6109,5.6031,5.6012,5.6012,5.6012,5.6012,5.6012,5.6012,5.6012,5.6012,5.607,5.6128,5.6012,5.6012,5.6012,5.6031,5.6089,5.6205,5.6534,5.6766,5.7211,5.7404,5.7424,5.754,5.7714,5.7888,5.8043,6.3602,6.3602,6.3602,6.3602,6.3602,6.3602,6.3602,6.3602,6.3602,6.3602,6.3602,6.3602,6.3602,6.3602,6.3602,6.3602,6.3602,6.3602,6.3602,6.3602,6.3602,6.3602,6.3602,6.3602,6.3602,6.362,6.3788,6.4178,6.4735,6.4865,6.5255,6.5571,6.5125,6.4828,6.4512,6.4178,6.3788,6.3676,6.3602,6.3602,6.3602,6.3602,6.3602,6.3602,6.3602,6.3717,6.383,6.3915,6.4061,6.4265,6.4463,6.4539,6.467,6.4993,6.5095,6.501,6.4642,6.4055,6.3514,6.3353,6.2945,6.2326,6.1576,6.1252,6.108,6.1099,6.1099,6.1099,6.1099,6.1099,6.1002,6.0963,6.0925,6.0886,6.0886,6.0499,6.0054,5.9783,5.9513,5.9223,5.8894,5.8391,5.8043,5.7753,5.7346,5.725,5.7076,5.6882,5.6708,5.607,5.6051,5.6012,5.6012,5.6012,5.6012,5.607,5.6012,5.6012,5.6302,5.6379,5.6205,5.6341,5.6728,5.6805,5.6379,5.6495,5.7172,5.7753,5.8312,5.8391,5.841,5.8468,5.8642,5.8662,5.8855,6.3602,6.3602,6.3602,6.3602,6.3602,6.3602,6.3602,6.3602,6.3602,6.3602,6.3602,6.3602,6.3602,6.3602,6.3602,6.3602,6.3602,6.3602,6.3602,6.3602,6.3602,6.3602,6.3602,6.3602,6.3602,6.3788,6.4085,6.4493,6.4939,6.5311,6.5812,6.5942,6.5905,6.5478,6.5032,6.4586,6.414,6.3788,6.3676,6.3602,6.3602,6.3602,6.3602,6.3602,6.3602,6.3717,6.383,6.3915,6.4061,6.4284,6.4481,6.4596,6.4634,6.4958,6.5213,6.5448,6.5245,6.4945,6.4379,6.4218,6.3907,6.3171,6.2406,6.1619,6.1312,6.1137,6.1137,6.1099,6.1099,6.1099,6.1099,6.1099,6.1099,6.1099,6.1099,6.0905,6.0538,6.046,6.0209,6.0093,5.9745,5.9339,5.901,5.8584,5.8217,5.8159,5.8004,5.7714,5.7404,5.6805,5.6495,5.6495,5.6457,5.6573,5.6263,5.6225,5.6089,5.6051,5.6534,5.696,5.7056,5.7269,5.7656,5.7714,5.7501,5.7695,5.812,5.8681,5.9202,5.9416,5.9455,5.9493,5.9513,5.9532,5.9648,6.284,6.3119,6.3137,6.3305,6.3583,6.3602,6.3602,6.3602,6.3602,6.3602,6.3602,6.3602,6.3602,6.3602,6.3602,6.3602,6.3602,6.3602,6.3602,6.3602,6.3602,6.3602,6.3602,6.3602,6.3602,6.3825,6.414,6.4568,6.5348,6.6462,6.7112,6.7112,6.6834,6.6314,6.5812,6.5199,6.4568,6.414,6.3843,6.3657,6.3602,6.3602,6.3602,6.3602,6.3602,6.3717,6.3873,6.3915,6.4061,6.4284,6.4463,6.4596,6.4671,6.4977,6.5334,6.5528,6.5542,6.5413,6.5135,6.5128,6.4701,6.4116,6.3486,6.2739,6.1872,6.1389,6.1234,6.1099,6.1099,6.1099,6.1099,6.1099,6.1099,6.1099,6.1099,6.1099,6.106,6.106,6.1002,6.0944,6.0634,6.0209,5.9803,5.9377,5.9068,5.8971,5.87,5.8314,5.8101,5.7791,5.754,5.7501,5.7366,5.7308,5.696,5.6805,5.696,5.7134,5.7501,5.7849,5.7946,5.8043,5.8275,5.8565,5.8778,5.8952,5.9106,5.9532,5.9977,6.0151,6.0286,6.0306,6.0306,6.0364,6.0557,6.1651,6.232,6.232,6.2766,6.3453,6.3472,6.3509,6.3602,6.3602,6.3602,6.3602,6.3602,6.3602,6.3602,6.3602,6.3602,6.3602,6.3602,6.3602,6.3602,6.3602,6.3602,6.3602,6.3602,6.3602,6.362,6.4029,6.4883,6.6258,6.7205,6.7837,6.8413,6.7781,6.7205,6.6778,6.5924,6.5218,6.4568,6.414,6.3843,6.3657,6.3602,6.3602,6.3602,6.3602,6.3691,6.383,6.3958,6.4019,6.4265,6.4481,6.4596,6.4836,6.5012,6.5302,6.5509,6.56,6.5663,6.5654,6.5667,6.5433,6.508,6.4798,6.3936,6.3032,6.1911,6.1582,6.1157,6.1099,6.1099,6.1099,6.1099,6.1099,6.1099,6.1099,6.1099,6.1099,6.1099,6.1079,6.106,6.0963,6.0615,6.0557,6.0151,5.9957,5.9822,5.9629,5.9184,5.899,5.8836,5.8507,5.841,5.8101,5.7965,5.8004,5.7927,5.8178,5.841,5.8565,5.8681,5.8758,5.8797,5.8816,5.93,5.9783,5.9861,6.0054,6.0344,6.0557,6.0731,6.0847,6.1002,6.1041,6.0944,6.0963,6.1298,6.1484,6.1503,6.1967,6.2636,6.2692,6.3063,6.3583,6.3602,6.3602,6.3602,6.3602,6.3602,6.3602,6.3602,6.3602,6.3602,6.3602,6.3602,6.3602,6.3602,6.3602,6.3602,6.3602,6.3602,6.3825,6.4345,6.5218,6.6462,6.7335,6.7948,6.8394,6.8116,6.793,6.7447,6.6592,6.6054,6.5199,6.4623,6.414,6.3788,6.3657,6.3602,6.3602,6.3602,6.3736,6.383,6.3915,6.4061,6.4265,6.4481,6.4764,6.5046,6.5147,6.5334,6.5547,6.5619,6.5701,6.5808,6.5878,6.5741,6.5562,6.5222,6.4827,6.4037,6.2801,6.193,6.1447,6.1099,6.1099,6.1099,6.1099,6.1099,6.1099,6.1099,6.1099,6.1099,6.1099,6.1099,6.1099,6.1099,6.1079,6.106,6.0983,6.0867,6.077,6.075,6.0538,6.0402,6.019,5.9416,5.9165,5.8681,5.8546,5.8778,5.8952,5.9145,5.9223,5.93,5.9416,5.9551,5.9745,5.9919,6.0364,6.075,6.0634,6.0596,6.0809,6.1021,6.1099,6.1099,6.1099,6.1099,6.1041,6.106,6.0314,6.0667,6.1057,6.1466,6.1874,6.2246,6.2673,6.3082,6.3435,6.3602,6.3602,6.3602,6.3602,6.3602,6.3602,6.3602,6.3602,6.3602,6.3602,6.3602,6.3602,6.3602,6.3602,6.3602,6.3602,6.3825,6.4456,6.5366,6.6295,6.7131,6.7651,6.8004,6.8153,6.8246,6.7744,6.7465,6.689,6.5979,6.5292,6.4605,6.4048,6.3843,6.3639,6.3602,6.3647,6.3717,6.3848,6.3915,6.4061,6.4247,6.4501,6.4798,6.5061,6.518,6.5334,6.5528,6.5638,6.5682,6.5808,6.5903,6.5933,6.5774,6.5724,6.5324,6.4831,6.369,6.2917,6.2356,6.1292,6.1118,6.1099,6.1099,6.1099,6.1099,6.1099,6.1099,6.1099,6.1099,6.1099,6.1099,6.1099,6.1099,6.1079,6.1079,6.0983,6.0983,6.106,6.106,6.1079,6.1099,6.0422,5.9957,5.9513,5.9571,5.9977,6.0035,6.0016,6.0054,6.0016,6.0209,6.0383,6.0731,6.106,6.1041,6.1041,6.1021,6.106,6.1099,6.1099,6.1099,6.1099,6.1099,6.1099,6.1099,6.1099,5.9162,5.985,6.0537,6.0945,6.1131,6.1763,6.2134,6.2376,6.3082,6.3416,6.3435,6.3527,6.3602,6.3602,6.3602,6.3602,6.3602,6.3602,6.3602,6.3602,6.3602,6.3602,6.3602,6.3602,6.3602,6.3788,6.427,6.4642,6.5144,6.6054,6.6778,6.7243,6.7818,6.8338,6.8171,6.7893,6.728,6.6704,6.5979,6.5088,6.4531,6.4048,6.3732,6.3602,6.3602,6.3736,6.3848,6.3915,6.4061,6.4247,6.4502,6.4815,6.5042,6.518,6.5366,6.5528,6.5619,6.5701,6.5853,6.5878,6.5933,6.5967,6.6009,6.5768,6.5236,6.4677,6.3903,6.3149,6.2066,6.1369,6.1369,6.1137,6.1137,6.1099,6.1099,6.1099,6.1099,6.1099,6.1099,6.1099,6.1099,6.1099,6.1099,6.1099,6.1099,6.1099,6.1099,6.1099,6.1099,6.1099,6.0809,6.0634,6.046,6.0673,6.0944,6.0809,6.0596,6.0654,6.0634,6.0905,6.1099,6.1099,6.1099,6.1099,6.1099,6.1099,6.1099,6.1099,6.1099,6.1099,6.1099,6.1099,6.1099,6.1099,6.1099,5.8791,5.8958,5.9125,5.9552,6.0128,6.037,6.076,6.1503,6.2283,6.2636,6.284,6.3342,6.3602,6.3602,6.3602,6.3602,6.3602,6.3602,6.3602,6.3602,6.3602,6.3602,6.3602,6.3602,6.3602,6.3732,6.3918,6.4178,6.4568,6.5125,6.5701,6.6351,6.7131,6.7558,6.7651,6.7577,6.7744,6.7168,6.65,6.5626,6.4772,6.4233,6.3713,6.3602,6.3602,6.3717,6.383,6.3873,6.4042,6.4247,6.4502,6.4796,6.5042,6.5213,6.5334,6.5509,6.56,6.5701,6.5808,6.5878,6.5953,6.6001,6.6029,6.5997,6.5582,6.5276,6.4715,6.4425,6.342,6.2433,6.2124,6.1466,6.1273,6.1157,6.1099,6.1099,6.1099,6.1099,6.1099,6.1099,6.1099,6.1099,6.1099,6.1099,6.1099,6.1099,6.1099,6.1099,6.1099,6.1099,6.1099,6.1099,6.1099,6.1099,6.106,6.1041,6.0925,6.1041,6.1099,6.1099,6.1099,6.1099,6.1099,6.1099,6.1099,6.1099,6.1099,6.1099,6.1099,6.1099,6.1099,6.1099,6.1099,6.1099,6.1099]},{"header":{"parameterUnit":"m.s-1","parameterCategory":1,"la1":31.0,"la2":29.5877,"lo1":-88.7671,"lo2":-86.6584,"dy":0.0162,"dx":0.0185,"nx":115,"ny":88,"refTime":"2023-11-20T18:00:00:Z","depth":0,"parameterNumber":3,"parameterNumberName":"V-component_of_WINDS"},"data":[0.0,0.0,0.0,0.0,0.0,0.0,0.0,0.0,0.0,0.0,0.0,0.0,0.0,0.0,0.0,0.0,0.0,0.0,0.0,0.0,0.0,0.0,0.0,0.0,0.0,0.0,0.0,0.0,0.0,0.0,0.0,0.0,0.0,0.0,0.0,0.0,0.0,0.0,0.0,0.0,0.0,0.0,0.0,0.0,0.0,0.0,0.0,0.0,0.0,0.0,0.0,0.0,0.0,0.0,0.0,0.0,0.0,0.0,0.0,0.0,0.0,0.0,0.0,0.0,0.0,0.0,0.0,0.0,0.0,0.0,0.0,0.0,0.0,0.0,0.0,0.0,0.0,0.0,0.0,0.0,0.0,0.0,0.0,0.0,0.0,0.0,0.0,0.0,0.0,0.0,0.0,0.0,0.0,0.0,0.0,0.0,0.0,0.0,0.0,0.0,0.0,0.0,0.0,0.0,0.0,0.0,0.0,0.0,0.0,0.0,0.0,0.0,0.0,0.0,0.0,0.0,0.0,0.0,0.0,0.0,0.0,0.0,0.0,0.0,0.0,0.0,0.0,0.0,0.0,0.0,0.0,0.0,0.0,0.0,0.0,0.0,0.0,0.0,0.0,0.0,0.0,0.0,0.0,0.0,0.0,0.0,0.0,0.0,0.0,0.0,0.0,0.0,0.0,0.0,0.0,0.0,0.0,0.0,0.0,0.0,0.0,0.0,0.0,0.0,0.0,0.0,0.0,0.0,0.0,0.0,0.0,0.0,0.0,0.0,0.0,0.0,0.0,0.0,0.0,0.0,0.0,0.0,0.0,0.0,0.0,0.0,0.0,0.0,0.0,0.0,0.0,0.0,0.0,0.0,0.0,0.0,0.0,0.0,0.0,0.0,0.0,0.0,0.0,0.0,0.0,0.0,0.0,0.0,0.0,0.0,0.0,0.0,0.0,0.0,0.0,0.0,0.0,0.0,0.0,0.0,0.0,0.0,0.0,0.0,0.0,0.0,0.0,0.0,0.0,0.0,0.0,0.0,0.0,0.0,0.0,0.0,0.0,0.0,0.0,0.0,0.0,0.0,0.0,0.0,0.0,0.0,0.0,0.0,0.0,0.0,0.0,0.0,0.0,0.0,0.0,0.0,0.0,0.0,0.0,0.0,0.0,0.0,0.0,0.0,0.0,0.0,0.0,0.0,0.0,0.0,0.0,0.0,0.0,0.0,0.0,0.0,0.0,0.0,0.0,0.0,0.0,0.0,0.0,0.0,0.0,0.0,0.0,0.0,0.0,0.0,0.0,0.0,0.0,0.0,0.0,0.0,0.0,0.0,0.0,0.0,0.0,0.0,0.0,0.0,0.0,0.0,0.0,0.0,0.0,0.0,0.0,0.0,0.0,0.0,0.0,0.0,0.0,0.0,0.0,0.0,0.0,0.0,0.0,0.0,0.0,0.0,0.0,0.0,0.0,0.0,0.0,0.0,0.0,0.0,0.0,0.0,0.0,0.0,0.0,0.0,0.0,0.0,0.0,0.0,0.0,0.0,0.0,0.0,0.0,0.0,0.0,0.0,0.0,0.0,0.0,0.0,0.0,0.0,0.0,0.0,0.0,0.0,0.0,0.0,0.0,0.0,0.0,0.0,0.0,0.0,0.0,0.0,0.0,0.0,0.0,0.0,0.0,0.0,0.0,0.0,0.0,0.0,0.0,0.0,0.0,0.0,0.0,0.0,0.0,0.0,0.0,0.0,0.0,0.0,0.0,0.0,0.0,0.0,0.0,0.0,0.0,0.0,0.0,0.0,0.0,0.0,0.0,0.0,0.0,0.0,0.0,0.0,0.0,0.0,0.0,0.0,0.0,0.0,0.0,0.0,0.0,0.0,0.0,0.0,0.0,0.0,0.0,0.0,0.0,0.0,0.0,0.0,0.0,0.0,0.0,0.0,0.0,0.0,0.0,0.0,0.0,0.0,0.0,0.0,0.0,0.0,0.0,0.0,0.0,0.0,0.0,0.0,0.0,0.0,0.0,0.0,0.0,0.0,0.0,0.0,0.0,0.0,0.0,0.0,0.0,0.0,0.0,0.0,0.0,0.0,0.0,0.0,0.0,0.0,0.0,0.0,0.0,0.0,0.0,0.0,0.0,0.0,0.0,0.0,0.0,0.0,0.0,0.0,0.0,0.0,0.0,0.0,0.0,0.0,0.0,0.0,0.0,0.0,0.0,0.0,0.0,0.0,0.0,0.0,0.0,0.0,0.0,0.0,0.0,0.0,0.0,0.0,0.0,0.0,0.0,0.0,0.0,0.0,0.0,0.0,0.0,0.0,0.0,0.0,0.0,0.0,0.0,0.0,0.0,0.0,0.0,0.0,0.0,0.0,0.0,0.0,0.0,0.0,0.0,0.0,0.0,0.0,0.0,0.0,0.0,0.0,0.0,0.0,0.0,0.0,0.0,0.0,0.0,0.0,0.0,0.0,0.0,0.0,0.0,0.0,0.0,0.0,0.0,0.0,0.0,0.0,0.0,0.0,0.0,0.0,0.0,0.0,0.0,0.0,0.0,0.0,0.0,0.0,0.0,0.0,0.0,0.0,0.0,0.0,0.0,0.0,0.0,0.0,0.0,0.0,0.0,0.0,0.0,0.0,0.0,0.0,0.0,0.0,0.0,0.0,0.0,0.0,0.0,0.0,0.0,0.0,0.0,0.0,0.0,0.0,0.0,0.0,0.0,0.0,0.0,0.0,0.0,0.0,0.0,0.0,0.0,0.0,0.0,0.0,0.0,0.0,0.0,0.0,0.0,0.0,0.0,0.0,0.0,0.0,0.0,0.0,0.0,0.0,0.0,0.0,0.0,0.0,0.0,0.0,0.0,0.0,0.0,0.0,0.0,0.0,0.0,0.0,0.0,0.0,0.0,0.0,0.0,0.0,0.0,0.0,0.0,0.0,0.0,0.0,0.0,0.0,0.0,0.0,0.0,0.0,0.0,0.0,0.0,0.0,0.0,0.0,0.0,0.0,0.0,0.0,0.0,0.0,0.0,0.0,0.0,0.0,0.0,0.0,0.0,0.0,0.0,0.0,0.0,0.0,0.0,0.0,0.0,0.0,0.0,0.0,0.0,0.0,0.0,0.0,0.0,0.0,0.0,0.0,0.0,0.0,0.0,0.0,0.0,0.0,0.0,0.0,0.0,0.0,0.0,0.0,0.0,0.0,0.0,0.0,0.0,0.0,0.0,0.0,0.0,0.0,0.0,0.0,0.0,0.0,0.0,0.0,0.0,0.0,0.0,0.0,0.0,0.0,0.0,0.0,0.0,0.0,0.0,0.0,0.0,0.0,0.0,0.0,0.0,0.0,0.0,0.0,0.0,0.0,0.0,0.0,0.0,0.0,0.0,0.0,0.0,0.0,0.0,0.0,0.0,0.0,0.0,0.0,0.0,0.0,0.0,0.0,0.0,0.0,0.0,0.0,0.0,0.0,0.0,0.0,0.0,0.0,0.0,0.0,0.0,0.0,0.0,0.0,0.0,0.0,0.0,0.0,0.0,0.0,0.0,0.0,0.0,0.0,0.0,0.0,0.0,0.0,0.0,0.0,0.0,0.0,0.0,0.0,0.0,0.0,0.0,0.0,0.0,0.0,0.0,0.0,0.0,0.0,0.0,0.0,0.0,0.0,0.0,0.0,0.0,0.0,0.0,0.0,0.0,0.0,0.0,0.0,0.0,0.0,0.0,0.0,0.0,0.0,0.0,0.0,0.0,0.0,0.0,0.0,0.0,0.0,0.0,0.0,0.0,0.0,0.0,0.0,0.0,0.0,0.0,0.0,0.0,0.0,0.0,0.0,0.0,0.0,0.0,0.0,0.0,0.0,0.0,0.0,0.0,0.0,0.0,0.0,0.0,0.0,0.0,0.0,0.0,0.0,0.0,0.0,0.0,0.0,0.0,0.0,0.0,0.0,0.0,0.0,0.0,0.0,0.0,0.0,0.0,0.0,0.0,0.0,0.0,0.0,0.0,0.0,0.0,0.0,0.0,0.0,0.0,0.0,0.0,0.0,0.0,0.0,0.0,0.0,0.0,0.0,0.0,0.0,0.0,0.0,0.0,0.0,0.0,0.0,0.0,0.0,0.0,0.0,0.0,0.0,0.0,0.0,0.0,0.0,0.0,0.0,0.0,0.0,0.0,0.0,0.0,0.0,0.0,0.0,0.0,0.0,0.0,0.0,0.0,0.0,0.0,0.0,0.0,0.0,0.0,0.0,0.0,0.0,0.0,0.0,0.0,0.0,0.0,0.0,-0.2876,0.0,0.0,0.0,0.0,0.0,0.0,0.0,0.0,0.0,0.0,0.0,0.0,0.0,0.0,0.0,0.0,0.0,0.0,0.0,0.0,0.0,0.0,0.0,0.0,0.0,0.0,0.0,0.0,0.0,0.0,0.0,0.0,0.0,0.0,0.0,0.0,0.0,0.0,0.0,0.0,0.0,0.0,0.0,0.0,0.0,0.0,0.0,0.0,0.0,0.0,0.0,0.0,0.0,0.0,0.0,0.0,0.0,0.0,0.0,0.0,0.0,0.0,0.0,0.0,0.0,0.0,0.0,0.0,0.0,0.0,0.0,0.0,0.0,0.0,0.0,0.0,0.0,0.0,0.0,0.0,0.0,0.0,0.0,0.0,0.0,0.0,0.0,0.0,0.0,0.0,0.0,0.0,0.0,0.0,0.0,0.0,0.0,0.0,0.0,0.0,0.0,0.0,0.0,0.0,0.0,0.0,0.0,0.0,0.0,0.0,-0.3081,-0.3154,-0.3151,-0.3128,-0.3078,0.0,0.0,0.0,0.0,0.0,0.0,0.0,0.0,0.0,0.0,0.0,0.0,0.0,0.0,0.0,0.0,0.0,0.0,0.0,0.0,0.0,0.0,0.0,0.0,0.0,0.0,0.0,0.0,0.0,0.0,0.0,0.0,0.0,0.0,0.0,0.0,0.0,0.0,0.0,0.0,0.0,0.0,0.0,0.0,0.0,0.0,0.0,0.0,0.0,0.0,0.0,0.0,0.0,0.0,0.0,0.0,0.0,0.0,0.0,0.0,0.0,0.0,0.0,0.0,0.0,0.0,0.0,0.0,0.0,0.0,0.0,0.0,0.0,0.0,0.0,0.0,0.0,0.0,0.0,0.0,0.0,0.0,0.0,0.0,0.0,0.0,0.0,0.0,0.0,0.0,0.0,0.0,0.0,0.0,0.0,0.0,0.0,0.0,0.0,0.0,0.0,0.0,0.0,0.0,0.0,0.0,0.0,0.0,0.0,0.0,0.0,0.0,-0.3148,-0.3078,-0.3056,0.0,0.0,0.0,0.0,0.0,0.0,0.0,0.0,0.0,0.0,0.0,0.0,0.0,0.0,0.0,0.0,0.0,0.0,0.0,0.0,0.0,0.0,0.0,0.0,0.0,0.0,0.0,0.0,0.0,0.0,0.0,0.0,0.0,0.0,0.0,0.0,0.0,0.0,0.0,0.0,0.0,0.0,0.0,0.0,0.0,0.0,0.0,0.0,0.0,0.0,0.0,0.0,0.0,0.0,0.0,0.0,0.0,0.0,0.0,0.0,0.0,0.0,0.0,0.0,0.0,0.0,0.0,0.0,0.0,0.0,0.0,0.0,0.0,0.0,0.0,0.0,0.0,0.0,0.0,0.0,0.0,0.0,0.0,0.0,0.0,0.0,0.0,0.0,0.0,0.0,0.0,0.0,0.0,0.0,0.0,0.0,0.0,0.0,0.0,0.0,0.0,0.0,0.0,0.0,0.0,0.0,0.0,0.0,0.0,0.0,-0.2686,-0.2762,-0.2579,0.0,-0.2413,0.0,0.0,0.0,0.0,0.0,0.0,0.0,0.0,0.0,0.0,0.0,0.0,0.0,0.0,0.0,0.0,0.0,0.0,0.0,0.0,0.0,0.0,0.0,0.0,0.0,0.0,0.0,0.0,0.0,0.0,0.0,0.0,0.0,0.0,0.0,0.0,0.0,0.0,0.0,0.0,0.0,0.0,0.0,0.0,0.0,0.0,0.0,0.0,0.0,0.0,0.0,0.0,0.0,0.0,0.0,0.0,0.0,0.0,0.0,0.0,0.0,0.0,0.0,0.0,0.0,0.0,0.0,0.0,0.0,0.0,0.0,0.0,0.0,0.0,0.0,0.0,0.0,0.0,0.0,0.0,0.0,0.0,0.0,0.0,0.0,0.0,0.0,0.0,0.0,0.0,0.0,0.0,0.0,0.0,0.0,0.0,0.0,0.0,0.0,0.0,0.0,0.0,0.0,0.0,0.0,0.0,0.0,0.0,0.0,0.0,-0.2581,-0.2659,-0.2428,-0.2187,0.0,0.0,0.0,0.0,0.0,0.0,0.0,0.0,0.0,0.0,0.0,0.0,0.0,0.0,0.0,0.0,0.0,0.0,0.0,0.0,0.0,0.0,0.0,0.0,0.0,0.0,0.0,0.0,0.0,0.0,0.0,0.0,0.0,0.0,0.0,0.0,0.0,0.0,0.0,0.0,0.0,0.0,0.0,0.0,0.0,0.0,0.0,0.0,0.0,0.0,0.0,0.0,0.0,0.0,0.0,0.0,0.0,0.0,0.0,0.0,0.0,0.0,0.0,0.0,0.0,0.0,0.0,0.0,0.0,0.0,0.0,0.0,0.0,0.0,0.0,0.0,0.0,0.0,0.0,0.0,0.0,0.0,0.0,0.0,0.0,0.0,0.0,0.0,0.0,0.0,0.0,0.0,0.0,0.0,0.0,0.0,0.0,0.0,0.0,0.0,0.0,0.0,0.0,0.0,0.0,0.0,0.0,0.0,0.0,0.0,-0.2367,-0.2323,-0.2342,-0.2141,-0.1954,-0.1729,0.0,0.0,0.0,0.0,0.0,0.0,0.0,0.0,0.0,0.0,0.0,0.0,0.0,0.0,0.0,0.0,0.0,0.0,0.0,0.0,0.0,0.0,0.0,0.0,0.0,0.0,0.0,0.0,0.0,0.0,0.0,0.0,0.0,0.0,0.0,0.0,0.0,0.0,0.0,0.0,0.0,0.0,0.0,0.0,0.0,0.0,0.0,0.0,0.0,0.0,0.0,0.0,0.0,0.0,0.0,0.0,0.0,0.0,0.0,0.0,0.0,0.0,0.0,0.0,0.0,0.0,0.0,0.0,0.0,0.0,0.0,0.0,0.0,0.0,0.0,0.0,0.0,0.0,0.0,0.0,0.0,0.0,0.0,0.0,0.0,0.0,0.0,0.0,0.0,0.0,0.0,0.0,0.0,0.0,0.0,0.0,0.0,0.0,0.0,0.0,0.0,0.0,0.0,0.0,0.0,0.0,0.0,0.0,-0.2116,-0.2002,-0.1839,-0.1673,-0.1592,-0.1544,0.0,0.0,0.0,0.0,0.0,0.0,0.0,0.0,0.0,0.0,0.0,0.0,0.0,0.0,0.0,0.0,0.0,0.0,0.0,0.0,0.0,0.0,0.0,0.0,0.0,0.0,0.0,0.0,0.0,0.0,0.0,0.0,0.0,0.0,0.0,0.0,0.0,0.0,0.0,0.0,0.0,0.0,0.0,0.0,0.0,0.0,0.0,0.0,0.0,0.0,0.0,0.0,0.0,0.0,0.0,0.0,0.0,0.0,0.0,0.0,0.0,0.0,0.0,0.0,0.0,0.0,0.0,0.0,0.0,0.0,0.0,0.0,0.0,0.0,0.0,0.0,0.0,0.0,0.0,0.0,0.0,0.0,0.0,0.0,0.0,0.0,0.0,0.0,0.0,0.0,0.0,0.0,0.0,0.0,0.0,0.0,0.0,0.0,0.0,0.0,0.0,0.0,0.0,0.0,0.0,0.0,0.0,0.0,0.0,-0.1942,-0.1855,-0.1681,-0.1475,-0.1557,-0.145,0.0,0.0,0.0,0.0,0.0,0.0,0.0,0.0,0.0,0.0,0.0,0.0,0.0,0.0,0.0,0.0,0.0,0.0,0.0,0.0,0.0,0.0,0.0,0.0,0.0,0.0,0.0,0.0,0.0,0.0,0.0,0.0,0.0,0.0,0.0,0.0,0.0,0.0,0.0,0.0,0.0,0.0,0.0,0.0,0.0,0.0,0.0,0.0,0.0,0.0,0.0,0.0,0.0,0.0,0.0,0.0,0.0,0.0,0.0,0.0,0.0,0.0,0.0,0.0,0.0,0.0,0.0,0.0,0.0,0.0,0.0,0.0,0.0,0.0,0.0,0.0,0.0,0.0,0.0,0.0,0.0,0.0,0.0,0.0,0.0,0.0,0.0,0.0,0.0,0.0,0.0,0.0,0.0,0.0,0.0,0.0,0.0,0.0,0.0,0.0,0.0,0.0,0.0,0.0,0.0,0.0,0.0,0.0,0.0,-0.1672,0.0,-0.1295,-0.1141,-0.1179,-0.1083,0.0,0.0,0.0,0.0,0.0,0.0,0.0,0.0,0.0,0.0,0.0,0.0,0.0,0.0,0.0,0.0,0.0,0.0,0.0,0.0,0.0,0.0,0.0,0.0,0.0,0.0,0.0,0.0,0.0,0.0,0.0,0.0,0.0,0.0,0.0,0.0,0.0,0.0,0.0,0.0,0.0,0.0,0.0,0.0,0.0,0.0,0.0,0.0,0.0,0.0,0.0,0.0,0.0,0.0,0.0,0.0,0.0,0.0,0.0,0.0,0.0,0.0,0.0,0.0,0.0,0.0,0.0,0.0,0.0,0.0,0.0,0.0,0.0,0.0,0.0,0.0,0.0,0.0,0.0,0.0,0.0,0.0,0.0,0.0,0.0,0.0,0.0,0.0,0.0,0.0,0.0,0.0,0.0,0.0,0.0,0.0,0.0,0.0,0.0,0.0,0.0,0.0,0.0,0.0,0.0,0.0,0.0,0.0,-0.1511,-0.1294,-0.0867,-0.0639,-0.0538,-0.0394,-0.0383,0.0,0.0,0.0,0.0,0.0,0.0,0.0,0.0,0.0,0.0,0.0,0.0,0.0,0.0,0.0,0.0,0.0,0.0,0.0,0.0,0.0,0.0,0.0,0.0,0.0,0.0,0.0,0.0,0.0,0.0,0.0,0.0,0.0,0.0,0.0,0.0,0.0,0.0,0.0,0.0,0.0,0.0,0.0,0.0,0.0,0.0,0.0,0.0,0.0,0.0,0.0,0.0,0.0,0.0,0.0,0.0,0.0,0.0,0.0,0.0,0.0,0.0,0.0,0.0,0.0,0.0,0.0,0.0,0.0,0.0,0.0,0.0,0.0,0.0,0.0,0.0,0.0,0.0,0.0,0.0,0.0,0.0,0.0,0.0,0.0,0.0,0.0,0.0,0.0,0.0,0.0,0.0,0.0,0.0,0.0,0.0,0.0,0.0,0.0,0.0,0.0,0.0,0.0,0.0,0.0,0.0,0.0,0.0,0.0,-0.0916,-0.0328,-0.0,0.0138,0.0206,0.0199,0.0,0.0,0.0,0.0,0.0,0.0,0.0,0.0,0.0,0.0,0.0,0.0,0.0,0.0,0.0,0.0,0.0,0.0,0.0,0.0,0.0,0.0,0.0,0.0,0.0,0.0,0.0,0.0,0.0,0.0,0.0,0.0,0.0,0.0,0.0,0.0,0.0,0.0,0.0,0.0,0.0,0.0,0.0,0.0,0.0,0.0,0.0,0.0,0.0,0.0,0.0,0.0,0.0,0.0,0.0,0.0,0.0,0.0,0.0,0.0,0.0,0.0,0.0,0.0,0.0,0.0,0.0,0.0,0.0,0.0,0.0,0.0,0.0,0.0,0.0,0.0,0.0,0.0,0.0,0.0,0.0,0.0,0.0,0.0,0.0,0.0,0.0,0.0,0.0,0.0,0.0,0.0,0.0,0.0,0.0,0.0,0.0,0.0,0.0,0.0,0.0,0.0,0.0,0.0,0.0,0.0,0.0,0.0,0.0,-0.0361,0.0141,0.0492,0.0721,0.0722,0.0696,0.0642,0.0,0.0,0.0,0.0,0.0,0.0,0.0,0.0,0.0,0.0,0.0,0.0,0.0,0.0,0.0,0.0,0.0,0.0,0.0,0.0,0.0,0.0,0.0,0.0,0.0,0.0,0.0,0.0,0.0,0.0,0.0,0.0,0.0,0.0,0.0,0.0,0.0,0.0,0.0,0.0,0.0,0.0,0.0,0.0,0.0,0.0,0.0,0.0,0.0,0.0,0.0,0.0,0.0,0.0,0.0,0.0,0.0,0.0,0.0,0.0,0.0,0.0,0.0,0.0,0.0,0.0,0.0,0.0,0.0,0.0,0.0,0.0,0.0,0.0,0.0,0.0,0.0,0.0,0.0,0.0,0.0,0.0,0.0,0.0,0.0,0.0,0.0,0.0,0.0,0.0,0.0,0.0,0.0,0.0,0.0,0.0,0.0,0.0,0.0,0.0,0.0,0.0,0.0,0.0,0.0,0.0,0.0,0.0,0.0327,0.0615,0.0974,0.1295,0.1217,0.1174,0.0,0.0,0.0,0.0,0.0,0.0,0.0,0.0,0.0,0.0,0.0,0.0,0.0,0.0,0.0,0.0,0.0,0.0,0.0,0.0,0.0,0.0,0.0,0.0,0.0,0.0,0.0,0.0,0.0,0.0,0.0,0.0,0.0,0.0,0.0,0.0,0.0,0.0,0.0,0.0,0.0,0.0,0.0,0.0,0.0,0.0,0.0,0.0,0.0,0.0,0.0,0.0,0.0,0.0,0.0,0.0,0.0,0.0,0.0,0.0,0.0,0.0,0.0,0.0,0.0,0.0,0.0,0.0,0.0,0.0,0.0,0.0,0.0,0.0,0.0,0.0,0.0,0.0,0.0,0.0,0.0,0.0,0.0,0.0,0.0,0.0,0.0,0.0,0.0,0.0,0.0,0.0,0.0,0.0,0.0,0.0,0.0,0.0,0.0,0.0,0.0,0.0,0.0,0.0,0.0,0.0,0.0,0.0,0.0,0.1834,0.2396,0.2262,0.1642,0.1691,0.1607,0.0,0.0,0.0,0.0,0.0,0.0,0.0,0.0,0.0,0.0,0.0,0.0,0.0,0.0,0.0,0.0,0.0,0.0,0.0,0.0,0.0,0.0,0.0,0.0,0.0,0.0,0.0,0.0,0.0,0.0,0.0,0.0,0.0,0.0,0.0,0.0,0.0,0.0,0.0,0.0,0.0,0.0,0.0,0.0,0.0,0.0,0.0,0.0,0.0,0.0,0.0,0.0,0.0,0.0,0.0,0.0,0.0,0.0,0.0,0.0,0.0,0.0,0.0,0.0,0.0,0.0,0.0,0.0,0.0,0.0,0.0,0.0,0.0,0.0,0.0,0.0,0.0,0.0,0.0,0.0,0.0,0.0,0.0,0.0,0.0,0.0,0.0,0.0,0.0,0.0,0.0,0.0,0.0,0.0,0.0,0.0,0.0,0.0,0.0,0.0,0.0,0.0,0.0,0.0,0.0,0.0,0.0,0.0,0.1382,0.2575,0.3087,0.3094,0.2586,0.2379,0.2144,0.0,0.0,0.0,0.0,0.0,0.0,0.0,0.0,0.0,0.0,0.0,0.0,0.0,0.0,0.0,0.0,0.0,0.0,0.0,0.0,0.0,0.0,0.0,0.0,0.0,0.0,0.0,0.0,0.0,0.0,0.0,0.0,0.0,0.0,0.0,0.0,0.0,0.0,0.0,0.0,0.0,0.0,0.0,0.0,0.0,0.0,0.0,0.0,0.0,0.0,0.0,0.0,0.0,0.0,0.0,0.0,0.0,0.0,0.0,0.0,0.0,0.0,0.0,0.0,0.0,0.0,0.0,0.0,0.0,0.0,0.0,0.0,0.0,0.0,0.0,0.0,0.0,0.0,0.0,0.0,0.0,0.0,0.0,0.0,0.0,0.0,0.0,0.0,0.0,0.0,0.0,0.0,0.0,0.0,0.0,0.0,0.0,0.0,0.0,0.0,0.0,0.0,0.0,0.0,0.0,0.0,0.0,0.0,0.1624,0.2976,0.3345,0.3751,0.3951,0.3192,0.268,0.0,0.0,0.0,0.0,0.0,0.0,0.0,0.0,0.0,0.0,0.0,0.0,0.0,0.0,0.0,0.0,0.0,0.0,0.0,0.0,0.0,0.0,0.0,0.0,0.0,0.0,0.0,0.0,0.0,0.0,0.0,0.0,0.0,0.0,0.0,0.0,0.0,0.0,0.0,0.0,0.0,0.0,0.0,0.0,0.0,0.0,0.0,0.0,0.0,0.0,0.0,0.0,0.0,0.0,0.0,0.0,0.0,0.0,0.0,0.0,0.0,0.0,0.0,0.0,0.0,0.0,0.0,0.0,0.0,0.0,0.0,0.0,0.0,0.0,0.0,0.0,0.0,0.0,0.0,0.0,0.0,0.0,0.0,0.0,0.0,0.0,0.0,0.0,0.0,0.0,0.0,0.0,0.0,0.0,0.0,0.0,0.0,0.0,0.0,0.0,0.0,0.0,0.0,0.0,0.0,0.0,0.0,0.0,0.2651,0.4273,0.4661,0.5078,0.5287,0.4272,0.34,0.0,0.0,0.0,0.0,0.0,0.0,0.0,0.0,0.0,0.0,0.0,0.0,0.0,0.0,0.0,0.0,0.0,0.0,0.0,0.0,0.0,0.0,0.0,0.0,0.0,0.0,0.0,0.0,0.0,0.0,0.0,0.0,0.0,0.0,0.0,0.0,0.0,0.0,0.0,0.0,0.0,0.0,0.0,0.0,0.0,0.0,0.0,0.0,-0.3451,0.0,0.0,0.0,0.0,0.0,0.0,0.0,0.0,0.0,0.0,0.0,0.0,0.0,0.0,0.0,0.0,0.0,0.0,0.0,0.0,0.0,0.0,0.0,0.0,0.0,0.0,0.0,0.0,0.0,0.0,0.0,0.0,0.0,0.0,0.0,0.0,0.0,0.0,0.0,0.0,0.0,0.0,0.0,0.0,0.0,0.0,0.0,0.0,0.0,0.0,0.0,0.0,0.0,0.0,0.0,0.0,0.0,0.0,0.0,0.3329,0.4457,0.5082,0.5503,0.5881,0.4991,0.4286,0.0,0.0,0.0,0.0,0.0,0.0,0.0,0.0,0.0,0.0,0.0,0.0,0.0,0.0,0.0,0.0,0.0,0.0,0.0,0.0,0.0,0.0,0.0,0.0,0.0,0.0,0.0,0.0,0.0,0.0,0.0,0.0,0.0,0.0,0.0,0.0,0.0,0.0,0.0,0.0,0.0,0.0,0.0,0.0,0.0,0.0,0.0,0.0,0.0,0.0,0.0,0.0,0.0,0.0,0.0,0.0,0.0,0.0,0.0,0.0,0.0,0.0,0.0,0.0,0.0,0.0,0.0,0.0,0.0,0.0,0.0,0.0,0.0,0.0,0.0,0.0,0.0,0.0,0.0,0.0,0.0,0.0,0.0,0.0,0.0,0.0,0.0,0.0,0.0,0.0,0.0,0.0,0.0,0.0,0.0,0.0,0.0,0.0,0.0,0.0,0.0,0.0,0.0,0.0,0.0,0.0,0.0,0.2852,0.3879,0.4473,0.5228,0.576,0.6224,0.5705,0.5005,0.4346,0.0,0.0,0.0,0.0,0.0,0.0,0.0,0.0,0.0,0.0,0.0,0.0,0.0,0.0,0.0,0.0,0.0,0.0,0.0,0.0,0.0,0.0,0.0,0.0,0.0,0.0,0.0,0.0,0.0,0.0,0.0,0.0,0.0,0.0,0.0,0.0,0.0,0.0,-0.262,-0.2896,0.0,0.0,0.0,0.0,0.0,0.0,0.0,0.0,-0.3362,0.0,0.0,0.0,0.0,0.0,0.0,0.0,0.0,0.0,0.0,0.0,0.0,0.0,0.0,0.0,0.0,0.0,0.0,0.0,0.0,0.0,0.0,0.0,0.0,0.0,0.0,0.0,0.0,0.0,0.0,0.0,0.0,0.0,0.0,0.0,0.0,0.0,0.0,0.0,0.0,0.0,0.0,0.0,0.0,0.0,0.0,0.0,0.0,0.0,0.0,0.0,0.0,0.0,0.0,0.0,0.0,0.2677,0.3421,0.4382,0.5387,0.5952,0.6453,0.6867,0.6012,0.5296,0.4623,0.0,0.0,0.0,0.0,0.0,0.0,0.0,0.0,0.0,0.0,0.0,0.0,0.0,0.0,0.0,0.0,0.0,0.0,0.0,0.0,0.0,0.0,0.0,0.0,0.0,0.0,0.0,0.0,0.0,0.0,0.0,0.0,0.0,0.0,0.0,0.0,0.0,0.0,0.0,-0.2816,-0.2945,0.0,0.0,0.0,0.0,0.0,0.0,0.0,0.0,-0.2813,0.0,0.0,0.0,0.0,0.0,0.0,0.0,0.0,0.0,0.0,0.0,0.0,0.0,0.0,0.0,0.0,0.0,0.0,0.0,0.0,0.0,0.0,0.0,0.0,0.0,0.0,0.0,0.0,0.0,0.0,0.0,0.0,0.0,0.0,0.0,0.0,0.0,0.0,0.0,0.0,0.0,0.0,0.0,0.0,0.0,0.0,0.0,0.0,0.0,0.0,0.0,0.0,0.0,0.0,0.0,0.2895,0.36,0.4479,0.5548,0.6189,0.6567,0.6883,0.6032,0.5317,0.0,0.0,0.0,0.0,0.0,0.0,0.0,0.0,0.0,0.0,0.0,0.0,0.0,0.0,0.0,0.0,0.0,0.0,0.0,0.0,0.0,0.0,0.0,0.0,0.0,0.0,0.0,0.0,0.0,0.0,0.0,0.0,0.0,0.0,0.0,0.0,0.0,0.0,0.0,0.0,-0.2818,-0.2865,-0.2843,0.0,0.0,0.0,0.0,0.0,0.0,-0.2522,-0.244,0.0,0.0,0.0,0.0,0.0,0.0,0.0,0.0,0.0,0.0,0.0,0.0,0.0,0.0,0.0,0.0,0.0,0.0,0.0,0.0,0.0,0.0,0.0,0.0,0.0,0.0,0.0,0.0,0.0,0.0,0.0,0.0,0.0,0.0,0.0,0.0,0.0,0.0,0.0,0.0,0.0,0.0,0.0,0.0,0.0,0.0,0.0,0.0,0.0,0.0,0.0,0.0,0.0,0.0,0.0,0.297,0.3707,0.4584,0.5478,0.6093,0.6558,0.676,0.6042,0.5246,0.0,0.0,0.0,0.0,0.0,0.0,0.0,0.0,0.0,0.0,0.0,0.0,0.0,0.0,0.0,0.0,0.0,0.0,0.0,0.0,0.0,0.0,0.0,0.0,0.0,0.0,0.0,0.0,0.0,0.0,0.0,0.0,0.0,0.0,0.0,0.0,0.0,0.0,0.0,0.0,0.0,-0.2804,-0.2718,-0.2748,0.0,0.0,0.0,0.0,-0.2516,-0.2282,0.0,0.0,0.0,0.0,0.0,0.0,0.0,0.0,0.0,0.0,0.0,0.0,0.0,0.0,0.0,0.0,0.0,0.0,0.0,0.0,0.0,0.0,0.0,0.0,0.0,0.0,0.0,0.0,0.0,0.0,0.0,0.0,0.0,0.0,0.0,0.0,0.0,0.0,0.0,0.0,0.0,0.0,0.0,0.0,0.0,0.0,0.0,0.0,0.0,0.0,0.0,0.0,0.0,0.0,0.0,0.0,0.3269,0.425,0.5095,0.5772,0.6326,0.6641,0.6638,0.6001,0.5244,0.0,0.0,0.0,0.0,0.0,0.0,0.0,0.0,0.0,0.0,0.0,0.0,0.0,0.0,0.0,0.0,0.0,0.0,0.0,0.0,0.0,0.0,0.0,0.0,0.0,0.0,0.0,0.0,0.0,0.0,0.0,0.0,0.0,0.0,0.0,0.0,0.0,0.0,0.0,0.0,0.0,-0.2336,-0.2247,-0.2139,-0.2006,0.0,0.0,-0.2026,-0.1948,-0.1837,0.0,0.0,0.0,0.0,0.0,0.0,0.0,0.0,0.0,0.0,0.0,0.0,0.0,0.0,0.0,0.0,0.0,0.0,0.0,0.0,0.0,0.0,0.0,0.0,0.0,0.0,0.0,0.0,0.0,0.0,0.0,0.0,0.0,0.0,0.0,0.0,0.0,0.0,0.0,0.0,0.0,0.0,0.0,0.0,0.0,0.0,0.0,0.0,0.0,0.0,0.0,0.0,0.0,0.0,0.0,0.2915,0.3491,0.4403,0.5249,0.5994,0.6313,0.6516,0.6513,0.5799,0.5158,0.0,0.0,0.0,0.0,0.0,0.0,0.0,0.0,0.0,0.0,0.0,0.0,0.0,0.0,0.0,0.0,0.0,0.0,0.0,0.0,0.0,0.0,0.0,0.0,0.0,0.0,0.0,0.0,0.0,0.0,0.0,0.0,0.0,0.0,0.0,0.0,0.0,0.0,0.0,0.0,0.0,0.0,-0.2074,-0.1981,0.0,0.0,0.0,-0.1869,-0.1613,0.0,0.0,0.0,0.0,0.0,0.0,0.0,0.0,0.0,0.0,0.0,0.0,0.0,0.0,0.0,0.0,0.0,0.0,0.0,0.0,0.0,0.0,0.0,0.0,0.0,0.0,0.0,0.0,0.0,0.0,0.0,0.0,0.0,0.0,0.0,0.0,0.0,0.0,0.0,0.0,0.0,0.0,0.0,0.0,0.0,0.0,0.0,0.0,0.0,0.0,0.0,0.0,0.0,0.0,0.0,0.0,0.0,0.3755,0.4611,0.5348,0.6032,0.6239,0.6437,0.6434,0.5726,0.0,0.0,0.0,0.0,0.0,0.0,0.0,0.0,0.0,0.0,0.0,0.0,0.0,0.0,0.0,0.0,0.0,0.0,0.0,0.0,0.0,0.0,0.0,0.0,0.0,0.0,0.0,-0.0893,0.0,0.0,0.0,0.0,0.0,0.0,0.0,0.0,0.0,0.0,0.0,0.0,0.0,0.0,-0.2098,-0.1909,-0.1905,-0.187,0.0,0.0,-0.1731,-0.1367,-0.0625,-0.0087,0.0,0.0,0.0,0.0,0.0,0.0,0.0,0.0,0.0,0.0,0.0,0.0,0.0,0.0,0.0,0.0,0.0,0.0,0.0,0.0,0.0,0.0,0.0,0.0,0.0,0.0,0.0,0.0,0.0,0.0,0.0,0.0,0.0,0.0,0.0,0.0,0.0,0.0,0.0,0.0,0.0,0.0,0.0,0.0,0.0,0.0,0.0,0.0,0.0,0.0,0.0,0.0,0.0,0.0,0.0,0.4094,0.4928,0.5615,0.6032,0.6239,0.6437,0.6431,0.5726,0.5227,0.0,0.0,0.0,0.0,0.0,0.0,0.0,0.0,0.0,0.0,0.0,0.0,0.0,0.0,0.0,0.0,0.0,0.0,0.0,0.0,0.0,0.0,0.0,0.0,0.0,0.0,0.0,0.0,0.0,0.0,0.0,0.0,0.0,0.0,0.0,0.0,0.0,0.0,0.0,0.0,0.0,-0.17,-0.1773,-0.1663,-0.1517,0.0,0.0,-0.1424,-0.1425,-0.0552,-0.0,-0.0,0.0,0.0,0.0,0.0,0.0,0.0,0.0,0.0,0.0,0.0,0.0,0.0,0.0,0.0,0.0,0.0,0.0,0.0,0.0,0.0,0.0,0.0,0.0,0.0,0.0,0.0,0.0,0.0,0.0,0.0,0.0,0.0,0.0,0.0,0.0,0.0,0.0,0.0,0.0,0.0,0.0,0.0,0.0,0.0,0.0,0.0,0.0,0.0,0.0,0.0,0.0,0.0,0.0,0.3414,0.4295,0.5037,0.5622,0.6226,0.6337,0.6401,0.6336,0.588,0.5291,0.0,0.0,0.0,0.0,0.0,0.0,0.0,0.0,0.0,0.0,0.0,0.0,0.0,0.0,0.0,0.0,0.0,0.0,0.0,0.0,0.0,0.0,0.0,0.0,0.0,0.0,0.0,0.0,-0.0994,-0.1132,-0.1252,0.0,0.0,0.0,0.0,0.0,0.0,0.0,0.0,0.0,0.0,-0.1762,-0.1611,-0.1221,0.0,0.0,-0.1472,-0.1285,-0.0692,0.0287,0.0836,0.0825,0.061,0.0,0.0,0.0,0.0,0.0,0.0,0.0,0.0,0.0,0.0,0.0,0.0,0.0,0.0,0.0,0.0,0.0,0.0,0.0,0.0,0.0,0.0,0.0,0.0,0.0,0.0,0.0,0.0,0.0,0.0,0.0,0.0,0.0,0.0,0.0,0.0,0.0,0.0,0.0,0.0,0.0,0.0,0.0,0.0,0.0,0.0,0.0,0.0,0.0,0.0,0.0,0.0,0.3613,0.4567,0.5132,0.5719,0.6331,0.6437,0.6399,0.632,0.5971,0.5483,0.0,0.0,0.0,0.0,0.0,0.0,0.0,0.0,0.0,0.0,0.0,0.0,0.0,0.0,0.0,0.0,0.0,0.0,0.0,0.0,0.0,0.0,0.0,0.0,0.0,0.0,0.0,0.0,-0.0914,-0.1057,-0.1139,0.0,0.0,0.0,0.0,0.0,0.0,0.0,0.0,0.0,0.0,-0.1273,-0.1013,-0.0673,-0.0495,-0.0693,-0.0801,-0.0606,0.0101,0.0786,0.1245,0.1417,0.0,0.0,0.0,0.0,0.0,0.0,0.0,0.0,0.0,0.0,0.0,0.0,0.0,0.0,0.0,0.0,0.0,0.0,0.0,0.0,0.0,0.0,0.0,0.0,0.0,0.0,0.0,0.0,0.0,0.0,0.2176,0.0,0.0,0.0,0.0,0.0,0.0,0.0,0.0,0.0,0.0,0.0,0.0,0.0,0.0,0.0,0.0,0.0,0.0,0.0,0.0,0.0,0.0,0.3781,0.4748,0.5225,0.5716,0.6429,0.6437,0.6434,0.6426,0.5914,0.5649,0.553,0.0,0.0,0.0,0.0,0.0,0.0,0.0,0.0,0.0,0.0,0.0,0.0,0.0,0.0,0.0,0.0,0.0,0.0,0.0,0.0,0.0,0.0,0.0,0.0,0.0,0.0,-0.037,-0.0741,-0.1013,0.0,0.0,0.0,0.0,0.0,0.0,0.0,0.0,0.0,0.0,-0.054,0.0094,0.0097,0.0,0.0202,0.0606,0.0707,0.0707,0.0809,0.0795,0.0982,0.0,0.0,0.0,0.0,0.0,0.0,0.0,0.0,0.0,0.0,0.0,0.0,0.0,0.0,0.0,0.0,0.0,0.0,0.0,0.0,0.0,0.0,0.0,0.0,0.0,0.0,0.0,0.3487,0.3335,0.0,0.0,0.0,0.0,0.0,0.0,0.0,0.0,0.0,0.0,0.0,0.3656,0.3796,0.0,0.0,0.0,0.0,0.0,0.0,0.0,0.0,0.0,0.0,0.0,0.0,0.4205,0.4833,0.5349,0.5906,0.6429,0.6437,0.6437,0.6434,0.619,0.5887,0.5435,0.0,0.0,0.0,0.0,0.0,0.0,0.0,0.0,0.0,0.0,0.0,0.0,0.0,0.0,0.0,0.0,0.0,0.0,0.0,0.0,0.0,0.0,0.0,0.0,0.0,0.0257,0.0,0.0,0.0,0.0,0.0,0.0,0.0,0.0,0.0,0.0,0.0,-0.0347,-0.0354,0.0465,0.1258,0.1568,0.131,0.1234,0.0,0.0,0.0,0.0,0.0,0.0,0.0,0.0,0.0,0.0,0.0,0.0,0.0,0.0,0.1464,0.0921,0.0493,0.0081,-0.008,0.0,0.0,0.0,0.0,0.0,0.0,0.0,0.0,0.0,0.0,0.0,0.0,0.0,0.0,0.0,0.0,0.4137,0.0,0.0,0.0,0.0,0.0,0.0,0.0,0.0,0.4298,0.4622,0.4833,0.4915,0.4993,0.0,0.4624,0.3996,0.0,0.0,0.0,0.0,0.0,0.0,0.0,0.0,0.4493,0.5163,0.5591,0.5948,0.6426,0.6539,0.6539,0.6537,0.6522,0.6283,0.5649,0.5257,0.4778,0.0,0.0,0.0,0.0,0.0,0.0,0.0,0.0,0.0,0.0,0.0,0.0,0.0,0.0,0.0,0.0,0.0,0.0,0.0,0.0,0.0,0.0,0.0,0.0748,0.0,0.0,0.0,0.0,0.0,0.0,0.0,0.0,0.0,-0.0163,-0.0,0.0361,0.0915,0.1432,0.2073,0.27,0.0,0.0,0.0,0.0,0.0,0.0,0.0,0.2933,0.2933,0.3031,0.3111,0.3053,0.2995,0.2878,0.2839,0.0,0.0,0.1526,0.1143,0.0869,0.0862,0.0526,0.0178,-0.0179,-0.0456,-0.0742,0.0,0.0,0.0,0.0,0.0,0.0,0.0,0.0,0.5679,0.5664,0.0,0.53,0.0,0.0,0.0,0.0,0.0,0.4454,0.0,0.0,0.5397,0.5794,0.591,0.6029,0.6084,0.5981,0.5585,0.5284,0.4876,0.3839,0.0,0.0,0.0,0.0,0.0,0.0,0.4797,0.556,0.586,0.6121,0.6431,0.6642,0.6845,0.6842,0.7009,0.6853,0.6308,0.6174,0.5769,0.4904,0.4472,0.0,0.0,0.0,0.0,0.0,0.0,0.0,0.0,0.0,0.0,0.0,0.0,0.0,0.0,0.0,0.0,0.0,0.0,0.0,0.0,0.1344,0.0,0.0,0.0,0.0,0.0,0.0,0.0,0.0,0.0,0.0,0.1662,0.08,0.073,0.2186,0.0,0.0,0.0,0.0,0.2615,0.298,0.2988,0.3093,0.3095,0.3301,0.351,0.3616,0.0,0.0,0.3851,0.3679,0.3552,0.3721,0.337,0.2684,0.1694,0.1582,0.1569,0.154,0.147,0.1309,0.0857,0.068,0.0594,0.8991,0.0,0.0,0.0,0.0,0.7204,0.7238,0.7349,0.7392,0.7316,0.7088,0.6725,0.0,0.0,0.0,0.0,0.0,0.0,0.5523,0.6076,0.6353,0.6747,0.7071,0.7208,0.7058,0.6844,0.6524,0.6106,0.5789,0.5296,0.4709,0.4038,0.0,0.0,0.0,0.0,0.5595,0.6056,0.6517,0.6804,0.6933,0.7039,0.7141,0.7138,0.7205,0.7177,0.6865,0.6681,0.637,0.5786,0.5273,0.0,0.0,0.0,0.0,0.0,0.0,0.0,0.0,0.0,0.0,0.0,0.0,0.0,0.0,0.0,0.0,0.0,0.0,0.0,0.1712,0.1662,0.1603,0.0,0.0,0.0,0.0,0.0,0.0,0.0,0.0,0.0,0.3118,0.2481,0.2117,0.0,0.0,0.318,0.3421,0.35,0.356,0.3578,0.0,0.0,0.0,0.4183,0.4468,0.4682,0.4892,0.5008,0.5155,0.4876,0.4618,0.4432,0.421,0.365,0.298,0.2506,0.2166,0.2056,0.1785,0.1509,0.1418,0.144,0.1462,1.1459,1.0045,0.9108,0.8679,0.8501,0.8561,0.8585,0.8682,0.8769,0.8668,0.8434,0.7879,0.74,0.7037,0.6315,0.0,0.0,0.0,0.6611,0.6991,0.7259,0.766,0.7899,0.8037,0.7963,0.769,0.7402,0.7064,0.6688,0.6589,0.6187,0.5596,0.0,0.0,0.5319,0.5823,0.6352,0.6718,0.7075,0.7266,0.74,0.7449,0.762,0.7818,0.7783,0.7774,0.7714,0.7463,0.7151,0.6621,0.6034,0.5386,0.0,0.0,0.0,0.0,0.0,0.0,0.0,0.0,0.0,0.0,0.0,0.1915,0.0,0.0,0.0,0.0,0.2042,0.212,0.2162,0.2241,0.0,0.0,0.0,0.0,0.0,0.0,0.0,0.3127,0.3391,0.3769,0.4296,0.3852,0.3482,0.321,0.3399,0.368,0.4128,0.0,0.4382,0.463,0.4636,0.4744,0.4962,0.514,0.5431,0.5541,0.5755,0.5881,0.5939,0.5793,0.5541,0.5212,0.4887,0.4673,0.4237,0.3737,0.3141,0.2794,0.2392,0.1994,0.2009,0.2032,0.2052,1.3811,1.3016,1.1101,1.0087,0.975,0.9796,0.9861,0.9861,0.9753,0.9655,0.9482,0.8791,0.8237,0.7945,0.7469,0.0,0.7192,0.7462,0.7592,0.7623,0.8194,0.8497,0.852,0.8652,0.8649,0.852,0.8301,0.805,0.7684,0.766,0.7586,0.7446,0.6675,0.6213,0.6222,0.6625,0.6938,0.7372,0.7499,0.7626,0.775,0.7927,0.8156,0.867,0.8517,0.8466,0.862,0.8404,0.7907,0.7296,0.6637,0.6019,0.5403,0.0,0.0,0.0,0.0,0.0,0.0,0.0,0.0,0.0,0.0,0.0,0.0,0.0,0.0,0.0,0.2459,0.0,0.2765,0.3025,0.0,0.0,0.0,0.296,0.2959,0.3249,0.3695,0.4066,0.0,0.0,0.5303,0.0,0.4675,0.404,0.4005,0.4391,0.523,0.5029,0.517,0.5693,0.5819,0.5819,0.5813,0.6144,0.6364,0.6364,0.6386,0.6374,0.6376,0.6376,0.6156,0.5922,0.5594,0.5367,0.5377,0.4799,0.4329,0.3874,0.3211,0.2688,0.2727,0.263,0.2532,1.4827,1.4071,1.3583,1.2618,1.1417,1.1454,1.136,1.1129,1.1013,1.0842,1.0544,1.0039,0.9173,0.8157,0.817,0.8014,0.7924,0.7992,0.8297,0.883,0.8903,0.9014,0.9154,0.9195,0.9079,0.8816,0.8702,0.8442,0.8072,0.8134,0.8012,0.771,0.7776,0.7671,0.7205,0.7431,0.7613,0.7648,0.8095,0.834,0.858,0.8546,0.867,0.8976,0.8811,0.8711,0.8769,0.856,0.8292,0.787,0.738,0.6719,0.5817,0.5181,0.0,0.0,0.0,0.0,0.0,0.0,0.0,0.0,0.0,0.2384,0.2648,0.0,0.2798,0.0,0.3172,0.3323,0.3526,0.3615,0.0,0.0,0.3894,0.3972,0.3972,0.4395,0.4718,0.4793,0.5054,0.5321,0.5492,0.559,0.5487,0.5481,0.5301,0.5243,0.5552,0.5854,0.6021,0.6154,0.6161,0.6272,0.6492,0.6824,0.6937,0.6935,0.6935,0.6935,0.7043,0.6715,0.6604,0.6492,0.6044,0.571,0.5485,0.5039,0.492,0.4884,0.4098,0.3326,0.3342,0.301,0.268,1.5721,1.5356,1.4974,1.4262,1.3322,1.2778,1.2461,1.2327,1.2042,1.1736,1.1529,1.0739,0.9991,0.909,0.9172,0.9103,0.9008,0.9054,0.9212,0.9485,0.9439,0.9401,0.9486,0.9551,0.9426,0.9251,0.9248,0.9013,0.8691,0.8791,0.8677,0.8356,0.8675,0.8602,0.814,0.8115,0.8118,0.8152,0.8541,0.879,0.9108,0.8962,0.9057,0.9393,0.9225,0.9103,0.913,0.8943,0.8627,0.8273,0.7897,0.7247,0.634,0.5742,0.5082,0.0,0.0,0.0,0.0,0.0,0.0,0.0,0.0,0.0,0.0,0.0,0.3282,0.0,0.3778,0.4009,0.4263,0.4448,0.4537,0.4712,0.4811,0.4878,0.4881,0.5202,0.5415,0.5477,0.5723,0.5872,0.5929,0.6035,0.6251,0.6363,0.6313,0.6168,0.616,0.6347,0.6495,0.6715,0.6717,0.6715,0.6932,0.7043,0.7154,0.7154,0.7154,0.7154,0.7154,0.7046,0.6824,0.6715,0.6379,0.6042,0.5483,0.5373,0.5377,0.5268,0.4707,0.4147,0.4035,0.3587,0.3253,1.6525,1.6499,1.5854,1.5463,1.4903,1.4029,1.3618,1.3447,1.2737,1.2431,1.2209,1.1277,1.0591,1.0198,1.0194,1.0209,1.0129,1.0062,1.0029,1.0058,0.9863,0.9803,0.9789,0.9913,0.9895,0.9758,0.9755,0.9676,0.9531,0.9412,0.9334,0.9188,0.9184,0.912,0.8991,0.8713,0.8625,0.8629,0.8869,0.9158,0.9375,0.9331,0.9492,0.9746,0.9678,0.9605,0.9537,0.9434,0.9056,0.8698,0.8204,0.759,0.686,0.6277,0.5628,0.0,0.4385,0.0,0.0,0.0,0.0,0.0,0.0,0.0,0.0,0.3621,0.3817,0.4141,0.4424,0.4671,0.5025,0.5327,0.5424,0.5519,0.5534,0.5541,0.5543,0.5828,0.5992,0.5992,0.6176,0.6437,0.6342,0.6543,0.6665,0.6785,0.6902,0.6907,0.6795,0.671,0.6824,0.7154,0.7154,0.7157,0.7154,0.7154,0.7154,0.7154,0.7154,0.7154,0.7154,0.7154,0.7154,0.6824,0.6712,0.649,0.5708,0.5822,0.5712,0.5603,0.5268,0.4929,0.4592,0.4257,0.4036,1.6933,1.6504,1.6374,1.6109,1.5704,1.5245,1.447,1.3537,1.3462,1.2914,1.2238,1.2132,1.1447,1.0724,1.0601,1.0562,1.0468,1.0625,1.0774,1.0912,1.0952,1.0959,1.0834,1.0859,1.0786,1.051,1.0265,1.0063,0.9923,0.9683,0.949,0.934,0.9337,0.9323,0.9289,0.0,0.0,0.0,0.9147,0.9489,0.9702,0.9761,0.991,1.006,0.9875,0.0,0.9636,0.9529,0.9351,0.8983,0.859,0.0,0.0,0.0,0.0,0.0,0.0,0.0,0.0,0.0,0.0,0.0,0.4864,0.4639,0.4232,0.4736,0.5039,0.5078,0.5176,0.5284,0.5506,0.5606,0.5703,0.59,0.608,0.6139,0.6141,0.6235,0.6305,0.6305,0.6323,0.6439,0.645,0.6543,0.6665,0.6796,0.6907,0.7027,0.7138,0.7046,0.7154,0.7154,0.7154,0.7154,0.7154,0.7154,0.7154,0.7154,0.7154,0.7154,0.7154,0.7154,0.7154,0.7043,0.6935,0.6715,0.6829,0.6497,0.6163,0.5938,0.5712,0.5487,0.4929,0.4594,0.4369,1.7429,0.0,1.6676,1.6369,0.0,1.5849,1.5394,1.4766,1.4153,1.3505,1.2886,1.2759,1.2407,1.1752,1.1748,1.1683,1.1413,1.1371,1.1336,1.142,1.1381,1.1247,1.1165,1.108,1.1001,1.0912,1.0705,1.0507,1.0437,1.031,1.0115,0.9962,0.9962,0.9923,0.9838,0.9681,0.9528,0.9158,0.9382,0.971,1.0033,1.0058,1.0107,1.0172,0.0,0.0,0.0,0.0,0.0,0.0,0.0,0.0,0.0,0.0,0.0,0.6278,0.589,0.5678,0.5445,0.5532,0.5468,0.5339,0.5484,0.5373,0.4901,0.5174,0.5446,0.559,0.5598,0.5716,0.6055,0.606,0.6063,0.6263,0.6314,0.6352,0.6355,0.6399,0.6437,0.6445,0.6491,0.6526,0.6529,0.669,0.6815,0.6888,0.6994,0.7086,0.7141,0.7154,0.7154,0.7154,0.7154,0.7154,0.7154,0.7154,0.7154,0.7154,0.7154,0.7154,0.7154,0.7154,0.7154,0.7154,0.7043,0.7049,0.7054,0.6831,0.6495,0.6274,0.6161,0.5935,0.5377,0.5041,0.4706,1.806,1.7867,1.6984,1.6634,1.6629,1.6234,1.6104,1.5959,0.0,0.0,0.0,1.3478,1.3204,1.2918,1.2918,1.2674,1.2434,1.221,1.1972,1.1976,1.1749,1.149,1.1583,1.1446,1.1362,1.1328,1.1038,1.0951,1.0951,1.0804,1.0722,1.0606,1.0599,1.0513,1.0353,1.0211,1.0051,0.9647,0.9618,0.982,1.0257,1.0366,1.0325,1.0217,1.018,1.0006,0.9685,0.9644,0.9529,0.9236,0.9232,0.8871,0.8153,0.8046,0.7604,0.6727,0.6521,0.6331,0.605,0.6244,0.6151,0.5575,0.5851,0.5861,0.558,0.5575,0.5706,0.5992,0.5999,0.6137,0.6429,0.6437,0.6437,0.6437,0.6437,0.6437,0.6439,0.6458,0.6475,0.648,0.6578,0.6651,0.666,0.6839,0.6986,0.6997,0.7076,0.7154,0.7154,0.7154,0.7154,0.7154,0.7154,0.7154,0.7154,0.7154,0.7154,0.7154,0.7154,0.7154,0.7154,0.7154,0.7154,0.7154,0.7154,0.7157,0.7165,0.694,0.6715,0.6611,0.6497,0.6272,0.5935,0.5487,0.5154,1.8483,1.8256,1.7629,1.7405,1.7276,1.6758,1.6234,1.5969,1.5559,1.478,1.3947,1.3943,1.3716,1.3174,1.3174,1.3299,1.3191,1.2965,1.2913,0.0,1.269,1.2548,1.2399,1.2375,1.2282,1.2138,1.1584,1.1375,1.136,1.0982,1.0778,1.0759,1.0755,1.0677,1.0532,1.0498,1.0454,1.0378,1.0224,1.0257,1.0253,1.0472,1.0599,1.0404,1.0245,1.0063,0.986,0.9709,0.9628,0.9529,0.9335,0.9023,0.8696,0.8499,0.8096,0.7486,0.7592,0.7394,0.6688,0.6487,0.6388,0.6289,0.6305,0.6305,0.6291,0.6286,0.6294,0.6313,0.6307,0.6318,0.6434,0.6439,0.6445,0.6442,0.6439,0.6439,0.6453,0.6537,0.6594,0.6597,0.67,0.6777,0.679,0.6902,0.6997,0.7005,0.7089,0.7154,0.7154,0.7154,0.7154,0.7154,0.7154,0.7154,0.7154,0.7154,0.7154,0.7154,0.7154,0.7154,0.7154,0.7154,0.7154,0.7154,0.7154,0.7154,0.7157,0.7157,0.7046,0.6826,0.6715,0.6604,0.6272,0.6049,0.594,1.9119,1.8858,1.8216,1.7905,1.7781,1.7271,1.6758,1.6239,1.6109,1.5669,1.5182,1.4923,1.4608,1.4134,1.4001,1.3873,1.3616,1.3578,1.3492,1.3496,1.3447,1.3312,1.3223,1.3001,1.278,1.2689,1.2142,1.1932,1.1912,1.1622,1.1413,1.1409,1.1327,1.1366,1.1291,1.1197,1.1188,1.1256,1.0759,1.0461,1.048,1.0802,1.0824,1.0654,1.0563,1.0431,1.0244,1.0059,0.9916,0.9916,0.9819,0.9568,0.9168,0.8963,0.8524,0.8045,0.8045,0.7746,0.7039,0.6637,0.6437,0.6439,0.6497,0.6537,0.6535,0.6475,0.6437,0.6437,0.6437,0.6437,0.6439,0.6497,0.6535,0.6535,0.6592,0.6632,0.6638,0.6679,0.6717,0.673,0.6825,0.6899,0.6902,0.7005,0.7076,0.7081,0.713,0.7154,0.7154,0.7154,0.7154,0.7154,0.7154,0.7154,0.7154,0.7154,0.7154,0.7154,0.7154,0.7154,0.7154,0.7154,0.7154,0.7154,0.7154,0.7154,0.7154,0.7154,0.7154,0.7043,0.6935,0.6826,0.6606,0.6386,0.6161,1.9699,1.9444,1.8783,1.8267,1.8045,1.7781,1.7271,1.6764,1.6758,1.6494,1.6234,1.5854,1.5463,1.5192,1.4926,1.4534,1.4277,1.4141,1.4141,1.401,1.3875,1.3875,1.3862,1.3466,1.3272,1.3251,1.2833,1.2619,1.2598,1.2428,1.2312,1.2266,1.2142,1.2055,1.2014,1.1865,1.1896,1.2077,1.1343,1.098,1.0986,1.1194,1.1219,1.1048,1.0992,1.0899,1.0753,1.0498,1.0264,1.0264,1.0264,0.9991,0.9552,0.9339,0.8973,0.8553,0.8237,0.7733,0.7125,0.6721,0.6518,0.6521,0.6605,0.666,0.6654,0.6575,0.6518,0.6518,0.6529,0.6526,0.654,0.6605,0.666,0.6668,0.6741,0.6787,0.6801,0.6825,0.6844,0.6855,0.6948,0.7024,0.704,0.71,0.7146,0.7149,0.7154,0.7154,0.7154,0.7154,0.7154,0.7154,0.7154,0.7154,0.7154,0.7154,0.7154,0.7154,0.7154,0.7154,0.7154,0.7154,0.7154,0.7154,0.7154,0.7154,0.7154,0.7154,0.7154,0.7154,0.7154,0.7154,0.6937,0.6717,0.6383,2.0128,1.9723,1.9208,1.854,1.8045,1.791,1.7787,1.7405,1.74,1.7271,1.6877,1.6229,1.5974,1.5844,1.5844,1.5583,1.5332,1.4936,1.4665,1.4403,1.401,1.3875,1.4006,1.3853,1.3849,1.3822,1.3526,1.3443,1.343,1.3243,1.3194,1.2912,1.2878,1.2778,1.2625,1.2582,1.2495,1.2451,1.2412,1.2099,1.1867,1.1841,1.1744,1.1551,1.1384,1.1287,1.1261,1.0775,1.0581,1.0577,1.0381,1.0056,0.9831,0.941,0.919,0.8852,0.832,0.7697,0.6962,0.6763,0.6757,0.6768,0.6771,0.6785,0.6787,0.6777,0.6768,0.6658,0.6766,0.6747,0.6661,0.6777,0.6785,0.6785,0.6809,0.6804,0.6828,0.6902,0.697,0.697,0.7059,0.7138,0.713,0.7143,0.7154,0.7154,0.7154,0.7154,0.7154,0.7154,0.7154,0.7154,0.7154,0.7154,0.7154,0.7154,0.7154,0.7154,0.7154,0.7154,0.7154,0.7154,0.7154,0.7154,0.7154,0.7154,0.7154,0.7154,0.7154,0.7154,0.7154,0.7154,0.7154,0.7046,0.6824,2.0358,2.0092,1.9699,1.9078,1.846,1.8308,1.8173,1.7781,1.7781,1.7653,1.7265,1.7007,1.6623,1.6234,1.6104,1.5974,1.5849,1.5583,1.5453,1.5323,1.5062,1.4805,1.48,1.4408,1.4141,1.4137,1.3931,1.3765,1.373,1.3572,1.3378,1.3189,1.308,1.2974,1.2895,1.2781,1.28,1.2971,1.309,1.3189,1.303,1.2543,1.2167,1.1984,1.1885,1.1787,1.1675,1.1371,1.1112,1.1001,1.0795,1.0638,1.0327,0.9788,0.9319,0.9126,0.8269,0.7533,0.7112,0.6904,0.6804,0.6804,0.6869,0.691,0.6915,0.697,0.701,0.6997,0.6885,0.6804,0.6812,0.6866,0.691,0.6918,0.697,0.7008,0.7013,0.7054,0.7086,0.7089,0.7122,0.7154,0.7154,0.7154,0.7154,0.7154,0.7154,0.7154,0.7154,0.7154,0.7154,0.7154,0.7154,0.7154,0.7154,0.7154,0.7154,0.7154,0.7154,0.7154,0.7154,0.7154,0.7154,0.7154,0.7154,0.7154,0.7154,0.7154,0.7154,0.7154,0.7154,0.7154,0.7154,0.7154,0.7046,2.0515,2.0249,1.9917,1.9418,1.88,1.8729,1.8565,1.8168,1.8173,1.7916,1.7658,1.7658,1.74,1.6882,1.6488,1.6234,1.6104,1.6104,1.6104,1.5974,1.5719,1.5598,1.5593,1.5062,1.4796,1.4796,1.466,1.453,1.4516,1.4396,1.4217,1.4019,1.3872,1.3775,1.3574,1.3508,1.3402,1.3644,1.3846,1.397,1.405,1.3427,1.2997,1.2763,1.273,1.2632,1.2316,1.2083,1.1836,1.145,1.1236,1.0958,1.0725,1.0062,0.9581,0.9158,0.8395,0.7645,0.7214,0.711,0.7009,0.6904,0.6983,0.7032,0.7046,0.7105,0.7152,0.7138,0.6997,0.6907,0.702,0.698,0.7027,0.7037,0.7111,0.7154,0.7149,0.7154,0.7152,0.7154,0.7149,0.7154,0.7154,0.7154,0.7154,0.7154,0.7154,0.7154,0.7154,0.7154,0.7154,0.7154,0.7154,0.7154,0.7154,0.7154,0.7154,0.7154,0.7154,0.7154,0.7154,0.7154,0.7154,0.7154,0.7154,0.7154,0.7154,0.7154,0.7154,0.7154,0.7154,0.7154,0.7154,0.7154,0.7154,2.0515,2.0213,1.9712,1.9495,1.9428,1.9193,1.8828,1.8571,1.8571,1.8302,1.8039,1.8039,1.7905,1.7781,1.726,1.6748,1.6499,1.6499,1.6369,1.6099,1.5974,1.5974,1.5974,1.5974,1.5839,1.5844,1.5714,1.5709,1.5834,1.5824,1.5848,1.5513,1.5468,1.5373,1.5167,1.4951,1.4846,1.4826,1.4656,1.4535,1.4515,1.45,1.4275,1.3919,1.3858,1.3635,1.3204,1.2841,1.2418,1.19,1.1459,1.1004,1.0769,1.0449,0.9783,0.8999,0.8673,0.8121,0.7334,0.745,0.7456,0.7241,0.7122,0.7141,0.7133,0.7146,0.7154,0.7154,0.7127,0.7114,0.7114,0.7114,0.7133,0.7135,0.7146,0.7154,0.7154,0.7154,0.7154,0.7154,0.7154,0.7154,0.7154,0.7154,0.7154,0.7154,0.7154,0.7154,0.7154,0.7154,0.7154,0.7154,0.7154,0.7154,0.7154,0.7154,0.7154,0.7154,0.7154,0.7154,0.7154,0.7154,0.7154,0.7154,0.7154,0.7154,0.7154,0.7154,0.7154,0.7154,0.7154,0.7154,0.7154,0.7154,0.7154,2.0515,2.0261,2.0068,1.979,1.9464,1.9368,1.9235,1.8956,1.895,1.8693,1.8437,1.8437,1.8302,1.8033,1.7776,1.7394,1.7141,1.7147,1.7012,1.6613,1.6364,1.6369,1.6369,1.6109,1.5974,1.5974,1.5974,1.5974,1.5974,1.5974,1.5934,1.5848,1.5716,1.5605,1.5499,1.5426,1.5314,1.5289,1.5217,1.523,1.5209,1.5204,1.515,1.4998,1.4498,1.4088,1.3758,1.3267,1.2807,1.2275,1.1845,1.1455,1.1118,1.0363,0.9702,0.9034,0.8592,0.8263,0.7817,0.7604,0.7493,0.7268,0.7154,0.7154,0.7154,0.7154,0.7154,0.7154,0.7154,0.7154,0.7154,0.7154,0.7154,0.7154,0.7154,0.7154,0.7154,0.7154,0.7154,0.7154,0.7154,0.7154,0.7154,0.7154,0.7154,0.7154,0.7154,0.7154,0.7154,0.7154,0.7154,0.7154,0.7154,0.7154,0.7154,0.7154,0.7154,0.7154,0.7154,0.7154,0.7154,0.7154,0.7154,0.7154,0.7154,0.7154,0.7154,0.7154,0.7154,0.7154,0.7154,0.7154,0.7154,0.7154,0.7154,2.0563,2.0406,2.0309,2.0074,1.973,1.9633,1.9507,1.9344,1.9338,1.9214,1.909,1.8954,1.8823,1.8676,1.8676,1.8363,1.8035,1.7832,1.7529,1.726,1.7012,1.6758,1.6753,1.6494,1.6359,1.6359,1.6359,1.6359,1.6359,1.6353,1.6359,1.6343,1.6203,1.6136,1.61,1.5908,1.5794,1.5878,1.5818,1.5799,1.583,1.5801,1.5791,1.5709,1.5205,1.4665,1.4333,1.3937,1.335,1.2683,1.2413,1.1955,1.124,1.0359,0.9592,0.9258,0.8819,0.8377,0.8045,0.7826,0.7601,0.7265,0.7154,0.7154,0.7154,0.7154,0.7154,0.7154,0.7154,0.7154,0.7154,0.7154,0.7154,0.7154,0.7154,0.7154,0.7154,0.7154,0.7154,0.7154,0.7154,0.7154,0.7154,0.7154,0.7154,0.7154,0.7154,0.7154,0.7154,0.7154,0.7154,0.7154,0.7154,0.7154,0.7154,0.7154,0.7154,0.7154,0.7154,0.7154,0.7154,0.7154,0.7154,0.7154,0.7154,0.7154,0.7154,0.7154,0.7154,0.7154,0.7154,0.7154,0.7154,0.7154,0.7154,2.0665,2.0617,2.0394,2.0273,2.0177,1.9977,1.9881,1.9827,1.9833,1.9796,1.9778,1.9839,1.9796,1.9839,1.9651,1.9441,1.8947,1.8346,1.8085,1.791,1.7658,1.74,1.74,1.7136,1.7007,1.7007,1.7001,1.7001,1.7007,1.7001,1.7007,1.7001,1.699,1.6964,1.699,1.677,1.6662,1.6619,1.6431,1.6339,1.6359,1.6453,1.6336,1.6137,1.6092,1.5617,1.4914,1.4755,1.4159,1.3155,1.2847,1.2317,1.1287,1.037,0.9812,0.9702,0.9158,0.8605,0.8048,0.7934,0.7712,0.7265,0.7154,0.7154,0.7154,0.7154,0.7154,0.7154,0.7154,0.7154,0.7154,0.7154,0.7154,0.7154,0.7154,0.7154,0.7154,0.7154,0.7154,0.7154,0.7154,0.7154,0.7154,0.7154,0.7154,0.7154,0.7154,0.7154,0.7154,0.7154,0.7154,0.7154,0.7154,0.7154,0.7154,0.7154,0.7154,0.7154,0.7154,0.7154,0.7154,0.7154,0.7154,0.7154,0.7154,0.7154,0.7154,0.7154,0.7154,0.7154,0.7154,0.7154,0.7154,0.7154,0.7154,2.0665,2.0659,2.0581,2.0436,2.0279,2.0189,2.0062,1.9893,1.9887,1.9881,1.9881,1.9881,1.9881,1.9887,1.9881,1.9845,1.9621,1.9387,1.8912,1.8102,1.7922,1.7927,1.7793,1.7787,1.7647,1.7647,1.7647,1.7647,1.7653,1.7653,1.7647,1.7653,1.7647,1.7647,1.7641,1.7574,1.7541,1.7641,1.7432,1.7264,1.7298,1.7145,1.6941,1.6714,1.6445,1.61,1.5746,1.5104,1.4513,1.3838,1.3531,1.2763,1.1792,1.0871,1.026,0.9816,0.9489,0.8826,0.8156,0.7937,0.7823,0.7376,0.7154,0.7154,0.7154,0.7154,0.7154,0.7154,0.7154,0.7154,0.7154,0.7154,0.7154,0.7154,0.7154,0.7154,0.7154,0.7154,0.7154,0.7154,0.7154,0.7154,0.7154,0.7154,0.7154,0.7154,0.7154,0.7154,0.7154,0.7154,0.7154,0.7154,0.7154,0.7154,0.7154,0.7154,0.7154,0.7154,0.7154,0.7154,0.7154,0.7154,0.7154,0.7154,0.7154,0.7154,0.7154,0.7154,0.7154,0.7154,0.7154,0.7154,0.7154,0.7154,0.7154,2.0665,2.0665,2.0665,2.0581,2.0424,2.0424,2.0334,2.0189,2.0177,2.0177,2.0177,2.0183,2.0177,2.0177,2.0177,2.0122,2.0038,2.0032,1.9524,1.8763,1.858,1.858,1.8444,1.8325,1.8256,1.8188,1.8182,1.813,1.8039,1.8033,1.8033,1.8033,1.8033,1.8033,1.8033,1.8033,1.8033,1.8011,1.7885,1.7892,1.7782,1.7763,1.7555,1.7202,1.6971,1.6611,1.6209,1.5628,1.5024,1.4509,1.3867,1.2969,1.1977,1.1234,1.0576,1.0124,0.9632,0.9047,0.838,0.8156,0.7823,0.749,0.7268,0.7154,0.7154,0.7154,0.7154,0.7154,0.7154,0.7154,0.7154,0.7154,0.7154,0.7154,0.7154,0.7154,0.7154,0.7154,0.7154,0.7154,0.7154,0.7154,0.7154,0.7154,0.7154,0.7154,0.7154,0.7154,0.7154,0.7154,0.7154,0.7154,0.7154,0.7154,0.7154,0.7154,0.7154,0.7154,0.7154,0.7154,0.7154,0.7154,0.7154,0.7154,0.7154,0.7154,0.7154,0.7154,0.7154,0.7154,0.7154,0.7154,0.7154,0.7154,0.7154,2.0665,2.0665,2.0665,2.0659,2.0647,2.0647,2.0623,2.0641,2.0635,2.0617,2.0623,2.0593,2.0617,2.0641,2.0581,2.0478,2.0334,2.0297,2.0183,1.9843,1.9643,1.948,1.9258,1.8974,1.8743,1.8605,1.8588,1.8467,1.8306,1.8248,1.8056,1.822,1.8191,1.8033,1.8162,1.8033,1.8168,1.8162,1.815,1.8157,1.8224,1.8321,1.8066,1.7819,1.7614,1.7121,1.6684,1.6117,1.5731,1.5084,1.4045,1.3142,1.2161,1.1419,1.098,1.0642,0.9928,0.931,0.8846,0.8276,0.7823,0.7607,0.7379,0.7154,0.7154,0.7154,0.7154,0.7154,0.7154,0.7154,0.7154,0.7154,0.7154,0.7154,0.7154,0.7154,0.7154,0.7154,0.7154,0.7154,0.7154,0.7154,0.7154,0.7154,0.7154,0.7154,0.7154,0.7154,0.7154,0.7154,0.7154,0.7154,0.7154,0.7154,0.7154,0.7154,0.7154,0.7154,0.7154,0.7154,0.7154,0.7154,0.7154,0.7154,0.7154,0.7154,0.7154,0.7154,0.7154,0.7154,0.7154,0.7154,0.7154,0.7154,0.7154,2.0665,2.0665,2.0665,2.0665,2.0665,2.0665,2.0665,2.0665,2.0665,2.0665,2.0665,2.0665,2.0665,2.0665,2.0665,2.0623,2.0563,2.0551,2.0545,2.0472,2.046,2.0077,1.9819,1.962,1.959,1.9518,1.9379,1.9477,1.9393,1.9191,1.9108,1.909,1.8788,1.8828,1.8816,1.8822,1.8816,1.8816,1.881,1.8786,1.8848,1.8824,1.871,1.8476,1.8114,1.7731,1.7083,1.6354,1.5648,1.4764,1.4192,1.3353,1.2471,1.1949,1.1507,1.0799,1.0209,0.9546,0.8967,0.8326,0.7943,0.7607,0.7382,0.7154,0.7154,0.7154,0.7154,0.7154,0.7154,0.7154,0.7154,0.7154,0.7154,0.7154,0.7154,0.7154,0.7154,0.7154,0.7154,0.7154,0.7154,0.7154,0.7154,0.7154,0.7154,0.7154,0.7154,0.7154,0.7154,0.7154,0.7154,0.7154,0.7154,0.7154,0.7154,0.7154,0.7154,0.7154,0.7154,0.7154,0.7154,0.7154,0.7154,0.7154,0.7154,0.7154,0.7154,0.7154,0.7154,0.7154,0.7154,0.7154,0.7154,0.7154,0.7154,2.0665,2.0665,2.0665,2.0665,2.0665,2.0665,2.0665,2.0665,2.0665,2.0665,2.0665,2.0665,2.0665,2.0665,2.0665,2.0665,2.0665,2.0665,2.0659,2.0665,2.0647,2.0484,2.0273,2.0213,2.0158,2.005,2.005,1.9983,1.9875,1.9712,1.9652,1.9597,1.9374,1.9247,1.9241,1.912,1.9072,1.9072,1.9072,1.9072,1.9072,1.9072,1.9006,1.8837,1.8494,1.8054,1.7308,1.6442,1.5597,1.4794,1.4287,1.374,1.2662,1.2377,1.1811,1.0883,1.0486,0.9817,0.9225,0.8549,0.8024,0.767,0.7418,0.7268,0.7154,0.7154,0.7154,0.7154,0.7154,0.7154,0.7154,0.7154,0.7154,0.7154,0.7154,0.7154,0.7154,0.7154,0.7154,0.7154,0.7154,0.7154,0.7154,0.7154,0.7154,0.7154,0.7154,0.7154,0.7154,0.7154,0.7154,0.7154,0.7154,0.7154,0.7154,0.7154,0.7154,0.7154,0.7154,0.7154,0.7154,0.7154,0.7154,0.7154,0.7154,0.7154,0.7154,0.7154,0.7154,0.7154,0.7154,0.7154,0.7154,0.7154,0.7154,2.0665,2.0665,2.0665,2.0665,2.0665,2.0665,2.0665,2.0665,2.0665,2.0665,2.0665,2.0665,2.0665,2.0665,2.0665,2.0665,2.0665,2.0665,2.0665,2.0665,2.0665,2.0617,2.0593,2.0563,2.0478,2.0346,2.0315,2.0207,2.0074,1.9977,1.9929,1.9863,1.9645,1.9489,1.9404,1.9235,1.9114,1.9078,1.9072,1.9072,1.9072,1.9072,1.9048,1.9018,1.874,1.8262,1.7388,1.653,1.5714,1.4741,1.4685,1.3913,1.2924,1.2548,1.2018,1.1272,1.0669,1.0099,0.9381,0.8695,0.8157,0.7795,0.7486,0.7182,0.7192,0.7195,0.7184,0.7157,0.7154,0.7154,0.7154,0.7154,0.7154,0.7154,0.7154,0.7154,0.7154,0.7154,0.7154,0.7154,0.7154,0.7154,0.7154,0.7154,0.7154,0.7154,0.7154,0.7154,0.7154,0.7154,0.7154,0.7154,0.7154,0.7154,0.7154,0.7154,0.7154,0.7154,0.7154,0.7154,0.7154,0.7154,0.7154,0.7154,0.7154,0.7154,0.7154,0.7154,0.7154,0.7154,0.7154,0.7154,0.7154,0.7154,0.7154,2.0665,2.0665,2.0665,2.0665,2.0665,2.0665,2.0665,2.0665,2.0665,2.0665,2.0665,2.0665,2.0665,2.0665,2.0665,2.0665,2.0665,2.0665,2.0665,2.0665,2.0665,2.0665,2.0665,2.0665,2.0635,2.0569,2.0575,2.0539,2.0448,2.0273,2.0195,2.0158,1.9929,1.9688,1.9507,1.9446,1.9265,1.912,1.9084,1.909,1.9072,1.9072,1.9072,1.9066,1.8762,1.8354,1.7645,1.7155,1.6382,1.5391,1.4746,1.4096,1.2978,1.2684,1.217,1.1299,1.0837,1.0266,0.953,0.8958,0.8518,0.7927,0.7662,0.7396,0.7301,0.7296,0.7252,0.7187,0.7154,0.7179,0.7168,0.716,0.7154,0.7154,0.7154,0.7154,0.7154,0.7154,0.7154,0.7154,0.7154,0.7154,0.7154,0.7154,0.7154,0.7154,0.7154,0.7154,0.7154,0.7154,0.7154,0.7154,0.7154,0.7154,0.7154,0.7154,0.7154,0.7154,0.7154,0.7154,0.7154,0.7154,0.7154,0.7154,0.7154,0.7154,0.7154,0.7154,0.7154,0.7154,0.7154,0.7154,0.7154,0.7154,0.7154,2.0665,2.0665,2.0665,2.0665,2.0665,2.0665,2.0665,2.0665,2.0665,2.0665,2.0665,2.0665,2.0665,2.0665,2.0665,2.0665,2.0665,2.0665,2.0665,2.0665,2.0665,2.0665,2.0665,2.0665,2.0665,2.0665,2.0665,2.0665,2.0617,2.0539,2.046,2.0436,2.0201,2.0026,1.9833,1.9718,1.9525,1.932,1.9253,1.9211,1.9096,1.9072,1.9072,1.9078,1.8822,1.8361,1.7856,1.7455,1.6713,1.5909,1.514,1.429,1.3094,1.2776,1.2126,1.1137,1.085,1.0426,0.9673,0.9103,0.854,0.8054,0.7668,0.7491,0.7437,0.7421,0.7396,0.7342,0.7323,0.7312,0.7244,0.7173,0.7163,0.7154,0.7157,0.7157,0.7157,0.7154,0.7154,0.7154,0.7154,0.7154,0.7154,0.7154,0.7154,0.7154,0.7154,0.7154,0.7154,0.7154,0.7154,0.7154,0.7154,0.7154,0.7154,0.7154,0.7154,0.7154,0.7154,0.7154,0.7154,0.7154,0.7154,0.7154,0.7154,0.7154,0.7154,0.7154,0.7154,0.7154,0.7154,0.7154,0.7154,0.7154,0.7154,2.0665,2.0665,2.0665,2.0665,2.0665,2.0665,2.0665,2.0665,2.0665,2.0665,2.0665,2.0665,2.0665,2.0665,2.0665,2.0665,2.0665,2.0665,2.0665,2.0665,2.0665,2.0665,2.0665,2.0665,2.0665,2.0665,2.0665,2.0665,2.0665,2.0665,2.0617,2.0611,2.046,2.0279,2.0207,2.0062,1.9808,1.9567,1.9452,1.9362,1.9175,1.9114,1.9072,1.9072,1.8822,1.8431,1.7971,1.759,1.6965,1.6313,1.5725,1.4649,1.3596,1.2769,1.216,1.0951,1.08,1.04,0.9778,0.9223,0.8555,0.7943,0.7757,0.7573,0.7557,0.7543,0.7519,0.7505,0.7478,0.7451,0.7369,0.7304,0.7241,0.7222,0.7206,0.7182,0.7179,0.7171,0.7154,0.7154,0.7154,0.7154,0.7154,0.7154,0.7154,0.7154,0.7154,0.7154,0.7154,0.7154,0.7154,0.7154,0.7154,0.7154,0.7154,0.7154,0.7154,0.7154,0.7154,0.7154,0.7154,0.7154,0.7154,0.7154,0.7154,0.7154,0.7154,0.7154,0.7154,0.7154,0.7154,0.7154,0.7154,0.7154,0.7171,2.0665,2.0665,2.0665,2.0665,2.0665,2.0665,2.0665,2.0665,2.0665,2.0665,2.0665,2.0665,2.0665,2.0665,2.0665,2.0665,2.0665,2.0665,2.0665,2.0665,2.0665,2.0665,2.0665,2.0665,2.0665,2.0665,2.0665,2.0665,2.0665,2.0665,2.0665,2.0653,2.0611,2.0496,2.034,2.0213,2.0086,1.982,1.9652,1.9507,1.9392,1.9217,1.909,1.9084,1.895,1.8688,1.8162,1.7871,1.7462,1.655,1.5967,1.5072,1.4051,1.3283,1.239,1.1341,1.0753,1.0454,0.9836,0.9313,0.8684,0.8196,0.8043,0.7993,0.7817,0.7668,0.7635,0.7568,0.754,0.7513,0.7494,0.744,0.7451,0.7429,0.7364,0.7307,0.7288,0.7244,0.7195,0.7209,0.7187,0.7154,0.7154,0.7154,0.7154,0.7154,0.7154,0.7154,0.7154,0.7154,0.7154,0.7154,0.7154,0.7154,0.7154,0.7154,0.7154,0.7154,0.7154,0.7154,0.7154,0.7154,0.7154,0.7154,0.7154,0.7154,0.7154,0.7154,0.7154,0.7154,0.7154,0.7157,0.7184,0.7209,0.7249,2.0665,2.0665,2.0665,2.0665,2.0665,2.0665,2.0665,2.0665,2.0665,2.0665,2.0665,2.0665,2.0665,2.0665,2.0665,2.0665,2.0665,2.0665,2.0665,2.0665,2.0665,2.0665,2.0665,2.0665,2.0665,2.0665,2.0665,2.0665,2.0665,2.0665,2.0665,2.0665,2.0665,2.0599,2.0509,2.0478,2.0327,2.0098,1.9941,1.9802,1.967,1.9416,1.9241,1.9102,1.9078,1.8688,1.8168,1.8033,1.7647,1.6856,1.6131,1.5564,1.4809,1.3743,1.2767,1.1666,1.1016,1.0544,0.991,0.9384,0.8961,0.8352,0.8366,0.8221,0.7931,0.7782,0.775,0.7706,0.763,0.7614,0.7614,0.7565,0.7524,0.751,0.7464,0.744,0.7418,0.7372,0.7339,0.7298,0.7233,0.7192,0.7154,0.7154,0.7154,0.7154,0.716,0.7157,0.716,0.7154,0.7154,0.7154,0.7154,0.7154,0.7154,0.7154,0.7154,0.7154,0.7154,0.7154,0.7163,0.7168,0.7163,0.7154,0.7154,0.7198,0.7157,0.7157,0.7157,0.7163,0.7176,0.7195,0.7233,0.7271,0.732,2.0665,2.0665,2.0665,2.0665,2.0665,2.0665,2.0665,2.0665,2.0665,2.0665,2.0665,2.0665,2.0665,2.0665,2.0665,2.0665,2.0665,2.0665,2.0665,2.0665,2.0665,2.0665,2.0665,2.0665,2.0665,2.0665,2.0665,2.0665,2.0665,2.0665,2.0665,2.0665,2.0665,2.0665,2.0647,2.0623,2.0509,2.0418,2.0285,2.0146,1.9893,1.9664,1.9422,1.9181,1.9151,1.8887,1.8039,1.8033,1.7647,1.7001,1.6343,1.5829,1.5419,1.4378,1.3199,1.2282,1.1583,1.0731,1.0053,0.9757,0.9328,0.855,0.8532,0.827,0.7991,0.7853,0.7856,0.7853,0.7799,0.7733,0.7725,0.7655,0.7614,0.7597,0.7587,0.7551,0.7543,0.7513,0.7475,0.7407,0.7304,0.7277,0.7288,0.7277,0.7301,0.7236,0.7236,0.7179,0.7176,0.7157,0.7154,0.7154,0.7154,0.7154,0.7154,0.7154,0.7154,0.7154,0.7154,0.7154,0.7171,0.7184,0.7192,0.7222,0.7274,0.7304,0.7233,0.7184,0.7217,0.7233,0.7222,0.726,0.7339,0.7388,0.7426,2.0665,2.0665,2.0665,2.0665,2.0665,2.0665,2.0665,2.0665,2.0665,2.0665,2.0665,2.0665,2.0665,2.0665,2.0665,2.0665,2.0665,2.0665,2.0665,2.0665,2.0665,2.0665,2.0665,2.0665,2.0665,2.0665,2.0665,2.0665,2.0665,2.0665,2.0665,2.0665,2.0665,2.0665,2.0665,2.0665,2.0653,2.0581,2.04,2.0171,1.9953,1.9857,1.9688,1.9501,1.9404,1.9054,1.8243,1.8079,1.768,1.7001,1.6359,1.5839,1.5443,1.4516,1.3718,1.2946,1.211,1.0879,1.0359,1.0062,0.9751,0.9047,0.8904,0.8591,0.817,0.7891,0.7888,0.7872,0.7847,0.7837,0.7831,0.7826,0.7823,0.7777,0.772,0.769,0.7671,0.7644,0.7608,0.7587,0.7502,0.7491,0.7494,0.7472,0.7448,0.7372,0.7301,0.7252,0.7225,0.7233,0.723,0.7249,0.7255,0.7255,0.726,0.7247,0.7233,0.7211,0.7211,0.7209,0.7244,0.7288,0.7304,0.7339,0.7391,0.7383,0.7298,0.7271,0.7301,0.7326,0.7461,0.7407,0.7483,0.7519,0.7538,2.0665,2.0665,2.0665,2.0665,2.0665,2.0665,2.0665,2.0665,2.0665,2.0665,2.0665,2.0665,2.0665,2.0665,2.0665,2.0665,2.0665,2.0665,2.0665,2.0665,2.0665,2.0665,2.0665,2.0665,2.0665,2.0665,2.0665,2.0665,2.0665,2.0665,2.0665,2.0665,2.0665,2.0665,2.0665,2.0665,2.0665,2.0629,2.0545,2.037,2.0177,2.0086,1.9983,1.973,1.9706,1.9149,1.8444,1.8239,1.777,1.705,1.6359,1.5969,1.5574,1.466,1.3748,1.3604,1.2315,1.1401,1.1045,1.0586,0.9875,0.932,0.9154,0.8854,0.8256,0.7973,0.7937,0.7875,0.7872,0.7875,0.7877,0.7872,0.7872,0.785,0.7815,0.7804,0.778,0.7766,0.7739,0.7725,0.7709,0.7682,0.7644,0.7584,0.754,0.7481,0.7434,0.741,0.7396,0.7404,0.7399,0.7388,0.7391,0.7391,0.7402,0.7402,0.7399,0.7385,0.7385,0.7385,0.7388,0.7413,0.7432,0.744,0.747,0.7434,0.7364,0.7383,0.7432,0.7575,0.7599,0.7546,0.7603,0.7622,0.7657,2.0665,2.0665,2.0665,2.0665,2.0665,2.0665,2.0665,2.0665,2.0665,2.0665,2.0665,2.0665,2.0665,2.0665,2.0665,2.0665,2.0665,2.0665,2.0665,2.0665,2.0665,2.0665,2.0665,2.0665,2.0665,2.0665,2.0665,2.0665,2.0665,2.0665,2.0665,2.0665,2.0665,2.0665,2.0665,2.0665,2.0665,2.0659,2.0653,2.0545,2.0406,2.0376,2.0225,2.0068,1.9953,1.9578,1.8685,1.8502,1.7993,1.7163,1.6467,1.6065,1.5729,1.466,1.4006,1.3613,1.2521,1.1829,1.1337,1.0862,1.0125,0.9691,0.9127,0.8813,0.8248,0.8098,0.8079,0.7997,0.794,0.7932,0.7913,0.7899,0.7872,0.7872,0.7861,0.7869,0.7867,0.7831,0.7815,0.7804,0.7799,0.7823,0.7771,0.7687,0.7627,0.7581,0.7559,0.7551,0.754,0.7535,0.751,0.7483,0.7478,0.7475,0.7483,0.7502,0.7519,0.7538,0.754,0.7521,0.7497,0.7527,0.7559,0.7565,0.757,0.7603,0.7606,0.7587,0.7568,0.7707,0.7735,0.7668,0.7712,0.7728,0.775,2.0665,2.0665,2.0665,2.0665,2.0665,2.0665,2.0665,2.0665,2.0665,2.0665,2.0665,2.0665,2.0665,2.0665,2.0665,2.0665,2.0665,2.0665,2.0665,2.0665,2.0665,2.0665,2.0665,2.0665,2.0665,2.0665,2.0665,2.0665,2.0665,2.0665,2.0665,2.0665,2.0665,2.0665,2.0665,2.0665,2.0665,2.0665,2.0665,2.0665,2.0611,2.0581,2.0484,2.0309,2.0231,1.9858,1.8793,1.877,1.8389,1.7367,1.6685,1.6186,1.5808,1.4721,1.4059,1.3621,1.2704,1.2025,1.1578,1.103,1.0471,0.9834,0.9355,0.8779,0.8228,0.8223,0.8209,0.8171,0.8081,0.8046,0.8008,0.7954,0.7913,0.7899,0.7899,0.7872,0.7872,0.7869,0.7856,0.7867,0.7872,0.7872,0.7869,0.7777,0.7739,0.7693,0.7682,0.7674,0.7619,0.7603,0.7576,0.7554,0.7546,0.754,0.7535,0.7562,0.7616,0.7627,0.7625,0.7592,0.7557,0.7606,0.7684,0.7701,0.7714,0.7782,0.782,0.7741,0.7695,0.784,0.7867,0.7771,0.779,0.7804,0.782,2.0665,2.0665,2.0665,2.0665,2.0665,2.0665,2.0665,2.0665,2.0665,2.0665,2.0665,2.0665,2.0665,2.0665,2.0665,2.0665,2.0665,2.0665,2.0665,2.0665,2.0665,2.0665,2.0665,2.0665,2.0665,2.0665,2.0665,2.0665,2.0665,2.0665,2.0665,2.0665,2.0665,2.0665,2.0665,2.0665,2.0665,2.0665,2.0665,2.0665,2.0665,2.0665,2.0617,2.0539,2.0515,1.9959,1.9209,1.9033,1.8474,1.7653,1.6923,1.6512,1.5957,1.4865,1.4143,1.3792,1.2736,1.22,1.1659,1.1125,1.0422,0.9867,0.9261,0.8807,0.8356,0.8348,0.8299,0.8247,0.8204,0.8168,0.8149,0.8062,0.7989,0.7967,0.794,0.791,0.7888,0.7896,0.7875,0.7877,0.7875,0.7872,0.7872,0.7861,0.7837,0.7812,0.7804,0.7785,0.7728,0.7695,0.7679,0.7674,0.7671,0.7684,0.7684,0.7706,0.7728,0.7717,0.7709,0.7693,0.7676,0.7741,0.7807,0.7826,0.7823,0.7839,0.7842,0.7826,0.7812,0.7922,0.7939,0.7845,0.7864,0.7872,0.7883,2.0665,2.0665,2.0665,2.0665,2.0665,2.0665,2.0665,2.0665,2.0665,2.0665,2.0665,2.0665,2.0665,2.0665,2.0665,2.0665,2.0665,2.0665,2.0665,2.0665,2.0665,2.0665,2.0665,2.0665,2.0665,2.0665,2.0665,2.0665,2.0665,2.0665,2.0665,2.0665,2.0665,2.0665,2.0665,2.0665,2.0665,2.0665,2.0665,2.0665,2.0665,2.0665,2.0665,2.0647,2.0641,2.0154,1.9599,1.9273,1.8742,1.7911,1.7125,1.6616,1.5952,1.518,1.4312,1.3686,1.3079,1.2261,1.1714,1.1136,1.0462,0.9772,0.9507,0.9056,0.8624,0.8467,0.8429,0.8375,0.8326,0.8288,0.8282,0.8185,0.8117,0.8095,0.8073,0.804,0.7975,0.7956,0.7913,0.7883,0.7877,0.7872,0.7872,0.7872,0.7864,0.7847,0.7842,0.7834,0.7823,0.7804,0.7815,0.7815,0.7818,0.7839,0.7861,0.7826,0.7793,0.7801,0.7799,0.782,0.7831,0.7872,0.7872,0.7856,0.7853,0.7867,0.7861,0.7847,0.7853,0.7864,0.7872,0.7872,0.7872,0.7875,0.7913,2.0665,2.0665,2.0665,2.0665,2.0665,2.0665,2.0665,2.0665,2.0665,2.0665,2.0665,2.0665,2.0665,2.0665,2.0665,2.0665,2.0665,2.0665,2.0665,2.0665,2.0665,2.0665,2.0665,2.0665,2.0665,2.0665,2.0665,2.0665,2.0665,2.0665,2.0665,2.0665,2.0665,2.0665,2.0665,2.0665,2.0665,2.0665,2.0665,2.0665,2.0665,2.0665,2.0665,2.0665,2.0665,2.034,1.9756,1.9461,1.907,1.8116,1.7379,1.6848,1.6531,1.5273,1.4556,1.438,1.3308,1.2573,1.1996,1.1196,1.0482,0.98,0.9528,0.9244,0.8709,0.8571,0.8557,0.8486,0.8459,0.8418,0.8372,0.8312,0.8258,0.822,0.8195,0.8144,0.8081,0.8049,0.8013,0.7981,0.7918,0.7875,0.7872,0.7872,0.7872,0.7867,0.7869,0.7872,0.7872,0.7872,0.7872,0.7872,0.7872,0.7872,0.7872,0.7872,0.7861,0.7872,0.7872,0.7872,0.7872,0.7872,0.7872,0.7872,0.7872,0.7872,0.7872,0.7869,0.7888,0.7905,0.7877,0.7872,0.7872,0.7902,0.7956,2.0665,2.0665,2.0665,2.0665,2.0665,2.0665,2.0665,2.0665,2.0665,2.0665,2.0665,2.0665,2.0665,2.0665,2.0665,2.0665,2.0665,2.0665,2.0665,2.0665,2.0665,2.0665,2.0665,2.0665,2.0665,2.0665,2.0665,2.0671,2.0665,2.0696,2.0678,2.0665,2.072,2.0665,2.0665,2.0665,2.0665,2.0665,2.0665,2.0665,2.0665,2.0665,2.0665,2.0665,2.0665,2.0382,1.9675,1.9541,1.9206,1.8299,1.7581,1.7061,1.6619,1.5473,1.4733,1.4379,1.3568,1.2558,1.1661,1.0745,1.0555,0.9971,0.9664,0.9395,0.8723,0.8587,0.8587,0.8584,0.8546,0.8516,0.8511,0.8421,0.8361,0.8334,0.8299,0.8231,0.8179,0.8174,0.8155,0.8122,0.807,0.7964,0.7921,0.7915,0.7913,0.7888,0.7886,0.7875,0.7872,0.7872,0.7872,0.7872,0.7872,0.7872,0.7872,0.7872,0.7872,0.7872,0.7872,0.7872,0.7872,0.7872,0.7872,0.7872,0.7872,0.7872,0.7896,0.7918,0.7937,0.7943,0.7945,0.7959,0.7989,0.8016,0.8051,2.0665,2.0665,2.0665,2.0665,2.0665,2.0665,2.0665,2.0665,2.0665,2.0665,2.0665,2.0665,2.0665,2.0665,2.0665,2.0665,2.0665,2.0665,2.0665,2.0665,2.0665,2.0665,2.0665,2.0665,2.0665,2.0671,2.0684,2.0696,2.0828,2.081,2.0883,2.0949,2.0853,2.084,2.0804,2.0756,2.0665,2.0665,2.0665,2.0665,2.0665,2.0665,2.0665,2.0665,2.0665,2.0388,1.982,1.9401,1.9262,1.8433,1.7845,1.7238,1.6698,1.5803,1.4924,1.4562,1.362,1.2436,1.1484,1.1026,1.068,0.9893,0.9701,0.9395,0.8723,0.8587,0.8587,0.8587,0.8587,0.8587,0.8568,0.8481,0.8467,0.844,0.8418,0.8353,0.8301,0.8299,0.8266,0.8236,0.8187,0.8079,0.7997,0.7967,0.7962,0.7929,0.7899,0.7894,0.7886,0.7875,0.7872,0.7872,0.7872,0.7872,0.7872,0.7872,0.7872,0.7872,0.788,0.7888,0.7872,0.7872,0.7872,0.7875,0.7883,0.7899,0.7945,0.7978,0.804,0.8068,0.807,0.8087,0.8111,0.8136,0.8157,2.0665,2.0665,2.0665,2.0665,2.0665,2.0665,2.0665,2.0665,2.0665,2.0665,2.0665,2.0665,2.0665,2.0665,2.0665,2.0665,2.0665,2.0665,2.0665,2.0665,2.0665,2.0665,2.0665,2.0665,2.0665,2.0671,2.0726,2.0853,2.1034,2.1076,2.1203,2.1305,2.116,2.1064,2.0961,2.0853,2.0726,2.069,2.0665,2.0665,2.0665,2.0665,2.0665,2.0665,2.0665,2.0243,1.982,1.9541,1.9128,1.8428,1.7726,1.7444,1.6875,1.5753,1.5328,1.4561,1.3299,1.2451,1.1628,1.1313,1.0816,1.0011,0.9753,0.9291,0.8856,0.8587,0.8587,0.8587,0.8587,0.8587,0.8573,0.8568,0.8562,0.8557,0.8557,0.8503,0.844,0.8402,0.8364,0.8323,0.8277,0.8206,0.8157,0.8117,0.806,0.8046,0.8021,0.7994,0.797,0.788,0.7877,0.7872,0.7872,0.7872,0.7872,0.788,0.7872,0.7872,0.7913,0.7924,0.7899,0.7918,0.7973,0.7983,0.7924,0.794,0.8035,0.8117,0.8066,0.8206,0.8209,0.8217,0.8242,0.8244,0.8272,2.0665,2.0665,2.0665,2.0665,2.0665,2.0665,2.0665,2.0665,2.0665,2.0665,2.0665,2.0665,2.0665,2.0665,2.0665,2.0665,2.0665,2.0665,2.0665,2.0665,2.0665,2.0665,2.0665,2.0665,2.0665,2.0726,2.0822,2.0955,2.11,2.1221,2.1384,2.1426,2.1414,2.1275,2.113,2.0985,2.084,2.0726,2.069,2.0665,2.0665,2.0665,2.0665,2.0665,2.0665,2.0243,1.982,1.9541,1.9128,1.8433,1.7731,1.7308,1.7168,1.5895,1.4906,1.421,1.3274,1.2477,1.1787,1.1468,1.0981,1.0288,0.9884,0.9347,0.889,0.8592,0.8592,0.8587,0.8587,0.8587,0.8587,0.8587,0.8587,0.8587,0.8587,0.856,0.8508,0.8497,0.8462,0.8446,0.8397,0.8339,0.8293,0.8233,0.8182,0.8174,0.8152,0.8111,0.8068,0.7983,0.794,0.794,0.7934,0.7951,0.7907,0.7902,0.7883,0.7877,0.7945,0.8005,0.8019,0.8049,0.8103,0.8111,0.8081,0.8108,0.8168,0.8247,0.8189,0.835,0.8356,0.8361,0.8364,0.8367,0.8383,2.0418,2.0509,2.0515,2.0569,2.0659,2.0665,2.0665,2.0665,2.0665,2.0665,2.0665,2.0665,2.0665,2.0665,2.0665,2.0665,2.0665,2.0665,2.0665,2.0665,2.0665,2.0665,2.0665,2.0665,2.0665,2.0738,2.084,2.0979,2.1233,2.1595,2.1806,2.1806,2.1716,2.1547,2.1384,2.1185,2.0979,2.084,2.0744,2.0684,2.0665,2.0665,2.0665,2.0665,2.0665,2.0243,1.968,1.9541,1.9128,1.8433,1.7726,1.7308,1.7026,1.59,1.4634,1.3928,1.3186,1.2419,1.1778,1.1484,1.0972,1.0442,1.0055,0.9516,0.8971,0.8628,0.8606,0.8587,0.8587,0.8587,0.8587,0.8587,0.8587,0.8587,0.8587,0.8587,0.8581,0.8581,0.8573,0.8565,0.8522,0.8462,0.8405,0.8345,0.8301,0.8288,0.825,0.8195,0.8166,0.8122,0.8087,0.8081,0.8062,0.8054,0.8005,0.7983,0.8005,0.803,0.8081,0.813,0.8144,0.8157,0.819,0.8231,0.8261,0.8285,0.8307,0.8367,0.8429,0.8454,0.8473,0.8475,0.8475,0.8484,0.8511,2.0032,2.0249,2.0249,2.0394,2.0617,2.0623,2.0635,2.0665,2.0665,2.0665,2.0665,2.0665,2.0665,2.0665,2.0665,2.0665,2.0665,2.0665,2.0665,2.0665,2.0665,2.0665,2.0665,2.0665,2.0665,2.0671,2.0804,2.1082,2.1529,2.1836,2.2042,2.2229,2.2023,2.1836,2.1698,2.142,2.1191,2.0979,2.084,2.0744,2.0684,2.0665,2.0665,2.0665,2.0665,2.0388,1.982,1.9401,1.9267,1.8428,1.7731,1.7308,1.6466,1.5758,1.4776,1.3924,1.3197,1.2466,1.1872,1.1579,1.1096,1.0599,1.0263,0.9698,0.9139,0.8701,0.8655,0.8595,0.8587,0.8587,0.8587,0.8587,0.8587,0.8587,0.8587,0.8587,0.8587,0.8587,0.8584,0.8581,0.8568,0.8519,0.8511,0.8454,0.8426,0.8407,0.838,0.8318,0.8291,0.8269,0.8223,0.8209,0.8166,0.8147,0.8152,0.8141,0.8176,0.8209,0.8231,0.8247,0.8258,0.8263,0.8266,0.8334,0.8402,0.8413,0.844,0.8481,0.8511,0.8535,0.8552,0.8573,0.8579,0.8565,0.8568,1.9917,1.9977,1.9983,2.0134,2.0352,2.037,2.049,2.0659,2.0665,2.0665,2.0665,2.0665,2.0665,2.0665,2.0665,2.0665,2.0665,2.0665,2.0665,2.0665,2.0665,2.0665,2.0665,2.0665,2.0665,2.0738,2.0907,2.1191,2.1595,2.1879,2.2078,2.2223,2.2132,2.2072,2.1915,2.1637,2.1462,2.1185,2.0997,2.084,2.0726,2.0684,2.0665,2.0665,2.0665,2.0249,1.982,1.9541,1.9128,1.8428,1.7731,1.6749,1.5616,1.519,1.4634,1.3932,1.3201,1.2474,1.19,1.1616,1.1149,1.0677,1.033,0.9688,0.9285,0.8966,0.8704,0.8636,0.8587,0.8587,0.8587,0.8587,0.8587,0.8587,0.8587,0.8587,0.8587,0.8587,0.8587,0.8587,0.8587,0.8584,0.8581,0.8571,0.8554,0.8541,0.8538,0.8508,0.8489,0.8459,0.835,0.8315,0.8247,0.8228,0.8261,0.8285,0.8312,0.8323,0.8334,0.835,0.8369,0.8397,0.8421,0.8484,0.8538,0.8522,0.8516,0.8546,0.8576,0.8587,0.8587,0.8587,0.8587,0.8579,0.8581,1.9597,1.9712,1.9839,1.9971,2.0104,2.0225,2.0364,2.0496,2.0611,2.0665,2.0665,2.0665,2.0665,2.0665,2.0665,2.0665,2.0665,2.0665,2.0665,2.0665,2.0665,2.0665,2.0665,2.0665,2.0665,2.0738,2.0943,2.1239,2.1541,2.1812,2.1981,2.2096,2.2144,2.2174,2.2011,2.1921,2.1734,2.1438,2.1215,2.0991,2.081,2.0744,2.0678,2.0665,2.0527,2.0243,1.9825,1.9541,1.9128,1.8422,1.7585,1.6457,1.547,1.5048,1.4634,1.3928,1.3205,1.247,1.19,1.1472,1.1181,1.0712,1.041,1.0054,0.9256,0.8951,0.8842,0.8764,0.8614,0.859,0.8587,0.8587,0.8587,0.8587,0.8587,0.8587,0.8587,0.8587,0.8587,0.8587,0.8587,0.8587,0.8584,0.8584,0.8571,0.8571,0.8581,0.8581,0.8584,0.8587,0.8492,0.8426,0.8364,0.8372,0.8429,0.8437,0.8435,0.844,0.8435,0.8462,0.8486,0.8535,0.8581,0.8579,0.8579,0.8576,0.8581,0.8587,0.8587,0.8587,0.8587,0.8587,0.8587,0.8587,0.8587,1.9223,1.9446,1.967,1.9802,1.9863,2.0068,2.0189,2.0267,2.0496,2.0605,2.0611,2.0641,2.0665,2.0665,2.0665,2.0665,2.0665,2.0665,2.0665,2.0665,2.0665,2.0665,2.0665,2.0665,2.0665,2.0726,2.0883,2.1003,2.1166,2.1462,2.1698,2.1848,2.2036,2.2205,2.215,2.206,2.186,2.1673,2.1438,2.1148,2.0967,2.081,2.0708,2.0665,2.0665,2.0249,1.9825,1.9541,1.9128,1.8422,1.7434,1.631,1.5465,1.5048,1.4491,1.3928,1.3201,1.2474,1.176,1.1616,1.1181,1.0743,1.0603,1.0123,0.9459,0.909,0.8981,0.8875,0.8723,0.8625,0.8625,0.8592,0.8592,0.8587,0.8587,0.8587,0.8587,0.8587,0.8587,0.8587,0.8587,0.8587,0.8587,0.8587,0.8587,0.8587,0.8587,0.8587,0.8587,0.8587,0.8546,0.8522,0.8497,0.8527,0.8565,0.8546,0.8516,0.8524,0.8522,0.856,0.8587,0.8587,0.8587,0.8587,0.8587,0.8587,0.8587,0.8587,0.8587,0.8587,0.8587,0.8587,0.8587,0.8587,0.8587,1.9102,1.9157,1.9211,1.935,1.9537,1.9615,1.9742,1.9983,2.0237,2.0352,2.0418,2.0581,2.0665,2.0665,2.0665,2.0665,2.0665,2.0665,2.0665,2.0665,2.0665,2.0665,2.0665,2.0665,2.0665,2.0708,2.0768,2.0853,2.0979,2.116,2.1347,2.1559,2.1812,2.1951,2.1981,2.1957,2.2011,2.1824,2.1607,2.1323,2.1046,2.0871,2.0702,2.0665,2.0665,2.0243,1.982,1.968,1.9122,1.8422,1.7434,1.6306,1.5465,1.4906,1.4634,1.3924,1.3197,1.2474,1.19,1.1616,1.1185,1.0897,1.0606,1.0305,0.9655,0.9174,0.9095,0.9054,0.8913,0.8774,0.8731,0.8638,0.8611,0.8595,0.8587,0.8587,0.8587,0.8587,0.8587,0.8587,0.8587,0.8587,0.8587,0.8587,0.8587,0.8587,0.8587,0.8587,0.8587,0.8587,0.8587,0.8587,0.8587,0.8587,0.8581,0.8579,0.8562,0.8579,0.8587,0.8587,0.8587,0.8587,0.8587,0.8587,0.8587,0.8587,0.8587,0.8587,0.8587,0.8587,0.8587,0.8587,0.8587,0.8587,0.8587]}]]